<?xml version="1.0" encoding="UTF-8" standalone="no" ?>
<gpx xmlns="http://www.topografix.com/GPX/1/1" xmlns:xsi="http://www.w3.org/2001/XMLSchema-instance" xsi:schemaLocation="http://www.topografix.com/GPX/1/1 http://www.topografix.com/GPX/1/1/gpx.xsd" version="1.1" creator="VisuGPX - https://www.visugpx.com">
  <metadata>
    <name>2021-05-09 10:53:06</name>
  </metadata>
  <trk>
    <name><![CDATA[2021-05-09 10:53:06]]></name>
    <trkseg>
      <trkpt lat="49.22538" lon="0.9033">
        <ele>168.28</ele>
        <time>2021-05-09T05:54:59Z</time>
      </trkpt>
      <trkpt lat="49.22538" lon="0.9033">
        <ele>168.33</ele>
        <time>2021-05-09T05:55:00Z</time>
      </trkpt>
      <trkpt lat="49.22537" lon="0.9033">
        <ele>168.51</ele>
        <time>2021-05-09T05:55:01Z</time>
      </trkpt>
      <trkpt lat="49.22533" lon="0.90326">
        <ele>168.48</ele>
        <time>2021-05-09T05:55:14Z</time>
      </trkpt>
      <trkpt lat="49.22532" lon="0.90326">
        <ele>168.55</ele>
        <time>2021-05-09T05:55:39Z</time>
      </trkpt>
      <trkpt lat="49.22534" lon="0.90322">
        <ele>168.12</ele>
        <time>2021-05-09T05:58:56Z</time>
      </trkpt>
      <trkpt lat="49.22549" lon="0.90324">
        <ele>168.16</ele>
        <time>2021-05-09T05:59:06Z</time>
      </trkpt>
      <trkpt lat="49.22553" lon="0.90322">
        <ele>168.17</ele>
        <time>2021-05-09T05:59:08Z</time>
      </trkpt>
      <trkpt lat="49.22579" lon="0.90303">
        <ele>168.14</ele>
        <time>2021-05-09T05:59:20Z</time>
      </trkpt>
      <trkpt lat="49.22582" lon="0.90305">
        <ele>168.13</ele>
        <time>2021-05-09T05:59:21Z</time>
      </trkpt>
      <trkpt lat="49.22584" lon="0.90308">
        <ele>168.13</ele>
        <time>2021-05-09T05:59:22Z</time>
      </trkpt>
      <trkpt lat="49.22604" lon="0.90353">
        <ele>167.7</ele>
        <time>2021-05-09T05:59:32Z</time>
      </trkpt>
      <trkpt lat="49.22606" lon="0.90358">
        <ele>167.68</ele>
        <time>2021-05-09T05:59:33Z</time>
      </trkpt>
      <trkpt lat="49.22617" lon="0.90387">
        <ele>167.67</ele>
        <time>2021-05-09T05:59:38Z</time>
      </trkpt>
      <trkpt lat="49.2266" lon="0.90489">
        <ele>167.58</ele>
        <time>2021-05-09T05:59:55Z</time>
      </trkpt>
      <trkpt lat="49.22664" lon="0.90494">
        <ele>167.53</ele>
        <time>2021-05-09T05:59:56Z</time>
      </trkpt>
      <trkpt lat="49.22668" lon="0.90498">
        <ele>167.52</ele>
        <time>2021-05-09T05:59:57Z</time>
      </trkpt>
      <trkpt lat="49.22737" lon="0.90554">
        <ele>167.48</ele>
        <time>2021-05-09T06:00:13Z</time>
      </trkpt>
      <trkpt lat="49.22742" lon="0.90556">
        <ele>167.47</ele>
        <time>2021-05-09T06:00:15Z</time>
      </trkpt>
      <trkpt lat="49.22745" lon="0.90555">
        <ele>167.46</ele>
        <time>2021-05-09T06:00:16Z</time>
      </trkpt>
      <trkpt lat="49.22748" lon="0.90552">
        <ele>167.46</ele>
        <time>2021-05-09T06:00:17Z</time>
      </trkpt>
      <trkpt lat="49.22754" lon="0.90545">
        <ele>167.46</ele>
        <time>2021-05-09T06:00:19Z</time>
      </trkpt>
      <trkpt lat="49.22774" lon="0.90521">
        <ele>167.47</ele>
        <time>2021-05-09T06:00:25Z</time>
      </trkpt>
      <trkpt lat="49.2282" lon="0.90486">
        <ele>167.84</ele>
        <time>2021-05-09T06:00:35Z</time>
      </trkpt>
      <trkpt lat="49.22852" lon="0.90463">
        <ele>167.73</ele>
        <time>2021-05-09T06:00:43Z</time>
      </trkpt>
      <trkpt lat="49.22917" lon="0.90405">
        <ele>166.8</ele>
        <time>2021-05-09T06:00:57Z</time>
      </trkpt>
      <trkpt lat="49.22951" lon="0.90372">
        <ele>166.29</ele>
        <time>2021-05-09T06:01:05Z</time>
      </trkpt>
      <trkpt lat="49.22976" lon="0.90365">
        <ele>165.91</ele>
        <time>2021-05-09T06:01:10Z</time>
      </trkpt>
      <trkpt lat="49.22987" lon="0.90368">
        <ele>165.65</ele>
        <time>2021-05-09T06:01:12Z</time>
      </trkpt>
      <trkpt lat="49.23002" lon="0.90379">
        <ele>165.4</ele>
        <time>2021-05-09T06:01:15Z</time>
      </trkpt>
      <trkpt lat="49.23036" lon="0.90377">
        <ele>164.82</ele>
        <time>2021-05-09T06:01:21Z</time>
      </trkpt>
      <trkpt lat="49.23062" lon="0.90343">
        <ele>164.49</ele>
        <time>2021-05-09T06:01:26Z</time>
      </trkpt>
      <trkpt lat="49.23084" lon="0.90327">
        <ele>163.7</ele>
        <time>2021-05-09T06:01:30Z</time>
      </trkpt>
      <trkpt lat="49.23129" lon="0.90344">
        <ele>163.39</ele>
        <time>2021-05-09T06:01:39Z</time>
      </trkpt>
      <trkpt lat="49.23131" lon="0.90353">
        <ele>163.39</ele>
        <time>2021-05-09T06:01:40Z</time>
      </trkpt>
      <trkpt lat="49.23135" lon="0.90445">
        <ele>163.22</ele>
        <time>2021-05-09T06:01:49Z</time>
      </trkpt>
      <trkpt lat="49.23144" lon="0.90476">
        <ele>162.67</ele>
        <time>2021-05-09T06:01:53Z</time>
      </trkpt>
      <trkpt lat="49.23149" lon="0.90478">
        <ele>162.36</ele>
        <time>2021-05-09T06:01:54Z</time>
      </trkpt>
      <trkpt lat="49.23154" lon="0.90476">
        <ele>162.08</ele>
        <time>2021-05-09T06:01:55Z</time>
      </trkpt>
      <trkpt lat="49.23159" lon="0.90474">
        <ele>161.9</ele>
        <time>2021-05-09T06:01:56Z</time>
      </trkpt>
      <trkpt lat="49.23164" lon="0.90473">
        <ele>161.8</ele>
        <time>2021-05-09T06:01:57Z</time>
      </trkpt>
      <trkpt lat="49.23168" lon="0.9047">
        <ele>161.68</ele>
        <time>2021-05-09T06:01:58Z</time>
      </trkpt>
      <trkpt lat="49.23173" lon="0.90467">
        <ele>161.65</ele>
        <time>2021-05-09T06:01:59Z</time>
      </trkpt>
      <trkpt lat="49.23183" lon="0.90463">
        <ele>161.59</ele>
        <time>2021-05-09T06:02:01Z</time>
      </trkpt>
      <trkpt lat="49.23188" lon="0.90463">
        <ele>161.57</ele>
        <time>2021-05-09T06:02:02Z</time>
      </trkpt>
      <trkpt lat="49.23194" lon="0.90465">
        <ele>161.57</ele>
        <time>2021-05-09T06:02:03Z</time>
      </trkpt>
      <trkpt lat="49.2327" lon="0.90487">
        <ele>161.3</ele>
        <time>2021-05-09T06:02:15Z</time>
      </trkpt>
      <trkpt lat="49.23304" lon="0.90488">
        <ele>161.33</ele>
        <time>2021-05-09T06:02:20Z</time>
      </trkpt>
      <trkpt lat="49.2331" lon="0.90487">
        <ele>161.4</ele>
        <time>2021-05-09T06:02:21Z</time>
      </trkpt>
      <trkpt lat="49.23405" lon="0.90448">
        <ele>162.29</ele>
        <time>2021-05-09T06:02:38Z</time>
      </trkpt>
      <trkpt lat="49.23472" lon="0.90416">
        <ele>163.24</ele>
        <time>2021-05-09T06:02:51Z</time>
      </trkpt>
      <trkpt lat="49.23478" lon="0.90419">
        <ele>163.26</ele>
        <time>2021-05-09T06:02:52Z</time>
      </trkpt>
      <trkpt lat="49.23482" lon="0.90426">
        <ele>163.28</ele>
        <time>2021-05-09T06:02:53Z</time>
      </trkpt>
      <trkpt lat="49.23485" lon="0.90434">
        <ele>163.29</ele>
        <time>2021-05-09T06:02:54Z</time>
      </trkpt>
      <trkpt lat="49.23487" lon="0.90443">
        <ele>163.29</ele>
        <time>2021-05-09T06:02:55Z</time>
      </trkpt>
      <trkpt lat="49.23493" lon="0.90459">
        <ele>163.29</ele>
        <time>2021-05-09T06:02:57Z</time>
      </trkpt>
      <trkpt lat="49.23497" lon="0.90466">
        <ele>163.29</ele>
        <time>2021-05-09T06:02:58Z</time>
      </trkpt>
      <trkpt lat="49.23502" lon="0.90472">
        <ele>163.29</ele>
        <time>2021-05-09T06:02:59Z</time>
      </trkpt>
      <trkpt lat="49.23506" lon="0.90477">
        <ele>163.19</ele>
        <time>2021-05-09T06:03:00Z</time>
      </trkpt>
      <trkpt lat="49.23512" lon="0.90483">
        <ele>162.99</ele>
        <time>2021-05-09T06:03:01Z</time>
      </trkpt>
      <trkpt lat="49.23538" lon="0.90524">
        <ele>162.12</ele>
        <time>2021-05-09T06:03:07Z</time>
      </trkpt>
      <trkpt lat="49.23552" lon="0.90583">
        <ele>160.94</ele>
        <time>2021-05-09T06:03:14Z</time>
      </trkpt>
      <trkpt lat="49.23554" lon="0.90601">
        <ele>160.78</ele>
        <time>2021-05-09T06:03:16Z</time>
      </trkpt>
      <trkpt lat="49.23557" lon="0.90628">
        <ele>160.5</ele>
        <time>2021-05-09T06:03:19Z</time>
      </trkpt>
      <trkpt lat="49.23562" lon="0.90717">
        <ele>160.25</ele>
        <time>2021-05-09T06:03:28Z</time>
      </trkpt>
      <trkpt lat="49.23571" lon="0.90752">
        <ele>159.84</ele>
        <time>2021-05-09T06:03:32Z</time>
      </trkpt>
      <trkpt lat="49.2361" lon="0.90793">
        <ele>159.45</ele>
        <time>2021-05-09T06:03:39Z</time>
      </trkpt>
      <trkpt lat="49.23635" lon="0.90824">
        <ele>159.33</ele>
        <time>2021-05-09T06:03:44Z</time>
      </trkpt>
      <trkpt lat="49.23653" lon="0.90851">
        <ele>159.22</ele>
        <time>2021-05-09T06:03:48Z</time>
      </trkpt>
      <trkpt lat="49.23703" lon="0.90924">
        <ele>159.24</ele>
        <time>2021-05-09T06:03:59Z</time>
      </trkpt>
      <trkpt lat="49.23778" lon="0.91051">
        <ele>159.05</ele>
        <time>2021-05-09T06:04:17Z</time>
      </trkpt>
      <trkpt lat="49.23856" lon="0.91188">
        <ele>156.51</ele>
        <time>2021-05-09T06:04:35Z</time>
      </trkpt>
      <trkpt lat="49.23897" lon="0.91297">
        <ele>155.15</ele>
        <time>2021-05-09T06:04:49Z</time>
      </trkpt>
      <trkpt lat="49.23904" lon="0.91317">
        <ele>155.02</ele>
        <time>2021-05-09T06:04:52Z</time>
      </trkpt>
      <trkpt lat="49.2392" lon="0.91345">
        <ele>154.76</ele>
        <time>2021-05-09T06:04:56Z</time>
      </trkpt>
      <trkpt lat="49.23931" lon="0.91366">
        <ele>154.65</ele>
        <time>2021-05-09T06:04:59Z</time>
      </trkpt>
      <trkpt lat="49.23957" lon="0.9141">
        <ele>154.64</ele>
        <time>2021-05-09T06:05:06Z</time>
      </trkpt>
      <trkpt lat="49.23981" lon="0.91457">
        <ele>154.65</ele>
        <time>2021-05-09T06:05:14Z</time>
      </trkpt>
      <trkpt lat="49.24019" lon="0.91463">
        <ele>154.96</ele>
        <time>2021-05-09T06:05:25Z</time>
      </trkpt>
      <trkpt lat="49.24057" lon="0.91461">
        <ele>156.54</ele>
        <time>2021-05-09T06:05:35Z</time>
      </trkpt>
      <trkpt lat="49.24082" lon="0.91452">
        <ele>157.83</ele>
        <time>2021-05-09T06:05:42Z</time>
      </trkpt>
      <trkpt lat="49.24086" lon="0.91446">
        <ele>157.92</ele>
        <time>2021-05-09T06:05:43Z</time>
      </trkpt>
      <trkpt lat="49.24088" lon="0.91439">
        <ele>158.15</ele>
        <time>2021-05-09T06:05:44Z</time>
      </trkpt>
      <trkpt lat="49.2409" lon="0.91432">
        <ele>158.4</ele>
        <time>2021-05-09T06:05:45Z</time>
      </trkpt>
      <trkpt lat="49.24092" lon="0.91425">
        <ele>158.6</ele>
        <time>2021-05-09T06:05:46Z</time>
      </trkpt>
      <trkpt lat="49.24093" lon="0.91418">
        <ele>158.77</ele>
        <time>2021-05-09T06:05:47Z</time>
      </trkpt>
      <trkpt lat="49.24095" lon="0.91403">
        <ele>159.44</ele>
        <time>2021-05-09T06:05:49Z</time>
      </trkpt>
      <trkpt lat="49.24098" lon="0.91373">
        <ele>160.54</ele>
        <time>2021-05-09T06:05:53Z</time>
      </trkpt>
      <trkpt lat="49.24098" lon="0.91366">
        <ele>160.63</ele>
        <time>2021-05-09T06:05:54Z</time>
      </trkpt>
      <trkpt lat="49.24104" lon="0.9131">
        <ele>161.12</ele>
        <time>2021-05-09T06:06:02Z</time>
      </trkpt>
      <trkpt lat="49.24107" lon="0.91281">
        <ele>161.29</ele>
        <time>2021-05-09T06:06:06Z</time>
      </trkpt>
      <trkpt lat="49.24104" lon="0.91155">
        <ele>161.62</ele>
        <time>2021-05-09T06:06:22Z</time>
      </trkpt>
      <trkpt lat="49.24117" lon="0.91014">
        <ele>161.51</ele>
        <time>2021-05-09T06:06:39Z</time>
      </trkpt>
      <trkpt lat="49.24118" lon="0.91007">
        <ele>161.57</ele>
        <time>2021-05-09T06:06:40Z</time>
      </trkpt>
      <trkpt lat="49.2412" lon="0.91">
        <ele>161.6</ele>
        <time>2021-05-09T06:06:41Z</time>
      </trkpt>
      <trkpt lat="49.24123" lon="0.90994">
        <ele>161.62</ele>
        <time>2021-05-09T06:06:42Z</time>
      </trkpt>
      <trkpt lat="49.24129" lon="0.90983">
        <ele>161.74</ele>
        <time>2021-05-09T06:06:44Z</time>
      </trkpt>
      <trkpt lat="49.24132" lon="0.90979">
        <ele>161.82</ele>
        <time>2021-05-09T06:06:45Z</time>
      </trkpt>
      <trkpt lat="49.2415" lon="0.90948">
        <ele>162.8</ele>
        <time>2021-05-09T06:06:51Z</time>
      </trkpt>
      <trkpt lat="49.24153" lon="0.90935">
        <ele>163</ele>
        <time>2021-05-09T06:06:53Z</time>
      </trkpt>
      <trkpt lat="49.24159" lon="0.90882">
        <ele>163.82</ele>
        <time>2021-05-09T06:07:00Z</time>
      </trkpt>
      <trkpt lat="49.24162" lon="0.90834">
        <ele>164.1</ele>
        <time>2021-05-09T06:07:06Z</time>
      </trkpt>
      <trkpt lat="49.24157" lon="0.90804">
        <ele>164.1</ele>
        <time>2021-05-09T06:07:10Z</time>
      </trkpt>
      <trkpt lat="49.24155" lon="0.90789">
        <ele>164.05</ele>
        <time>2021-05-09T06:07:12Z</time>
      </trkpt>
      <trkpt lat="49.2416" lon="0.90747">
        <ele>163.64</ele>
        <time>2021-05-09T06:07:17Z</time>
      </trkpt>
      <trkpt lat="49.24164" lon="0.90654">
        <ele>162.69</ele>
        <time>2021-05-09T06:07:28Z</time>
      </trkpt>
      <trkpt lat="49.24163" lon="0.90594">
        <ele>162.33</ele>
        <time>2021-05-09T06:07:38Z</time>
      </trkpt>
      <trkpt lat="49.2416" lon="0.90562">
        <ele>161.99</ele>
        <time>2021-05-09T06:07:42Z</time>
      </trkpt>
      <trkpt lat="49.24152" lon="0.90472">
        <ele>160.95</ele>
        <time>2021-05-09T06:07:54Z</time>
      </trkpt>
      <trkpt lat="49.24151" lon="0.90463">
        <ele>160.84</ele>
        <time>2021-05-09T06:07:55Z</time>
      </trkpt>
      <trkpt lat="49.24154" lon="0.90429">
        <ele>160.61</ele>
        <time>2021-05-09T06:07:59Z</time>
      </trkpt>
      <trkpt lat="49.24186" lon="0.90321">
        <ele>160.24</ele>
        <time>2021-05-09T06:08:12Z</time>
      </trkpt>
      <trkpt lat="49.24221" lon="0.90214">
        <ele>160.46</ele>
        <time>2021-05-09T06:08:26Z</time>
      </trkpt>
      <trkpt lat="49.24225" lon="0.90212">
        <ele>160.46</ele>
        <time>2021-05-09T06:08:27Z</time>
      </trkpt>
      <trkpt lat="49.24229" lon="0.90212">
        <ele>160.42</ele>
        <time>2021-05-09T06:08:28Z</time>
      </trkpt>
      <trkpt lat="49.24234" lon="0.90214">
        <ele>160.34</ele>
        <time>2021-05-09T06:08:29Z</time>
      </trkpt>
      <trkpt lat="49.24239" lon="0.90216">
        <ele>160.31</ele>
        <time>2021-05-09T06:08:30Z</time>
      </trkpt>
      <trkpt lat="49.24321" lon="0.90246">
        <ele>162.12</ele>
        <time>2021-05-09T06:08:46Z</time>
      </trkpt>
      <trkpt lat="49.24386" lon="0.90248">
        <ele>164.5</ele>
        <time>2021-05-09T06:08:59Z</time>
      </trkpt>
      <trkpt lat="49.24448" lon="0.9023">
        <ele>166.53</ele>
        <time>2021-05-09T06:09:12Z</time>
      </trkpt>
      <trkpt lat="49.24452" lon="0.90228">
        <ele>166.62</ele>
        <time>2021-05-09T06:09:13Z</time>
      </trkpt>
      <trkpt lat="49.24457" lon="0.90226">
        <ele>166.79</ele>
        <time>2021-05-09T06:09:14Z</time>
      </trkpt>
      <trkpt lat="49.24461" lon="0.90224">
        <ele>166.97</ele>
        <time>2021-05-09T06:09:15Z</time>
      </trkpt>
      <trkpt lat="49.24466" lon="0.9022">
        <ele>167.12</ele>
        <time>2021-05-09T06:09:16Z</time>
      </trkpt>
      <trkpt lat="49.2447" lon="0.90216">
        <ele>167.28</ele>
        <time>2021-05-09T06:09:17Z</time>
      </trkpt>
      <trkpt lat="49.24474" lon="0.90212">
        <ele>167.42</ele>
        <time>2021-05-09T06:09:18Z</time>
      </trkpt>
      <trkpt lat="49.24537" lon="0.90105">
        <ele>168.99</ele>
        <time>2021-05-09T06:09:35Z</time>
      </trkpt>
      <trkpt lat="49.24562" lon="0.90058">
        <ele>169.4</ele>
        <time>2021-05-09T06:09:42Z</time>
      </trkpt>
      <trkpt lat="49.24565" lon="0.90051">
        <ele>169.46</ele>
        <time>2021-05-09T06:09:43Z</time>
      </trkpt>
      <trkpt lat="49.24568" lon="0.90044">
        <ele>169.53</ele>
        <time>2021-05-09T06:09:44Z</time>
      </trkpt>
      <trkpt lat="49.24571" lon="0.90037">
        <ele>169.61</ele>
        <time>2021-05-09T06:09:45Z</time>
      </trkpt>
      <trkpt lat="49.24574" lon="0.90029">
        <ele>169.65</ele>
        <time>2021-05-09T06:09:46Z</time>
      </trkpt>
      <trkpt lat="49.24576" lon="0.90021">
        <ele>169.67</ele>
        <time>2021-05-09T06:09:47Z</time>
      </trkpt>
      <trkpt lat="49.24576" lon="0.90013">
        <ele>169.69</ele>
        <time>2021-05-09T06:09:48Z</time>
      </trkpt>
      <trkpt lat="49.24576" lon="0.90005">
        <ele>169.72</ele>
        <time>2021-05-09T06:09:49Z</time>
      </trkpt>
      <trkpt lat="49.24568" lon="0.89882">
        <ele>169.75</ele>
        <time>2021-05-09T06:10:03Z</time>
      </trkpt>
      <trkpt lat="49.2457" lon="0.89864">
        <ele>169.7</ele>
        <time>2021-05-09T06:10:05Z</time>
      </trkpt>
      <trkpt lat="49.24571" lon="0.89827">
        <ele>169.59</ele>
        <time>2021-05-09T06:10:09Z</time>
      </trkpt>
      <trkpt lat="49.24552" lon="0.89688">
        <ele>168.29</ele>
        <time>2021-05-09T06:10:24Z</time>
      </trkpt>
      <trkpt lat="49.24544" lon="0.89599">
        <ele>167.58</ele>
        <time>2021-05-09T06:10:34Z</time>
      </trkpt>
      <trkpt lat="49.24542" lon="0.89564">
        <ele>167.26</ele>
        <time>2021-05-09T06:10:38Z</time>
      </trkpt>
      <trkpt lat="49.24522" lon="0.89474">
        <ele>166.75</ele>
        <time>2021-05-09T06:10:50Z</time>
      </trkpt>
      <trkpt lat="49.24545" lon="0.89449">
        <ele>166.47</ele>
        <time>2021-05-09T06:10:58Z</time>
      </trkpt>
      <trkpt lat="49.24597" lon="0.89414">
        <ele>167.01</ele>
        <time>2021-05-09T06:11:11Z</time>
      </trkpt>
      <trkpt lat="49.24638" lon="0.89384">
        <ele>168.05</ele>
        <time>2021-05-09T06:11:20Z</time>
      </trkpt>
      <trkpt lat="49.24669" lon="0.8936">
        <ele>169.64</ele>
        <time>2021-05-09T06:11:29Z</time>
      </trkpt>
      <trkpt lat="49.24682" lon="0.89351">
        <ele>170.07</ele>
        <time>2021-05-09T06:11:32Z</time>
      </trkpt>
      <trkpt lat="49.24719" lon="0.89324">
        <ele>171.35</ele>
        <time>2021-05-09T06:11:41Z</time>
      </trkpt>
      <trkpt lat="49.24752" lon="0.89298">
        <ele>172.3</ele>
        <time>2021-05-09T06:11:49Z</time>
      </trkpt>
      <trkpt lat="49.2477" lon="0.89279">
        <ele>172.94</ele>
        <time>2021-05-09T06:11:54Z</time>
      </trkpt>
      <trkpt lat="49.24777" lon="0.89253">
        <ele>173.53</ele>
        <time>2021-05-09T06:11:58Z</time>
      </trkpt>
      <trkpt lat="49.24789" lon="0.89195">
        <ele>174.36</ele>
        <time>2021-05-09T06:12:07Z</time>
      </trkpt>
      <trkpt lat="49.24792" lon="0.89165">
        <ele>174.67</ele>
        <time>2021-05-09T06:12:14Z</time>
      </trkpt>
      <trkpt lat="49.24801" lon="0.89103">
        <ele>174.99</ele>
        <time>2021-05-09T06:12:24Z</time>
      </trkpt>
      <trkpt lat="49.24805" lon="0.89084">
        <ele>175.02</ele>
        <time>2021-05-09T06:12:27Z</time>
      </trkpt>
      <trkpt lat="49.24817" lon="0.89016">
        <ele>175.42</ele>
        <time>2021-05-09T06:12:38Z</time>
      </trkpt>
      <trkpt lat="49.24821" lon="0.88942">
        <ele>175.75</ele>
        <time>2021-05-09T06:12:47Z</time>
      </trkpt>
      <trkpt lat="49.24833" lon="0.88855">
        <ele>176.31</ele>
        <time>2021-05-09T06:12:59Z</time>
      </trkpt>
      <trkpt lat="49.24839" lon="0.88796">
        <ele>176.72</ele>
        <time>2021-05-09T06:13:08Z</time>
      </trkpt>
      <trkpt lat="49.2484" lon="0.8879">
        <ele>176.78</ele>
        <time>2021-05-09T06:13:09Z</time>
      </trkpt>
      <trkpt lat="49.24847" lon="0.88732">
        <ele>177.14</ele>
        <time>2021-05-09T06:13:16Z</time>
      </trkpt>
      <trkpt lat="49.24852" lon="0.88695">
        <ele>177.6</ele>
        <time>2021-05-09T06:13:20Z</time>
      </trkpt>
      <trkpt lat="49.24855" lon="0.88676">
        <ele>177.72</ele>
        <time>2021-05-09T06:13:22Z</time>
      </trkpt>
      <trkpt lat="49.24858" lon="0.88653">
        <ele>177.88</ele>
        <time>2021-05-09T06:13:25Z</time>
      </trkpt>
      <trkpt lat="49.24862" lon="0.88624">
        <ele>178.02</ele>
        <time>2021-05-09T06:13:29Z</time>
      </trkpt>
      <trkpt lat="49.24864" lon="0.88584">
        <ele>178.6</ele>
        <time>2021-05-09T06:13:35Z</time>
      </trkpt>
      <trkpt lat="49.24865" lon="0.88555">
        <ele>178.95</ele>
        <time>2021-05-09T06:13:40Z</time>
      </trkpt>
      <trkpt lat="49.24877" lon="0.88462">
        <ele>179.13</ele>
        <time>2021-05-09T06:13:51Z</time>
      </trkpt>
      <trkpt lat="49.24885" lon="0.88412">
        <ele>179.63</ele>
        <time>2021-05-09T06:13:59Z</time>
      </trkpt>
      <trkpt lat="49.24885" lon="0.88402">
        <ele>179.84</ele>
        <time>2021-05-09T06:14:01Z</time>
      </trkpt>
      <trkpt lat="49.24889" lon="0.88377">
        <ele>180.19</ele>
        <time>2021-05-09T06:14:09Z</time>
      </trkpt>
      <trkpt lat="49.24885" lon="0.88364">
        <ele>180.26</ele>
        <time>2021-05-09T06:14:14Z</time>
      </trkpt>
      <trkpt lat="49.24899" lon="0.88299">
        <ele>180.42</ele>
        <time>2021-05-09T06:14:25Z</time>
      </trkpt>
      <trkpt lat="49.24907" lon="0.88234">
        <ele>181.25</ele>
        <time>2021-05-09T06:14:37Z</time>
      </trkpt>
      <trkpt lat="49.24911" lon="0.8818">
        <ele>181.89</ele>
        <time>2021-05-09T06:14:46Z</time>
      </trkpt>
      <trkpt lat="49.24921" lon="0.88103">
        <ele>182.87</ele>
        <time>2021-05-09T06:14:56Z</time>
      </trkpt>
      <trkpt lat="49.24928" lon="0.88052">
        <ele>183.11</ele>
        <time>2021-05-09T06:15:05Z</time>
      </trkpt>
      <trkpt lat="49.2493" lon="0.88051">
        <ele>183.12</ele>
        <time>2021-05-09T06:15:06Z</time>
      </trkpt>
      <trkpt lat="49.24932" lon="0.88052">
        <ele>183.15</ele>
        <time>2021-05-09T06:15:07Z</time>
      </trkpt>
      <trkpt lat="49.24935" lon="0.88055">
        <ele>183.14</ele>
        <time>2021-05-09T06:15:08Z</time>
      </trkpt>
      <trkpt lat="49.24939" lon="0.88057">
        <ele>183.14</ele>
        <time>2021-05-09T06:15:09Z</time>
      </trkpt>
      <trkpt lat="49.24971" lon="0.88079">
        <ele>183.08</ele>
        <time>2021-05-09T06:15:16Z</time>
      </trkpt>
      <trkpt lat="49.24977" lon="0.88082">
        <ele>183.08</ele>
        <time>2021-05-09T06:15:17Z</time>
      </trkpt>
      <trkpt lat="49.24982" lon="0.88086">
        <ele>183.08</ele>
        <time>2021-05-09T06:15:18Z</time>
      </trkpt>
      <trkpt lat="49.24988" lon="0.88089">
        <ele>183.05</ele>
        <time>2021-05-09T06:15:19Z</time>
      </trkpt>
      <trkpt lat="49.24993" lon="0.88091">
        <ele>183.04</ele>
        <time>2021-05-09T06:15:20Z</time>
      </trkpt>
      <trkpt lat="49.24999" lon="0.88094">
        <ele>183.03</ele>
        <time>2021-05-09T06:15:21Z</time>
      </trkpt>
      <trkpt lat="49.25004" lon="0.88098">
        <ele>182.94</ele>
        <time>2021-05-09T06:15:22Z</time>
      </trkpt>
      <trkpt lat="49.25009" lon="0.88102">
        <ele>182.9</ele>
        <time>2021-05-09T06:15:23Z</time>
      </trkpt>
      <trkpt lat="49.25085" lon="0.88156">
        <ele>182.04</ele>
        <time>2021-05-09T06:15:37Z</time>
      </trkpt>
      <trkpt lat="49.25112" lon="0.88177">
        <ele>181.64</ele>
        <time>2021-05-09T06:15:42Z</time>
      </trkpt>
      <trkpt lat="49.25196" lon="0.88231">
        <ele>181.04</ele>
        <time>2021-05-09T06:15:56Z</time>
      </trkpt>
      <trkpt lat="49.2529" lon="0.88298">
        <ele>180.91</ele>
        <time>2021-05-09T06:16:13Z</time>
      </trkpt>
      <trkpt lat="49.25377" lon="0.88361">
        <ele>180.96</ele>
        <time>2021-05-09T06:16:29Z</time>
      </trkpt>
      <trkpt lat="49.25438" lon="0.88413">
        <ele>180.91</ele>
        <time>2021-05-09T06:16:40Z</time>
      </trkpt>
      <trkpt lat="49.25444" lon="0.88419">
        <ele>180.72</ele>
        <time>2021-05-09T06:16:41Z</time>
      </trkpt>
      <trkpt lat="49.25476" lon="0.88452">
        <ele>180.28</ele>
        <time>2021-05-09T06:16:47Z</time>
      </trkpt>
      <trkpt lat="49.2551" lon="0.88487">
        <ele>179.15</ele>
        <time>2021-05-09T06:16:54Z</time>
      </trkpt>
      <trkpt lat="49.25512" lon="0.88492">
        <ele>178.98</ele>
        <time>2021-05-09T06:16:55Z</time>
      </trkpt>
      <trkpt lat="49.25511" lon="0.88497">
        <ele>178.85</ele>
        <time>2021-05-09T06:16:56Z</time>
      </trkpt>
      <trkpt lat="49.25502" lon="0.88506">
        <ele>178.19</ele>
        <time>2021-05-09T06:16:59Z</time>
      </trkpt>
      <trkpt lat="49.25481" lon="0.88517">
        <ele>177.44</ele>
        <time>2021-05-09T06:17:04Z</time>
      </trkpt>
      <trkpt lat="49.25437" lon="0.88551">
        <ele>178.36</ele>
        <time>2021-05-09T06:17:16Z</time>
      </trkpt>
      <trkpt lat="49.25418" lon="0.88569">
        <ele>179.09</ele>
        <time>2021-05-09T06:17:21Z</time>
      </trkpt>
      <trkpt lat="49.25373" lon="0.88607">
        <ele>179.8</ele>
        <time>2021-05-09T06:17:33Z</time>
      </trkpt>
      <trkpt lat="49.25356" lon="0.88623">
        <ele>180.09</ele>
        <time>2021-05-09T06:17:37Z</time>
      </trkpt>
      <trkpt lat="49.25311" lon="0.88687">
        <ele>180.81</ele>
        <time>2021-05-09T06:17:49Z</time>
      </trkpt>
      <trkpt lat="49.25293" lon="0.88713">
        <ele>181.34</ele>
        <time>2021-05-09T06:17:54Z</time>
      </trkpt>
      <trkpt lat="49.25263" lon="0.88761">
        <ele>181.81</ele>
        <time>2021-05-09T06:18:04Z</time>
      </trkpt>
      <trkpt lat="49.25251" lon="0.88778">
        <ele>181.92</ele>
        <time>2021-05-09T06:18:07Z</time>
      </trkpt>
      <trkpt lat="49.25221" lon="0.88812">
        <ele>182</ele>
        <time>2021-05-09T06:18:15Z</time>
      </trkpt>
      <trkpt lat="49.25209" lon="0.88836">
        <ele>182.06</ele>
        <time>2021-05-09T06:18:19Z</time>
      </trkpt>
      <trkpt lat="49.25186" lon="0.88876">
        <ele>181.96</ele>
        <time>2021-05-09T06:18:26Z</time>
      </trkpt>
      <trkpt lat="49.25191" lon="0.889">
        <ele>182.01</ele>
        <time>2021-05-09T06:18:31Z</time>
      </trkpt>
      <trkpt lat="49.2522" lon="0.88912">
        <ele>182.07</ele>
        <time>2021-05-09T06:18:38Z</time>
      </trkpt>
      <trkpt lat="49.25248" lon="0.88923">
        <ele>181.91</ele>
        <time>2021-05-09T06:18:44Z</time>
      </trkpt>
      <trkpt lat="49.25267" lon="0.88933">
        <ele>181.52</ele>
        <time>2021-05-09T06:18:48Z</time>
      </trkpt>
      <trkpt lat="49.25299" lon="0.88966">
        <ele>180.9</ele>
        <time>2021-05-09T06:18:54Z</time>
      </trkpt>
      <trkpt lat="49.2531" lon="0.88984">
        <ele>180.64</ele>
        <time>2021-05-09T06:18:57Z</time>
      </trkpt>
      <trkpt lat="49.25322" lon="0.89008">
        <ele>180.24</ele>
        <time>2021-05-09T06:19:01Z</time>
      </trkpt>
      <trkpt lat="49.25331" lon="0.89028">
        <ele>179.94</ele>
        <time>2021-05-09T06:19:04Z</time>
      </trkpt>
      <trkpt lat="49.25356" lon="0.89099">
        <ele>177.9</ele>
        <time>2021-05-09T06:19:13Z</time>
      </trkpt>
      <trkpt lat="49.25362" lon="0.89112">
        <ele>177.52</ele>
        <time>2021-05-09T06:19:15Z</time>
      </trkpt>
      <trkpt lat="49.25379" lon="0.89132">
        <ele>176.52</ele>
        <time>2021-05-09T06:19:19Z</time>
      </trkpt>
      <trkpt lat="49.25417" lon="0.89143">
        <ele>175.6</ele>
        <time>2021-05-09T06:19:24Z</time>
      </trkpt>
      <trkpt lat="49.25476" lon="0.89117">
        <ele>173.96</ele>
        <time>2021-05-09T06:19:33Z</time>
      </trkpt>
      <trkpt lat="49.25482" lon="0.89114">
        <ele>173.81</ele>
        <time>2021-05-09T06:19:34Z</time>
      </trkpt>
      <trkpt lat="49.25513" lon="0.89087">
        <ele>172.75</ele>
        <time>2021-05-09T06:19:39Z</time>
      </trkpt>
      <trkpt lat="49.25528" lon="0.89067">
        <ele>172.16</ele>
        <time>2021-05-09T06:19:42Z</time>
      </trkpt>
      <trkpt lat="49.25558" lon="0.8902">
        <ele>169.1</ele>
        <time>2021-05-09T06:19:49Z</time>
      </trkpt>
      <trkpt lat="49.25587" lon="0.88985">
        <ele>168.11</ele>
        <time>2021-05-09T06:19:54Z</time>
      </trkpt>
      <trkpt lat="49.25624" lon="0.8896">
        <ele>166.96</ele>
        <time>2021-05-09T06:20:00Z</time>
      </trkpt>
      <trkpt lat="49.25659" lon="0.88969">
        <ele>163.13</ele>
        <time>2021-05-09T06:20:06Z</time>
      </trkpt>
      <trkpt lat="49.25667" lon="0.88974">
        <ele>162.19</ele>
        <time>2021-05-09T06:20:07Z</time>
      </trkpt>
      <trkpt lat="49.25689" lon="0.89002">
        <ele>158.6</ele>
        <time>2021-05-09T06:20:13Z</time>
      </trkpt>
      <trkpt lat="49.25688" lon="0.89013">
        <ele>156.95</ele>
        <time>2021-05-09T06:20:15Z</time>
      </trkpt>
      <trkpt lat="49.25684" lon="0.89038">
        <ele>154.79</ele>
        <time>2021-05-09T06:20:19Z</time>
      </trkpt>
      <trkpt lat="49.25693" lon="0.89066">
        <ele>154.35</ele>
        <time>2021-05-09T06:20:30Z</time>
      </trkpt>
      <trkpt lat="49.25703" lon="0.89081">
        <ele>154.28</ele>
        <time>2021-05-09T06:20:35Z</time>
      </trkpt>
      <trkpt lat="49.25724" lon="0.89116">
        <ele>152.08</ele>
        <time>2021-05-09T06:20:44Z</time>
      </trkpt>
      <trkpt lat="49.25722" lon="0.89135">
        <ele>149.58</ele>
        <time>2021-05-09T06:20:48Z</time>
      </trkpt>
      <trkpt lat="49.25721" lon="0.89162">
        <ele>147.54</ele>
        <time>2021-05-09T06:20:52Z</time>
      </trkpt>
      <trkpt lat="49.25726" lon="0.89231">
        <ele>143.45</ele>
        <time>2021-05-09T06:20:59Z</time>
      </trkpt>
      <trkpt lat="49.25731" lon="0.89259">
        <ele>142.22</ele>
        <time>2021-05-09T06:21:02Z</time>
      </trkpt>
      <trkpt lat="49.25758" lon="0.89291">
        <ele>140</ele>
        <time>2021-05-09T06:21:07Z</time>
      </trkpt>
      <trkpt lat="49.25786" lon="0.89291">
        <ele>137.99</ele>
        <time>2021-05-09T06:21:12Z</time>
      </trkpt>
      <trkpt lat="49.25861" lon="0.89284">
        <ele>135.71</ele>
        <time>2021-05-09T06:21:22Z</time>
      </trkpt>
      <trkpt lat="49.25909" lon="0.89294">
        <ele>134.71</ele>
        <time>2021-05-09T06:21:29Z</time>
      </trkpt>
      <trkpt lat="49.25951" lon="0.89301">
        <ele>133.78</ele>
        <time>2021-05-09T06:21:36Z</time>
      </trkpt>
      <trkpt lat="49.25962" lon="0.89306">
        <ele>133.57</ele>
        <time>2021-05-09T06:21:38Z</time>
      </trkpt>
      <trkpt lat="49.25966" lon="0.8931">
        <ele>133.52</ele>
        <time>2021-05-09T06:21:39Z</time>
      </trkpt>
      <trkpt lat="49.25968" lon="0.89317">
        <ele>133.47</ele>
        <time>2021-05-09T06:21:40Z</time>
      </trkpt>
      <trkpt lat="49.25969" lon="0.89325">
        <ele>133.41</ele>
        <time>2021-05-09T06:21:41Z</time>
      </trkpt>
      <trkpt lat="49.2597" lon="0.89333">
        <ele>133.34</ele>
        <time>2021-05-09T06:21:42Z</time>
      </trkpt>
      <trkpt lat="49.25972" lon="0.89341">
        <ele>133.26</ele>
        <time>2021-05-09T06:21:43Z</time>
      </trkpt>
      <trkpt lat="49.25975" lon="0.89348">
        <ele>133.16</ele>
        <time>2021-05-09T06:21:44Z</time>
      </trkpt>
      <trkpt lat="49.2598" lon="0.89354">
        <ele>133.11</ele>
        <time>2021-05-09T06:21:45Z</time>
      </trkpt>
      <trkpt lat="49.25985" lon="0.89357">
        <ele>132.99</ele>
        <time>2021-05-09T06:21:46Z</time>
      </trkpt>
      <trkpt lat="49.25992" lon="0.89359">
        <ele>132.76</ele>
        <time>2021-05-09T06:21:47Z</time>
      </trkpt>
      <trkpt lat="49.25998" lon="0.89361">
        <ele>132.63</ele>
        <time>2021-05-09T06:21:48Z</time>
      </trkpt>
      <trkpt lat="49.26005" lon="0.89362">
        <ele>132.49</ele>
        <time>2021-05-09T06:21:49Z</time>
      </trkpt>
      <trkpt lat="49.26098" lon="0.8938">
        <ele>130.62</ele>
        <time>2021-05-09T06:22:04Z</time>
      </trkpt>
      <trkpt lat="49.26102" lon="0.89379">
        <ele>130.61</ele>
        <time>2021-05-09T06:22:05Z</time>
      </trkpt>
      <trkpt lat="49.26107" lon="0.89377">
        <ele>130.6</ele>
        <time>2021-05-09T06:22:06Z</time>
      </trkpt>
      <trkpt lat="49.26115" lon="0.89371">
        <ele>130.58</ele>
        <time>2021-05-09T06:22:09Z</time>
      </trkpt>
      <trkpt lat="49.26115" lon="0.89366">
        <ele>130.56</ele>
        <time>2021-05-09T06:22:10Z</time>
      </trkpt>
      <trkpt lat="49.26115" lon="0.89361">
        <ele>130.55</ele>
        <time>2021-05-09T06:22:11Z</time>
      </trkpt>
      <trkpt lat="49.26113" lon="0.89324">
        <ele>130.58</ele>
        <time>2021-05-09T06:22:17Z</time>
      </trkpt>
      <trkpt lat="49.26111" lon="0.89317">
        <ele>130.58</ele>
        <time>2021-05-09T06:22:18Z</time>
      </trkpt>
      <trkpt lat="49.26094" lon="0.89188">
        <ele>130.66</ele>
        <time>2021-05-09T06:22:34Z</time>
      </trkpt>
      <trkpt lat="49.26088" lon="0.89033">
        <ele>130.9</ele>
        <time>2021-05-09T06:22:52Z</time>
      </trkpt>
      <trkpt lat="49.26082" lon="0.88951">
        <ele>131.43</ele>
        <time>2021-05-09T06:23:03Z</time>
      </trkpt>
      <trkpt lat="49.26071" lon="0.88825">
        <ele>132.43</ele>
        <time>2021-05-09T06:23:19Z</time>
      </trkpt>
      <trkpt lat="49.26037" lon="0.88703">
        <ele>134.06</ele>
        <time>2021-05-09T06:23:36Z</time>
      </trkpt>
      <trkpt lat="49.26028" lon="0.8862">
        <ele>136.14</ele>
        <time>2021-05-09T06:23:49Z</time>
      </trkpt>
      <trkpt lat="49.26022" lon="0.88579">
        <ele>136.55</ele>
        <time>2021-05-09T06:23:54Z</time>
      </trkpt>
      <trkpt lat="49.26014" lon="0.88553">
        <ele>136.57</ele>
        <time>2021-05-09T06:23:58Z</time>
      </trkpt>
      <trkpt lat="49.26011" lon="0.88548">
        <ele>136.62</ele>
        <time>2021-05-09T06:23:59Z</time>
      </trkpt>
      <trkpt lat="49.26006" lon="0.88546">
        <ele>136.69</ele>
        <time>2021-05-09T06:24:00Z</time>
      </trkpt>
      <trkpt lat="49.26001" lon="0.88547">
        <ele>136.75</ele>
        <time>2021-05-09T06:24:01Z</time>
      </trkpt>
      <trkpt lat="49.25979" lon="0.8855">
        <ele>136.76</ele>
        <time>2021-05-09T06:24:06Z</time>
      </trkpt>
      <trkpt lat="49.25952" lon="0.88549">
        <ele>137.39</ele>
        <time>2021-05-09T06:24:13Z</time>
      </trkpt>
      <trkpt lat="49.25914" lon="0.88552">
        <ele>139.14</ele>
        <time>2021-05-09T06:24:24Z</time>
      </trkpt>
      <trkpt lat="49.25886" lon="0.88558">
        <ele>141.29</ele>
        <time>2021-05-09T06:24:35Z</time>
      </trkpt>
      <trkpt lat="49.25864" lon="0.88562">
        <ele>143.67</ele>
        <time>2021-05-09T06:24:45Z</time>
      </trkpt>
      <trkpt lat="49.2584" lon="0.88561">
        <ele>146.89</ele>
        <time>2021-05-09T06:24:55Z</time>
      </trkpt>
      <trkpt lat="49.25822" lon="0.88562">
        <ele>149.94</ele>
        <time>2021-05-09T06:25:08Z</time>
      </trkpt>
      <trkpt lat="49.25804" lon="0.8856">
        <ele>153.09</ele>
        <time>2021-05-09T06:25:18Z</time>
      </trkpt>
      <trkpt lat="49.25777" lon="0.88553">
        <ele>156.41</ele>
        <time>2021-05-09T06:25:31Z</time>
      </trkpt>
      <trkpt lat="49.25771" lon="0.88548">
        <ele>157.56</ele>
        <time>2021-05-09T06:25:35Z</time>
      </trkpt>
      <trkpt lat="49.25769" lon="0.88547">
        <ele>157.74</ele>
        <time>2021-05-09T06:25:36Z</time>
      </trkpt>
      <trkpt lat="49.25767" lon="0.88546">
        <ele>157.94</ele>
        <time>2021-05-09T06:25:37Z</time>
      </trkpt>
      <trkpt lat="49.25765" lon="0.88546">
        <ele>157.94</ele>
        <time>2021-05-09T06:25:38Z</time>
      </trkpt>
      <trkpt lat="49.25752" lon="0.88542">
        <ele>159.62</ele>
        <time>2021-05-09T06:25:47Z</time>
      </trkpt>
      <trkpt lat="49.25747" lon="0.88543">
        <ele>160.57</ele>
        <time>2021-05-09T06:25:50Z</time>
      </trkpt>
      <trkpt lat="49.25738" lon="0.88539">
        <ele>161.04</ele>
        <time>2021-05-09T06:25:54Z</time>
      </trkpt>
      <trkpt lat="49.2572" lon="0.88531">
        <ele>162.96</ele>
        <time>2021-05-09T06:26:02Z</time>
      </trkpt>
      <trkpt lat="49.25714" lon="0.88528">
        <ele>164.22</ele>
        <time>2021-05-09T06:26:05Z</time>
      </trkpt>
      <trkpt lat="49.25688" lon="0.88516">
        <ele>166.52</ele>
        <time>2021-05-09T06:26:18Z</time>
      </trkpt>
      <trkpt lat="49.25668" lon="0.88502">
        <ele>168.22</ele>
        <time>2021-05-09T06:26:27Z</time>
      </trkpt>
      <trkpt lat="49.25659" lon="0.88498">
        <ele>168.84</ele>
        <time>2021-05-09T06:26:31Z</time>
      </trkpt>
      <trkpt lat="49.25644" lon="0.88493">
        <ele>170.09</ele>
        <time>2021-05-09T06:26:39Z</time>
      </trkpt>
      <trkpt lat="49.2561" lon="0.88479">
        <ele>171.95</ele>
        <time>2021-05-09T06:26:52Z</time>
      </trkpt>
      <trkpt lat="49.25571" lon="0.88451">
        <ele>174.31</ele>
        <time>2021-05-09T06:27:06Z</time>
      </trkpt>
      <trkpt lat="49.25562" lon="0.88444">
        <ele>174.51</ele>
        <time>2021-05-09T06:27:09Z</time>
      </trkpt>
      <trkpt lat="49.25548" lon="0.88439">
        <ele>175.18</ele>
        <time>2021-05-09T06:27:15Z</time>
      </trkpt>
      <trkpt lat="49.25511" lon="0.88424">
        <ele>177.28</ele>
        <time>2021-05-09T06:27:28Z</time>
      </trkpt>
      <trkpt lat="49.2548" lon="0.88408">
        <ele>178.44</ele>
        <time>2021-05-09T06:27:38Z</time>
      </trkpt>
      <trkpt lat="49.25475" lon="0.88403">
        <ele>178.7</ele>
        <time>2021-05-09T06:27:40Z</time>
      </trkpt>
      <trkpt lat="49.25444" lon="0.88397">
        <ele>179.71</ele>
        <time>2021-05-09T06:27:50Z</time>
      </trkpt>
      <trkpt lat="49.25429" lon="0.88392">
        <ele>180.34</ele>
        <time>2021-05-09T06:27:59Z</time>
      </trkpt>
      <trkpt lat="49.2543" lon="0.88391">
        <ele>180.42</ele>
        <time>2021-05-09T06:28:00Z</time>
      </trkpt>
      <trkpt lat="49.25435" lon="0.88388">
        <ele>180.7</ele>
        <time>2021-05-09T06:28:02Z</time>
      </trkpt>
      <trkpt lat="49.25436" lon="0.88388">
        <ele>180.75</ele>
        <time>2021-05-09T06:28:03Z</time>
      </trkpt>
      <trkpt lat="49.25439" lon="0.88387">
        <ele>180.78</ele>
        <time>2021-05-09T06:28:04Z</time>
      </trkpt>
      <trkpt lat="49.25441" lon="0.88387">
        <ele>180.79</ele>
        <time>2021-05-09T06:28:05Z</time>
      </trkpt>
      <trkpt lat="49.25444" lon="0.88385">
        <ele>180.8</ele>
        <time>2021-05-09T06:28:06Z</time>
      </trkpt>
      <trkpt lat="49.25467" lon="0.88378">
        <ele>180.19</ele>
        <time>2021-05-09T06:28:17Z</time>
      </trkpt>
      <trkpt lat="49.25507" lon="0.88367">
        <ele>178.45</ele>
        <time>2021-05-09T06:28:29Z</time>
      </trkpt>
      <trkpt lat="49.25573" lon="0.88336">
        <ele>175.84</ele>
        <time>2021-05-09T06:28:37Z</time>
      </trkpt>
      <trkpt lat="49.25607" lon="0.88317">
        <ele>173.84</ele>
        <time>2021-05-09T06:28:41Z</time>
      </trkpt>
      <trkpt lat="49.2565" lon="0.88291">
        <ele>170.07</ele>
        <time>2021-05-09T06:28:47Z</time>
      </trkpt>
      <trkpt lat="49.25663" lon="0.88282">
        <ele>169.74</ele>
        <time>2021-05-09T06:28:49Z</time>
      </trkpt>
      <trkpt lat="49.25694" lon="0.88254">
        <ele>167.37</ele>
        <time>2021-05-09T06:28:54Z</time>
      </trkpt>
      <trkpt lat="49.25768" lon="0.88172">
        <ele>164.75</ele>
        <time>2021-05-09T06:29:05Z</time>
      </trkpt>
      <trkpt lat="49.25779" lon="0.88159">
        <ele>164.53</ele>
        <time>2021-05-09T06:29:07Z</time>
      </trkpt>
      <trkpt lat="49.25803" lon="0.88142">
        <ele>163.16</ele>
        <time>2021-05-09T06:29:11Z</time>
      </trkpt>
      <trkpt lat="49.2584" lon="0.88083">
        <ele>161.57</ele>
        <time>2021-05-09T06:29:17Z</time>
      </trkpt>
      <trkpt lat="49.25868" lon="0.8804">
        <ele>158.16</ele>
        <time>2021-05-09T06:29:20Z</time>
      </trkpt>
      <trkpt lat="49.25908" lon="0.88022">
        <ele>154.41</ele>
        <time>2021-05-09T06:29:25Z</time>
      </trkpt>
      <trkpt lat="49.25946" lon="0.88023">
        <ele>149.61</ele>
        <time>2021-05-09T06:29:29Z</time>
      </trkpt>
      <trkpt lat="49.25953" lon="0.88023">
        <ele>149.02</ele>
        <time>2021-05-09T06:29:30Z</time>
      </trkpt>
      <trkpt lat="49.25977" lon="0.8803">
        <ele>144.92</ele>
        <time>2021-05-09T06:29:33Z</time>
      </trkpt>
      <trkpt lat="49.25995" lon="0.88019">
        <ele>141.35</ele>
        <time>2021-05-09T06:29:37Z</time>
      </trkpt>
      <trkpt lat="49.26004" lon="0.87982">
        <ele>138.25</ele>
        <time>2021-05-09T06:29:41Z</time>
      </trkpt>
      <trkpt lat="49.26014" lon="0.87958">
        <ele>136.69</ele>
        <time>2021-05-09T06:29:44Z</time>
      </trkpt>
      <trkpt lat="49.26025" lon="0.87954">
        <ele>135.81</ele>
        <time>2021-05-09T06:29:46Z</time>
      </trkpt>
      <trkpt lat="49.26039" lon="0.87954">
        <ele>135.42</ele>
        <time>2021-05-09T06:29:48Z</time>
      </trkpt>
      <trkpt lat="49.26081" lon="0.8795">
        <ele>134.59</ele>
        <time>2021-05-09T06:29:53Z</time>
      </trkpt>
      <trkpt lat="49.2613" lon="0.87922">
        <ele>132.87</ele>
        <time>2021-05-09T06:30:01Z</time>
      </trkpt>
      <trkpt lat="49.26163" lon="0.87901">
        <ele>132.02</ele>
        <time>2021-05-09T06:30:07Z</time>
      </trkpt>
      <trkpt lat="49.2622" lon="0.87862">
        <ele>131</ele>
        <time>2021-05-09T06:30:17Z</time>
      </trkpt>
      <trkpt lat="49.26226" lon="0.87858">
        <ele>130.91</ele>
        <time>2021-05-09T06:30:18Z</time>
      </trkpt>
      <trkpt lat="49.26257" lon="0.87832">
        <ele>130.58</ele>
        <time>2021-05-09T06:30:24Z</time>
      </trkpt>
      <trkpt lat="49.26279" lon="0.87817">
        <ele>130.25</ele>
        <time>2021-05-09T06:30:28Z</time>
      </trkpt>
      <trkpt lat="49.26327" lon="0.87804">
        <ele>129.73</ele>
        <time>2021-05-09T06:30:38Z</time>
      </trkpt>
      <trkpt lat="49.26331" lon="0.87799">
        <ele>129.73</ele>
        <time>2021-05-09T06:30:39Z</time>
      </trkpt>
      <trkpt lat="49.26334" lon="0.87793">
        <ele>129.73</ele>
        <time>2021-05-09T06:30:40Z</time>
      </trkpt>
      <trkpt lat="49.26335" lon="0.87785">
        <ele>129.73</ele>
        <time>2021-05-09T06:30:41Z</time>
      </trkpt>
      <trkpt lat="49.26335" lon="0.87778">
        <ele>129.73</ele>
        <time>2021-05-09T06:30:42Z</time>
      </trkpt>
      <trkpt lat="49.26335" lon="0.87769">
        <ele>129.73</ele>
        <time>2021-05-09T06:30:43Z</time>
      </trkpt>
      <trkpt lat="49.26333" lon="0.8776">
        <ele>129.73</ele>
        <time>2021-05-09T06:30:44Z</time>
      </trkpt>
      <trkpt lat="49.26311" lon="0.87618">
        <ele>128.86</ele>
        <time>2021-05-09T06:31:00Z</time>
      </trkpt>
      <trkpt lat="49.26285" lon="0.87501">
        <ele>128.96</ele>
        <time>2021-05-09T06:31:15Z</time>
      </trkpt>
      <trkpt lat="49.26282" lon="0.87495">
        <ele>128.99</ele>
        <time>2021-05-09T06:31:16Z</time>
      </trkpt>
      <trkpt lat="49.26279" lon="0.8749">
        <ele>129.01</ele>
        <time>2021-05-09T06:31:17Z</time>
      </trkpt>
      <trkpt lat="49.26275" lon="0.87485">
        <ele>129.02</ele>
        <time>2021-05-09T06:31:18Z</time>
      </trkpt>
      <trkpt lat="49.2627" lon="0.87483">
        <ele>129.03</ele>
        <time>2021-05-09T06:31:19Z</time>
      </trkpt>
      <trkpt lat="49.26265" lon="0.87481">
        <ele>129.04</ele>
        <time>2021-05-09T06:31:20Z</time>
      </trkpt>
      <trkpt lat="49.26185" lon="0.87446">
        <ele>130.46</ele>
        <time>2021-05-09T06:31:37Z</time>
      </trkpt>
      <trkpt lat="49.26128" lon="0.87427">
        <ele>131.64</ele>
        <time>2021-05-09T06:31:50Z</time>
      </trkpt>
      <trkpt lat="49.2609" lon="0.87406">
        <ele>134.67</ele>
        <time>2021-05-09T06:32:02Z</time>
      </trkpt>
      <trkpt lat="49.26054" lon="0.87385">
        <ele>136.02</ele>
        <time>2021-05-09T06:32:12Z</time>
      </trkpt>
      <trkpt lat="49.26009" lon="0.87367">
        <ele>137.11</ele>
        <time>2021-05-09T06:32:25Z</time>
      </trkpt>
      <trkpt lat="49.2599" lon="0.8736">
        <ele>139.76</ele>
        <time>2021-05-09T06:32:36Z</time>
      </trkpt>
      <trkpt lat="49.25989" lon="0.87359">
        <ele>140.1</ele>
        <time>2021-05-09T06:32:37Z</time>
      </trkpt>
      <trkpt lat="49.25969" lon="0.87352">
        <ele>143.18</ele>
        <time>2021-05-09T06:32:50Z</time>
      </trkpt>
      <trkpt lat="49.25955" lon="0.87344">
        <ele>146.26</ele>
        <time>2021-05-09T06:33:01Z</time>
      </trkpt>
      <trkpt lat="49.2594" lon="0.87339">
        <ele>149.34</ele>
        <time>2021-05-09T06:33:12Z</time>
      </trkpt>
      <trkpt lat="49.25925" lon="0.87331">
        <ele>152.41</ele>
        <time>2021-05-09T06:33:24Z</time>
      </trkpt>
      <trkpt lat="49.25917" lon="0.87331">
        <ele>153.88</ele>
        <time>2021-05-09T06:33:29Z</time>
      </trkpt>
      <trkpt lat="49.25898" lon="0.87325">
        <ele>157.01</ele>
        <time>2021-05-09T06:33:40Z</time>
      </trkpt>
      <trkpt lat="49.25889" lon="0.8732">
        <ele>158.67</ele>
        <time>2021-05-09T06:33:46Z</time>
      </trkpt>
      <trkpt lat="49.25888" lon="0.87319">
        <ele>158.97</ele>
        <time>2021-05-09T06:33:47Z</time>
      </trkpt>
      <trkpt lat="49.25863" lon="0.87306">
        <ele>162.02</ele>
        <time>2021-05-09T06:34:00Z</time>
      </trkpt>
      <trkpt lat="49.25846" lon="0.87295">
        <ele>164.3</ele>
        <time>2021-05-09T06:34:11Z</time>
      </trkpt>
      <trkpt lat="49.25818" lon="0.87293">
        <ele>166.59</ele>
        <time>2021-05-09T06:34:25Z</time>
      </trkpt>
      <trkpt lat="49.25793" lon="0.87288">
        <ele>168.66</ele>
        <time>2021-05-09T06:34:37Z</time>
      </trkpt>
      <trkpt lat="49.25767" lon="0.87285">
        <ele>170.67</ele>
        <time>2021-05-09T06:34:49Z</time>
      </trkpt>
      <trkpt lat="49.25739" lon="0.87285">
        <ele>172.49</ele>
        <time>2021-05-09T06:35:00Z</time>
      </trkpt>
      <trkpt lat="49.2571" lon="0.87281">
        <ele>172.72</ele>
        <time>2021-05-09T06:35:09Z</time>
      </trkpt>
      <trkpt lat="49.25705" lon="0.87281">
        <ele>172.72</ele>
        <time>2021-05-09T06:35:10Z</time>
      </trkpt>
      <trkpt lat="49.25637" lon="0.87281">
        <ele>171.05</ele>
        <time>2021-05-09T06:35:21Z</time>
      </trkpt>
      <trkpt lat="49.25629" lon="0.87279">
        <ele>170.72</ele>
        <time>2021-05-09T06:35:22Z</time>
      </trkpt>
      <trkpt lat="49.25622" lon="0.87274">
        <ele>170.5</ele>
        <time>2021-05-09T06:35:23Z</time>
      </trkpt>
      <trkpt lat="49.25616" lon="0.87269">
        <ele>170.31</ele>
        <time>2021-05-09T06:35:24Z</time>
      </trkpt>
      <trkpt lat="49.2561" lon="0.87262">
        <ele>170.03</ele>
        <time>2021-05-09T06:35:25Z</time>
      </trkpt>
      <trkpt lat="49.25604" lon="0.87255">
        <ele>170.03</ele>
        <time>2021-05-09T06:35:26Z</time>
      </trkpt>
      <trkpt lat="49.25599" lon="0.87247">
        <ele>169.45</ele>
        <time>2021-05-09T06:35:27Z</time>
      </trkpt>
      <trkpt lat="49.25594" lon="0.87238">
        <ele>168.95</ele>
        <time>2021-05-09T06:35:28Z</time>
      </trkpt>
      <trkpt lat="49.2559" lon="0.8723">
        <ele>168.42</ele>
        <time>2021-05-09T06:35:29Z</time>
      </trkpt>
      <trkpt lat="49.25575" lon="0.87196">
        <ele>166.18</ele>
        <time>2021-05-09T06:35:33Z</time>
      </trkpt>
      <trkpt lat="49.25572" lon="0.87188">
        <ele>165.79</ele>
        <time>2021-05-09T06:35:34Z</time>
      </trkpt>
      <trkpt lat="49.2555" lon="0.87136">
        <ele>164.22</ele>
        <time>2021-05-09T06:35:40Z</time>
      </trkpt>
      <trkpt lat="49.25543" lon="0.87119">
        <ele>163.93</ele>
        <time>2021-05-09T06:35:42Z</time>
      </trkpt>
      <trkpt lat="49.25522" lon="0.87066">
        <ele>163.21</ele>
        <time>2021-05-09T06:35:48Z</time>
      </trkpt>
      <trkpt lat="49.25519" lon="0.87057">
        <ele>162.94</ele>
        <time>2021-05-09T06:35:49Z</time>
      </trkpt>
      <trkpt lat="49.25515" lon="0.87048">
        <ele>162.73</ele>
        <time>2021-05-09T06:35:50Z</time>
      </trkpt>
      <trkpt lat="49.25511" lon="0.87039">
        <ele>162.5</ele>
        <time>2021-05-09T06:35:51Z</time>
      </trkpt>
      <trkpt lat="49.25507" lon="0.87032">
        <ele>162.28</ele>
        <time>2021-05-09T06:35:52Z</time>
      </trkpt>
      <trkpt lat="49.25503" lon="0.87023">
        <ele>162.07</ele>
        <time>2021-05-09T06:35:53Z</time>
      </trkpt>
      <trkpt lat="49.25477" lon="0.86963">
        <ele>160.22</ele>
        <time>2021-05-09T06:36:00Z</time>
      </trkpt>
      <trkpt lat="49.25462" lon="0.86874">
        <ele>156.9</ele>
        <time>2021-05-09T06:36:07Z</time>
      </trkpt>
      <trkpt lat="49.25456" lon="0.86794">
        <ele>153.71</ele>
        <time>2021-05-09T06:36:13Z</time>
      </trkpt>
      <trkpt lat="49.25453" lon="0.8678">
        <ele>152.7</ele>
        <time>2021-05-09T06:36:14Z</time>
      </trkpt>
      <trkpt lat="49.2545" lon="0.86769">
        <ele>150.67</ele>
        <time>2021-05-09T06:36:15Z</time>
      </trkpt>
      <trkpt lat="49.25447" lon="0.8676">
        <ele>149.73</ele>
        <time>2021-05-09T06:36:16Z</time>
      </trkpt>
      <trkpt lat="49.25443" lon="0.86752">
        <ele>149.12</ele>
        <time>2021-05-09T06:36:17Z</time>
      </trkpt>
      <trkpt lat="49.25438" lon="0.86745">
        <ele>148.34</ele>
        <time>2021-05-09T06:36:18Z</time>
      </trkpt>
      <trkpt lat="49.25433" lon="0.86737">
        <ele>147.94</ele>
        <time>2021-05-09T06:36:19Z</time>
      </trkpt>
      <trkpt lat="49.25408" lon="0.86706">
        <ele>147.54</ele>
        <time>2021-05-09T06:36:27Z</time>
      </trkpt>
      <trkpt lat="49.25394" lon="0.86692">
        <ele>151.13</ele>
        <time>2021-05-09T06:36:33Z</time>
      </trkpt>
      <trkpt lat="49.25381" lon="0.86669">
        <ele>154.57</ele>
        <time>2021-05-09T06:36:40Z</time>
      </trkpt>
      <trkpt lat="49.25378" lon="0.8666">
        <ele>155.72</ele>
        <time>2021-05-09T06:36:42Z</time>
      </trkpt>
      <trkpt lat="49.25371" lon="0.86635">
        <ele>158.52</ele>
        <time>2021-05-09T06:36:51Z</time>
      </trkpt>
      <trkpt lat="49.2537" lon="0.8663">
        <ele>158.96</ele>
        <time>2021-05-09T06:36:53Z</time>
      </trkpt>
      <trkpt lat="49.25368" lon="0.86617">
        <ele>160.84</ele>
        <time>2021-05-09T06:36:58Z</time>
      </trkpt>
      <trkpt lat="49.25365" lon="0.86599">
        <ele>163.02</ele>
        <time>2021-05-09T06:37:06Z</time>
      </trkpt>
      <trkpt lat="49.25365" lon="0.86578">
        <ele>164.26</ele>
        <time>2021-05-09T06:37:11Z</time>
      </trkpt>
      <trkpt lat="49.25365" lon="0.86575">
        <ele>164.52</ele>
        <time>2021-05-09T06:37:12Z</time>
      </trkpt>
      <trkpt lat="49.25364" lon="0.8656">
        <ele>165.41</ele>
        <time>2021-05-09T06:37:17Z</time>
      </trkpt>
      <trkpt lat="49.25364" lon="0.86557">
        <ele>165.61</ele>
        <time>2021-05-09T06:37:18Z</time>
      </trkpt>
      <trkpt lat="49.25362" lon="0.86552">
        <ele>165.89</ele>
        <time>2021-05-09T06:37:20Z</time>
      </trkpt>
      <trkpt lat="49.25361" lon="0.8655">
        <ele>166.03</ele>
        <time>2021-05-09T06:37:21Z</time>
      </trkpt>
      <trkpt lat="49.2536" lon="0.86548">
        <ele>166.27</ele>
        <time>2021-05-09T06:37:22Z</time>
      </trkpt>
      <trkpt lat="49.25359" lon="0.86545">
        <ele>166.43</ele>
        <time>2021-05-09T06:37:23Z</time>
      </trkpt>
      <trkpt lat="49.25358" lon="0.86543">
        <ele>166.62</ele>
        <time>2021-05-09T06:37:24Z</time>
      </trkpt>
      <trkpt lat="49.25357" lon="0.86541">
        <ele>166.86</ele>
        <time>2021-05-09T06:37:25Z</time>
      </trkpt>
      <trkpt lat="49.25344" lon="0.86509">
        <ele>168.65</ele>
        <time>2021-05-09T06:37:38Z</time>
      </trkpt>
      <trkpt lat="49.25343" lon="0.86501">
        <ele>168.83</ele>
        <time>2021-05-09T06:37:39Z</time>
      </trkpt>
      <trkpt lat="49.25343" lon="0.86496">
        <ele>168.95</ele>
        <time>2021-05-09T06:37:40Z</time>
      </trkpt>
      <trkpt lat="49.25349" lon="0.86495">
        <ele>169.27</ele>
        <time>2021-05-09T06:37:43Z</time>
      </trkpt>
      <trkpt lat="49.25351" lon="0.86497">
        <ele>169.3</ele>
        <time>2021-05-09T06:37:44Z</time>
      </trkpt>
      <trkpt lat="49.25353" lon="0.86499">
        <ele>169.31</ele>
        <time>2021-05-09T06:37:45Z</time>
      </trkpt>
      <trkpt lat="49.25356" lon="0.86502">
        <ele>169.32</ele>
        <time>2021-05-09T06:37:46Z</time>
      </trkpt>
      <trkpt lat="49.2536" lon="0.86505">
        <ele>169.32</ele>
        <time>2021-05-09T06:37:47Z</time>
      </trkpt>
      <trkpt lat="49.25365" lon="0.86506">
        <ele>169.32</ele>
        <time>2021-05-09T06:37:48Z</time>
      </trkpt>
      <trkpt lat="49.25369" lon="0.86509">
        <ele>169.32</ele>
        <time>2021-05-09T06:37:49Z</time>
      </trkpt>
      <trkpt lat="49.25374" lon="0.86516">
        <ele>169.32</ele>
        <time>2021-05-09T06:37:50Z</time>
      </trkpt>
      <trkpt lat="49.25379" lon="0.86523">
        <ele>169.32</ele>
        <time>2021-05-09T06:37:51Z</time>
      </trkpt>
      <trkpt lat="49.25383" lon="0.86531">
        <ele>169.31</ele>
        <time>2021-05-09T06:37:52Z</time>
      </trkpt>
      <trkpt lat="49.25394" lon="0.86555">
        <ele>168.18</ele>
        <time>2021-05-09T06:37:55Z</time>
      </trkpt>
      <trkpt lat="49.25397" lon="0.86564">
        <ele>167.49</ele>
        <time>2021-05-09T06:37:56Z</time>
      </trkpt>
      <trkpt lat="49.25403" lon="0.86577">
        <ele>166</ele>
        <time>2021-05-09T06:37:58Z</time>
      </trkpt>
      <trkpt lat="49.25422" lon="0.86591">
        <ele>163.8</ele>
        <time>2021-05-09T06:38:02Z</time>
      </trkpt>
      <trkpt lat="49.25476" lon="0.86608">
        <ele>160.33</ele>
        <time>2021-05-09T06:38:08Z</time>
      </trkpt>
      <trkpt lat="49.25517" lon="0.86602">
        <ele>157.94</ele>
        <time>2021-05-09T06:38:12Z</time>
      </trkpt>
      <trkpt lat="49.25544" lon="0.86601">
        <ele>155.1</ele>
        <time>2021-05-09T06:38:15Z</time>
      </trkpt>
      <trkpt lat="49.25573" lon="0.8661">
        <ele>151.38</ele>
        <time>2021-05-09T06:38:18Z</time>
      </trkpt>
      <trkpt lat="49.25597" lon="0.86629">
        <ele>147.05</ele>
        <time>2021-05-09T06:38:23Z</time>
      </trkpt>
      <trkpt lat="49.25601" lon="0.86636">
        <ele>144.84</ele>
        <time>2021-05-09T06:38:25Z</time>
      </trkpt>
      <trkpt lat="49.25618" lon="0.86641">
        <ele>140.63</ele>
        <time>2021-05-09T06:38:31Z</time>
      </trkpt>
      <trkpt lat="49.25643" lon="0.86661">
        <ele>140.38</ele>
        <time>2021-05-09T06:38:38Z</time>
      </trkpt>
      <trkpt lat="49.2566" lon="0.86688">
        <ele>143.82</ele>
        <time>2021-05-09T06:38:46Z</time>
      </trkpt>
      <trkpt lat="49.25679" lon="0.86704">
        <ele>147.33</ele>
        <time>2021-05-09T06:38:52Z</time>
      </trkpt>
      <trkpt lat="49.2569" lon="0.86712">
        <ele>149.46</ele>
        <time>2021-05-09T06:38:59Z</time>
      </trkpt>
      <trkpt lat="49.25713" lon="0.86709">
        <ele>151.07</ele>
        <time>2021-05-09T06:39:09Z</time>
      </trkpt>
      <trkpt lat="49.25719" lon="0.86712">
        <ele>151.07</ele>
        <time>2021-05-09T06:39:11Z</time>
      </trkpt>
      <trkpt lat="49.2574" lon="0.8672">
        <ele>150.67</ele>
        <time>2021-05-09T06:39:19Z</time>
      </trkpt>
      <trkpt lat="49.2581" lon="0.86683">
        <ele>148.36</ele>
        <time>2021-05-09T06:39:32Z</time>
      </trkpt>
      <trkpt lat="49.25864" lon="0.86638">
        <ele>145.31</ele>
        <time>2021-05-09T06:39:41Z</time>
      </trkpt>
      <trkpt lat="49.25887" lon="0.86621">
        <ele>142.73</ele>
        <time>2021-05-09T06:39:45Z</time>
      </trkpt>
      <trkpt lat="49.25921" lon="0.86608">
        <ele>140.32</ele>
        <time>2021-05-09T06:39:51Z</time>
      </trkpt>
      <trkpt lat="49.25937" lon="0.86579">
        <ele>139.68</ele>
        <time>2021-05-09T06:39:55Z</time>
      </trkpt>
      <trkpt lat="49.25937" lon="0.86567">
        <ele>139.54</ele>
        <time>2021-05-09T06:39:57Z</time>
      </trkpt>
      <trkpt lat="49.25936" lon="0.86562">
        <ele>139.52</ele>
        <time>2021-05-09T06:39:58Z</time>
      </trkpt>
      <trkpt lat="49.25936" lon="0.86556">
        <ele>139.38</ele>
        <time>2021-05-09T06:39:59Z</time>
      </trkpt>
      <trkpt lat="49.25935" lon="0.86551">
        <ele>139.26</ele>
        <time>2021-05-09T06:40:00Z</time>
      </trkpt>
      <trkpt lat="49.25928" lon="0.86512">
        <ele>138.84</ele>
        <time>2021-05-09T06:40:09Z</time>
      </trkpt>
      <trkpt lat="49.25928" lon="0.86508">
        <ele>138.84</ele>
        <time>2021-05-09T06:40:10Z</time>
      </trkpt>
      <trkpt lat="49.25924" lon="0.86494">
        <ele>139.25</ele>
        <time>2021-05-09T06:40:14Z</time>
      </trkpt>
      <trkpt lat="49.25924" lon="0.86488">
        <ele>139.53</ele>
        <time>2021-05-09T06:40:16Z</time>
      </trkpt>
      <trkpt lat="49.25949" lon="0.86434">
        <ele>141.13</ele>
        <time>2021-05-09T06:40:29Z</time>
      </trkpt>
      <trkpt lat="49.25963" lon="0.86407">
        <ele>142.97</ele>
        <time>2021-05-09T06:40:39Z</time>
      </trkpt>
      <trkpt lat="49.25983" lon="0.86376">
        <ele>145.96</ele>
        <time>2021-05-09T06:40:50Z</time>
      </trkpt>
      <trkpt lat="49.26001" lon="0.8631">
        <ele>149.24</ele>
        <time>2021-05-09T06:41:03Z</time>
      </trkpt>
      <trkpt lat="49.26003" lon="0.86271">
        <ele>151.87</ele>
        <time>2021-05-09T06:41:14Z</time>
      </trkpt>
      <trkpt lat="49.25995" lon="0.8621">
        <ele>153.97</ele>
        <time>2021-05-09T06:41:27Z</time>
      </trkpt>
      <trkpt lat="49.25987" lon="0.86137">
        <ele>155.69</ele>
        <time>2021-05-09T06:41:42Z</time>
      </trkpt>
      <trkpt lat="49.25964" lon="0.86078">
        <ele>156.76</ele>
        <time>2021-05-09T06:41:55Z</time>
      </trkpt>
      <trkpt lat="49.25935" lon="0.86029">
        <ele>158.88</ele>
        <time>2021-05-09T06:42:07Z</time>
      </trkpt>
      <trkpt lat="49.25902" lon="0.85979">
        <ele>160.16</ele>
        <time>2021-05-09T06:42:21Z</time>
      </trkpt>
      <trkpt lat="49.25885" lon="0.85932">
        <ele>162.07</ele>
        <time>2021-05-09T06:42:31Z</time>
      </trkpt>
      <trkpt lat="49.25884" lon="0.8587">
        <ele>162.98</ele>
        <time>2021-05-09T06:42:42Z</time>
      </trkpt>
      <trkpt lat="49.25871" lon="0.85817">
        <ele>164.03</ele>
        <time>2021-05-09T06:42:52Z</time>
      </trkpt>
      <trkpt lat="49.25851" lon="0.8576">
        <ele>165.99</ele>
        <time>2021-05-09T06:43:04Z</time>
      </trkpt>
      <trkpt lat="49.2582" lon="0.85725">
        <ele>167.96</ele>
        <time>2021-05-09T06:43:15Z</time>
      </trkpt>
      <trkpt lat="49.25809" lon="0.85719">
        <ele>168.38</ele>
        <time>2021-05-09T06:43:19Z</time>
      </trkpt>
      <trkpt lat="49.25807" lon="0.8572">
        <ele>168.45</ele>
        <time>2021-05-09T06:43:20Z</time>
      </trkpt>
      <trkpt lat="49.25804" lon="0.85721">
        <ele>168.54</ele>
        <time>2021-05-09T06:43:21Z</time>
      </trkpt>
      <trkpt lat="49.25802" lon="0.85721">
        <ele>168.62</ele>
        <time>2021-05-09T06:43:22Z</time>
      </trkpt>
      <trkpt lat="49.25799" lon="0.85721">
        <ele>168.7</ele>
        <time>2021-05-09T06:43:23Z</time>
      </trkpt>
      <trkpt lat="49.2578" lon="0.85722">
        <ele>169.55</ele>
        <time>2021-05-09T06:43:30Z</time>
      </trkpt>
      <trkpt lat="49.25756" lon="0.8572">
        <ele>170.07</ele>
        <time>2021-05-09T06:43:38Z</time>
      </trkpt>
      <trkpt lat="49.25717" lon="0.85704">
        <ele>171.33</ele>
        <time>2021-05-09T06:43:49Z</time>
      </trkpt>
      <trkpt lat="49.25667" lon="0.85658">
        <ele>173.37</ele>
        <time>2021-05-09T06:44:05Z</time>
      </trkpt>
      <trkpt lat="49.25612" lon="0.85653">
        <ele>174.84</ele>
        <time>2021-05-09T06:44:20Z</time>
      </trkpt>
      <trkpt lat="49.25569" lon="0.85677">
        <ele>175.65</ele>
        <time>2021-05-09T06:44:33Z</time>
      </trkpt>
      <trkpt lat="49.25567" lon="0.85675">
        <ele>175.67</ele>
        <time>2021-05-09T06:44:34Z</time>
      </trkpt>
      <trkpt lat="49.25565" lon="0.8567">
        <ele>175.69</ele>
        <time>2021-05-09T06:44:36Z</time>
      </trkpt>
      <trkpt lat="49.25557" lon="0.85616">
        <ele>176.29</ele>
        <time>2021-05-09T06:44:51Z</time>
      </trkpt>
      <trkpt lat="49.25558" lon="0.85555">
        <ele>176.9</ele>
        <time>2021-05-09T06:45:03Z</time>
      </trkpt>
      <trkpt lat="49.25577" lon="0.85472">
        <ele>178.14</ele>
        <time>2021-05-09T06:45:18Z</time>
      </trkpt>
      <trkpt lat="49.25581" lon="0.85454">
        <ele>178.28</ele>
        <time>2021-05-09T06:45:21Z</time>
      </trkpt>
      <trkpt lat="49.25583" lon="0.85394">
        <ele>178.53</ele>
        <time>2021-05-09T06:45:31Z</time>
      </trkpt>
      <trkpt lat="49.25577" lon="0.85289">
        <ele>179.37</ele>
        <time>2021-05-09T06:45:48Z</time>
      </trkpt>
      <trkpt lat="49.25576" lon="0.85255">
        <ele>179.58</ele>
        <time>2021-05-09T06:45:53Z</time>
      </trkpt>
      <trkpt lat="49.25595" lon="0.85157">
        <ele>179.63</ele>
        <time>2021-05-09T06:46:07Z</time>
      </trkpt>
      <trkpt lat="49.25608" lon="0.85031">
        <ele>179.48</ele>
        <time>2021-05-09T06:46:25Z</time>
      </trkpt>
      <trkpt lat="49.25607" lon="0.84964">
        <ele>179.28</ele>
        <time>2021-05-09T06:46:35Z</time>
      </trkpt>
      <trkpt lat="49.25607" lon="0.84823">
        <ele>178.94</ele>
        <time>2021-05-09T06:46:54Z</time>
      </trkpt>
      <trkpt lat="49.256" lon="0.84659">
        <ele>177.94</ele>
        <time>2021-05-09T06:47:14Z</time>
      </trkpt>
      <trkpt lat="49.2558" lon="0.84516">
        <ele>177.42</ele>
        <time>2021-05-09T06:47:33Z</time>
      </trkpt>
      <trkpt lat="49.25579" lon="0.84504">
        <ele>177.36</ele>
        <time>2021-05-09T06:47:35Z</time>
      </trkpt>
      <trkpt lat="49.25581" lon="0.84491">
        <ele>177.2</ele>
        <time>2021-05-09T06:47:37Z</time>
      </trkpt>
      <trkpt lat="49.25584" lon="0.84488">
        <ele>177.17</ele>
        <time>2021-05-09T06:47:38Z</time>
      </trkpt>
      <trkpt lat="49.25588" lon="0.84486">
        <ele>177.13</ele>
        <time>2021-05-09T06:47:39Z</time>
      </trkpt>
      <trkpt lat="49.25593" lon="0.84486">
        <ele>177.08</ele>
        <time>2021-05-09T06:47:40Z</time>
      </trkpt>
      <trkpt lat="49.25671" lon="0.84471">
        <ele>176.92</ele>
        <time>2021-05-09T06:47:57Z</time>
      </trkpt>
      <trkpt lat="49.25752" lon="0.84443">
        <ele>176.56</ele>
        <time>2021-05-09T06:48:14Z</time>
      </trkpt>
      <trkpt lat="49.25777" lon="0.84429">
        <ele>176</ele>
        <time>2021-05-09T06:48:19Z</time>
      </trkpt>
      <trkpt lat="49.25807" lon="0.84407">
        <ele>175.25</ele>
        <time>2021-05-09T06:48:25Z</time>
      </trkpt>
      <trkpt lat="49.25817" lon="0.84401">
        <ele>174.94</ele>
        <time>2021-05-09T06:48:27Z</time>
      </trkpt>
      <trkpt lat="49.25843" lon="0.84382">
        <ele>173.78</ele>
        <time>2021-05-09T06:48:32Z</time>
      </trkpt>
      <trkpt lat="49.25845" lon="0.84375">
        <ele>173.65</ele>
        <time>2021-05-09T06:48:33Z</time>
      </trkpt>
      <trkpt lat="49.25846" lon="0.84356">
        <ele>173.12</ele>
        <time>2021-05-09T06:48:35Z</time>
      </trkpt>
      <trkpt lat="49.25848" lon="0.84261">
        <ele>171.13</ele>
        <time>2021-05-09T06:48:46Z</time>
      </trkpt>
      <trkpt lat="49.25848" lon="0.84245">
        <ele>171.07</ele>
        <time>2021-05-09T06:48:48Z</time>
      </trkpt>
      <trkpt lat="49.25847" lon="0.84143">
        <ele>170.91</ele>
        <time>2021-05-09T06:49:01Z</time>
      </trkpt>
      <trkpt lat="49.2586" lon="0.84028">
        <ele>170.71</ele>
        <time>2021-05-09T06:49:15Z</time>
      </trkpt>
      <trkpt lat="49.25861" lon="0.8402">
        <ele>170.7</ele>
        <time>2021-05-09T06:49:16Z</time>
      </trkpt>
      <trkpt lat="49.25868" lon="0.83989">
        <ele>170.66</ele>
        <time>2021-05-09T06:49:20Z</time>
      </trkpt>
      <trkpt lat="49.25876" lon="0.83957">
        <ele>170.62</ele>
        <time>2021-05-09T06:49:24Z</time>
      </trkpt>
      <trkpt lat="49.25888" lon="0.83917">
        <ele>170.14</ele>
        <time>2021-05-09T06:49:29Z</time>
      </trkpt>
      <trkpt lat="49.25896" lon="0.83885">
        <ele>169.63</ele>
        <time>2021-05-09T06:49:33Z</time>
      </trkpt>
      <trkpt lat="49.25901" lon="0.83848">
        <ele>169.21</ele>
        <time>2021-05-09T06:49:37Z</time>
      </trkpt>
      <trkpt lat="49.25908" lon="0.83808">
        <ele>168.87</ele>
        <time>2021-05-09T06:49:41Z</time>
      </trkpt>
      <trkpt lat="49.25924" lon="0.83688">
        <ele>167.19</ele>
        <time>2021-05-09T06:49:53Z</time>
      </trkpt>
      <trkpt lat="49.25929" lon="0.83656">
        <ele>166.8</ele>
        <time>2021-05-09T06:49:56Z</time>
      </trkpt>
      <trkpt lat="49.2593" lon="0.83624">
        <ele>166.23</ele>
        <time>2021-05-09T06:49:59Z</time>
      </trkpt>
      <trkpt lat="49.25935" lon="0.83503">
        <ele>163.92</ele>
        <time>2021-05-09T06:50:11Z</time>
      </trkpt>
      <trkpt lat="49.25937" lon="0.8346">
        <ele>163.49</ele>
        <time>2021-05-09T06:50:15Z</time>
      </trkpt>
      <trkpt lat="49.25937" lon="0.8344">
        <ele>163.18</ele>
        <time>2021-05-09T06:50:17Z</time>
      </trkpt>
      <trkpt lat="49.25935" lon="0.83422">
        <ele>162.97</ele>
        <time>2021-05-09T06:50:19Z</time>
      </trkpt>
      <trkpt lat="49.25932" lon="0.83415">
        <ele>162.87</ele>
        <time>2021-05-09T06:50:20Z</time>
      </trkpt>
      <trkpt lat="49.25929" lon="0.83409">
        <ele>162.82</ele>
        <time>2021-05-09T06:50:21Z</time>
      </trkpt>
      <trkpt lat="49.25927" lon="0.83405">
        <ele>162.79</ele>
        <time>2021-05-09T06:50:22Z</time>
      </trkpt>
      <trkpt lat="49.25922" lon="0.834">
        <ele>162.77</ele>
        <time>2021-05-09T06:50:23Z</time>
      </trkpt>
      <trkpt lat="49.25918" lon="0.83394">
        <ele>162.76</ele>
        <time>2021-05-09T06:50:24Z</time>
      </trkpt>
      <trkpt lat="49.25917" lon="0.83387">
        <ele>162.75</ele>
        <time>2021-05-09T06:50:25Z</time>
      </trkpt>
      <trkpt lat="49.25918" lon="0.83363">
        <ele>162.6</ele>
        <time>2021-05-09T06:50:28Z</time>
      </trkpt>
      <trkpt lat="49.25945" lon="0.83196">
        <ele>161.64</ele>
        <time>2021-05-09T06:50:48Z</time>
      </trkpt>
      <trkpt lat="49.25946" lon="0.83189">
        <ele>161.59</ele>
        <time>2021-05-09T06:50:49Z</time>
      </trkpt>
      <trkpt lat="49.25954" lon="0.83127">
        <ele>161.28</ele>
        <time>2021-05-09T06:50:57Z</time>
      </trkpt>
      <trkpt lat="49.25954" lon="0.83103">
        <ele>161.22</ele>
        <time>2021-05-09T06:51:00Z</time>
      </trkpt>
      <trkpt lat="49.25948" lon="0.83068">
        <ele>161.15</ele>
        <time>2021-05-09T06:51:04Z</time>
      </trkpt>
      <trkpt lat="49.25945" lon="0.83051">
        <ele>161.07</ele>
        <time>2021-05-09T06:51:06Z</time>
      </trkpt>
      <trkpt lat="49.25931" lon="0.82911">
        <ele>160.61</ele>
        <time>2021-05-09T06:51:22Z</time>
      </trkpt>
      <trkpt lat="49.25925" lon="0.8287">
        <ele>160.55</ele>
        <time>2021-05-09T06:51:27Z</time>
      </trkpt>
      <trkpt lat="49.25921" lon="0.8283">
        <ele>160.49</ele>
        <time>2021-05-09T06:51:32Z</time>
      </trkpt>
      <trkpt lat="49.25916" lon="0.82794">
        <ele>160.38</ele>
        <time>2021-05-09T06:51:37Z</time>
      </trkpt>
      <trkpt lat="49.25916" lon="0.82754">
        <ele>160.35</ele>
        <time>2021-05-09T06:51:42Z</time>
      </trkpt>
      <trkpt lat="49.25914" lon="0.82716">
        <ele>160.41</ele>
        <time>2021-05-09T06:51:47Z</time>
      </trkpt>
      <trkpt lat="49.25915" lon="0.827">
        <ele>160.4</ele>
        <time>2021-05-09T06:51:49Z</time>
      </trkpt>
      <trkpt lat="49.25916" lon="0.8265">
        <ele>160.36</ele>
        <time>2021-05-09T06:51:55Z</time>
      </trkpt>
      <trkpt lat="49.25942" lon="0.82549">
        <ele>160.05</ele>
        <time>2021-05-09T06:52:08Z</time>
      </trkpt>
      <trkpt lat="49.25917" lon="0.82496">
        <ele>159.9</ele>
        <time>2021-05-09T06:52:16Z</time>
      </trkpt>
      <trkpt lat="49.2591" lon="0.82482">
        <ele>159.88</ele>
        <time>2021-05-09T06:52:18Z</time>
      </trkpt>
      <trkpt lat="49.25881" lon="0.82434">
        <ele>159.64</ele>
        <time>2021-05-09T06:52:26Z</time>
      </trkpt>
      <trkpt lat="49.25868" lon="0.82416">
        <ele>159.51</ele>
        <time>2021-05-09T06:52:29Z</time>
      </trkpt>
      <trkpt lat="49.25839" lon="0.82372">
        <ele>158.97</ele>
        <time>2021-05-09T06:52:36Z</time>
      </trkpt>
      <trkpt lat="49.25787" lon="0.82263">
        <ele>158.26</ele>
        <time>2021-05-09T06:52:51Z</time>
      </trkpt>
      <trkpt lat="49.25782" lon="0.82241">
        <ele>157.97</ele>
        <time>2021-05-09T06:52:53Z</time>
      </trkpt>
      <trkpt lat="49.25765" lon="0.82176">
        <ele>156.37</ele>
        <time>2021-05-09T06:53:02Z</time>
      </trkpt>
      <trkpt lat="49.25758" lon="0.8215">
        <ele>156.09</ele>
        <time>2021-05-09T06:53:06Z</time>
      </trkpt>
      <trkpt lat="49.25751" lon="0.82119">
        <ele>155.74</ele>
        <time>2021-05-09T06:53:10Z</time>
      </trkpt>
      <trkpt lat="49.25745" lon="0.82088">
        <ele>155.63</ele>
        <time>2021-05-09T06:53:14Z</time>
      </trkpt>
      <trkpt lat="49.25715" lon="0.81985">
        <ele>154.89</ele>
        <time>2021-05-09T06:53:27Z</time>
      </trkpt>
      <trkpt lat="49.25701" lon="0.81944">
        <ele>154.48</ele>
        <time>2021-05-09T06:53:32Z</time>
      </trkpt>
      <trkpt lat="49.2568" lon="0.81894">
        <ele>153.72</ele>
        <time>2021-05-09T06:53:39Z</time>
      </trkpt>
      <trkpt lat="49.25649" lon="0.8184">
        <ele>152.64</ele>
        <time>2021-05-09T06:53:48Z</time>
      </trkpt>
      <trkpt lat="49.25644" lon="0.81834">
        <ele>152.14</ele>
        <time>2021-05-09T06:53:53Z</time>
      </trkpt>
      <trkpt lat="49.25635" lon="0.81822">
        <ele>151.91</ele>
        <time>2021-05-09T06:54:25Z</time>
      </trkpt>
      <trkpt lat="49.25632" lon="0.81817">
        <ele>151.91</ele>
        <time>2021-05-09T06:54:27Z</time>
      </trkpt>
      <trkpt lat="49.2562" lon="0.81801">
        <ele>151.79</ele>
        <time>2021-05-09T06:54:42Z</time>
      </trkpt>
      <trkpt lat="49.25619" lon="0.818">
        <ele>151.78</ele>
        <time>2021-05-09T06:54:43Z</time>
      </trkpt>
      <trkpt lat="49.25614" lon="0.81793">
        <ele>151.81</ele>
        <time>2021-05-09T06:54:52Z</time>
      </trkpt>
      <trkpt lat="49.25607" lon="0.81789">
        <ele>152.07</ele>
        <time>2021-05-09T06:54:59Z</time>
      </trkpt>
      <trkpt lat="49.25596" lon="0.81763">
        <ele>152.07</ele>
        <time>2021-05-09T06:55:05Z</time>
      </trkpt>
      <trkpt lat="49.25593" lon="0.81757">
        <ele>152.07</ele>
        <time>2021-05-09T06:55:06Z</time>
      </trkpt>
      <trkpt lat="49.2559" lon="0.81752">
        <ele>152.06</ele>
        <time>2021-05-09T06:55:07Z</time>
      </trkpt>
      <trkpt lat="49.25588" lon="0.81747">
        <ele>152.06</ele>
        <time>2021-05-09T06:55:08Z</time>
      </trkpt>
      <trkpt lat="49.25585" lon="0.81742">
        <ele>152.06</ele>
        <time>2021-05-09T06:55:09Z</time>
      </trkpt>
      <trkpt lat="49.25577" lon="0.81717">
        <ele>151.34</ele>
        <time>2021-05-09T06:55:13Z</time>
      </trkpt>
      <trkpt lat="49.25554" lon="0.81613">
        <ele>150.24</ele>
        <time>2021-05-09T06:55:30Z</time>
      </trkpt>
      <trkpt lat="49.25535" lon="0.81504">
        <ele>149.8</ele>
        <time>2021-05-09T06:55:46Z</time>
      </trkpt>
      <trkpt lat="49.2549" lon="0.81394">
        <ele>149.39</ele>
        <time>2021-05-09T06:56:03Z</time>
      </trkpt>
      <trkpt lat="49.25471" lon="0.81277">
        <ele>150</ele>
        <time>2021-05-09T06:56:18Z</time>
      </trkpt>
      <trkpt lat="49.25483" lon="0.81141">
        <ele>150.94</ele>
        <time>2021-05-09T06:56:36Z</time>
      </trkpt>
      <trkpt lat="49.25482" lon="0.81135">
        <ele>151.13</ele>
        <time>2021-05-09T06:56:37Z</time>
      </trkpt>
      <trkpt lat="49.2548" lon="0.81131">
        <ele>151.13</ele>
        <time>2021-05-09T06:56:38Z</time>
      </trkpt>
      <trkpt lat="49.25455" lon="0.81112">
        <ele>152.01</ele>
        <time>2021-05-09T06:56:46Z</time>
      </trkpt>
      <trkpt lat="49.25439" lon="0.81101">
        <ele>152.22</ele>
        <time>2021-05-09T06:56:50Z</time>
      </trkpt>
      <trkpt lat="49.25419" lon="0.81087">
        <ele>152.61</ele>
        <time>2021-05-09T06:56:55Z</time>
      </trkpt>
      <trkpt lat="49.25354" lon="0.81094">
        <ele>153.5</ele>
        <time>2021-05-09T06:57:08Z</time>
      </trkpt>
      <trkpt lat="49.25335" lon="0.81098">
        <ele>153.5</ele>
        <time>2021-05-09T06:57:14Z</time>
      </trkpt>
      <trkpt lat="49.25334" lon="0.81094">
        <ele>153.42</ele>
        <time>2021-05-09T06:57:15Z</time>
      </trkpt>
      <trkpt lat="49.25333" lon="0.81088">
        <ele>153.34</ele>
        <time>2021-05-09T06:57:16Z</time>
      </trkpt>
      <trkpt lat="49.25324" lon="0.8098">
        <ele>154.35</ele>
        <time>2021-05-09T06:57:32Z</time>
      </trkpt>
      <trkpt lat="49.25318" lon="0.80919">
        <ele>156.02</ele>
        <time>2021-05-09T06:57:41Z</time>
      </trkpt>
      <trkpt lat="49.25318" lon="0.80912">
        <ele>156.13</ele>
        <time>2021-05-09T06:57:42Z</time>
      </trkpt>
      <trkpt lat="49.25308" lon="0.80854">
        <ele>157.25</ele>
        <time>2021-05-09T06:57:52Z</time>
      </trkpt>
      <trkpt lat="49.25305" lon="0.80853">
        <ele>157.28</ele>
        <time>2021-05-09T06:57:53Z</time>
      </trkpt>
      <trkpt lat="49.25284" lon="0.80865">
        <ele>157.3</ele>
        <time>2021-05-09T06:57:58Z</time>
      </trkpt>
      <trkpt lat="49.25279" lon="0.80867">
        <ele>157.3</ele>
        <time>2021-05-09T06:57:59Z</time>
      </trkpt>
      <trkpt lat="49.25196" lon="0.80889">
        <ele>157.11</ele>
        <time>2021-05-09T06:58:16Z</time>
      </trkpt>
      <trkpt lat="49.25113" lon="0.809">
        <ele>159.17</ele>
        <time>2021-05-09T06:58:33Z</time>
      </trkpt>
      <trkpt lat="49.25006" lon="0.80907">
        <ele>160.52</ele>
        <time>2021-05-09T06:58:55Z</time>
      </trkpt>
      <trkpt lat="49.24906" lon="0.80915">
        <ele>161.79</ele>
        <time>2021-05-09T06:59:16Z</time>
      </trkpt>
      <trkpt lat="49.24803" lon="0.80921">
        <ele>162.89</ele>
        <time>2021-05-09T06:59:37Z</time>
      </trkpt>
      <trkpt lat="49.24704" lon="0.80927">
        <ele>162.96</ele>
        <time>2021-05-09T06:59:57Z</time>
      </trkpt>
      <trkpt lat="49.24572" lon="0.80936">
        <ele>163.07</ele>
        <time>2021-05-09T07:00:23Z</time>
      </trkpt>
      <trkpt lat="49.24457" lon="0.80945">
        <ele>160.79</ele>
        <time>2021-05-09T07:00:44Z</time>
      </trkpt>
      <trkpt lat="49.24421" lon="0.80947">
        <ele>160.37</ele>
        <time>2021-05-09T07:00:50Z</time>
      </trkpt>
      <trkpt lat="49.24414" lon="0.80945">
        <ele>160.26</ele>
        <time>2021-05-09T07:00:51Z</time>
      </trkpt>
      <trkpt lat="49.24388" lon="0.80938">
        <ele>159.74</ele>
        <time>2021-05-09T07:00:55Z</time>
      </trkpt>
      <trkpt lat="49.24382" lon="0.80936">
        <ele>159.33</ele>
        <time>2021-05-09T07:00:56Z</time>
      </trkpt>
      <trkpt lat="49.24363" lon="0.80929">
        <ele>158.21</ele>
        <time>2021-05-09T07:00:59Z</time>
      </trkpt>
      <trkpt lat="49.24343" lon="0.80924">
        <ele>157.61</ele>
        <time>2021-05-09T07:01:02Z</time>
      </trkpt>
      <trkpt lat="49.24337" lon="0.80922">
        <ele>157.47</ele>
        <time>2021-05-09T07:01:03Z</time>
      </trkpt>
      <trkpt lat="49.243" lon="0.80909">
        <ele>156.52</ele>
        <time>2021-05-09T07:01:09Z</time>
      </trkpt>
      <trkpt lat="49.24295" lon="0.80904">
        <ele>156.27</ele>
        <time>2021-05-09T07:01:10Z</time>
      </trkpt>
      <trkpt lat="49.24291" lon="0.80896">
        <ele>156.06</ele>
        <time>2021-05-09T07:01:11Z</time>
      </trkpt>
      <trkpt lat="49.24288" lon="0.80888">
        <ele>155.93</ele>
        <time>2021-05-09T07:01:12Z</time>
      </trkpt>
      <trkpt lat="49.24286" lon="0.8088">
        <ele>155.85</ele>
        <time>2021-05-09T07:01:13Z</time>
      </trkpt>
      <trkpt lat="49.24226" lon="0.80716">
        <ele>154.2</ele>
        <time>2021-05-09T07:01:33Z</time>
      </trkpt>
      <trkpt lat="49.24185" lon="0.80585">
        <ele>153.55</ele>
        <time>2021-05-09T07:01:49Z</time>
      </trkpt>
      <trkpt lat="49.24172" lon="0.80544">
        <ele>153.3</ele>
        <time>2021-05-09T07:01:54Z</time>
      </trkpt>
      <trkpt lat="49.24168" lon="0.80538">
        <ele>153.22</ele>
        <time>2021-05-09T07:01:55Z</time>
      </trkpt>
      <trkpt lat="49.24163" lon="0.80534">
        <ele>153.22</ele>
        <time>2021-05-09T07:01:56Z</time>
      </trkpt>
      <trkpt lat="49.24157" lon="0.8053">
        <ele>153.18</ele>
        <time>2021-05-09T07:01:57Z</time>
      </trkpt>
      <trkpt lat="49.24152" lon="0.80528">
        <ele>153.16</ele>
        <time>2021-05-09T07:01:58Z</time>
      </trkpt>
      <trkpt lat="49.24145" lon="0.80526">
        <ele>153.14</ele>
        <time>2021-05-09T07:01:59Z</time>
      </trkpt>
      <trkpt lat="49.24139" lon="0.80525">
        <ele>153.12</ele>
        <time>2021-05-09T07:02:00Z</time>
      </trkpt>
      <trkpt lat="49.24133" lon="0.80524">
        <ele>153.11</ele>
        <time>2021-05-09T07:02:01Z</time>
      </trkpt>
      <trkpt lat="49.24023" lon="0.80497">
        <ele>151.36</ele>
        <time>2021-05-09T07:02:18Z</time>
      </trkpt>
      <trkpt lat="49.23901" lon="0.80436">
        <ele>148.33</ele>
        <time>2021-05-09T07:02:38Z</time>
      </trkpt>
      <trkpt lat="49.23827" lon="0.80397">
        <ele>147.97</ele>
        <time>2021-05-09T07:02:52Z</time>
      </trkpt>
      <trkpt lat="49.23803" lon="0.80382">
        <ele>147.89</ele>
        <time>2021-05-09T07:02:58Z</time>
      </trkpt>
      <trkpt lat="49.23801" lon="0.80385">
        <ele>147.87</ele>
        <time>2021-05-09T07:02:59Z</time>
      </trkpt>
      <trkpt lat="49.23799" lon="0.80389">
        <ele>147.85</ele>
        <time>2021-05-09T07:03:00Z</time>
      </trkpt>
      <trkpt lat="49.23796" lon="0.80401">
        <ele>147.47</ele>
        <time>2021-05-09T07:03:02Z</time>
      </trkpt>
      <trkpt lat="49.23794" lon="0.80407">
        <ele>147.22</ele>
        <time>2021-05-09T07:03:03Z</time>
      </trkpt>
      <trkpt lat="49.2375" lon="0.80507">
        <ele>145.32</ele>
        <time>2021-05-09T07:03:17Z</time>
      </trkpt>
      <trkpt lat="49.23679" lon="0.80662">
        <ele>143.47</ele>
        <time>2021-05-09T07:03:36Z</time>
      </trkpt>
      <trkpt lat="49.23657" lon="0.80709">
        <ele>143.34</ele>
        <time>2021-05-09T07:03:42Z</time>
      </trkpt>
      <trkpt lat="49.23653" lon="0.80713">
        <ele>143.33</ele>
        <time>2021-05-09T07:03:43Z</time>
      </trkpt>
      <trkpt lat="49.23649" lon="0.80713">
        <ele>143.31</ele>
        <time>2021-05-09T07:03:44Z</time>
      </trkpt>
      <trkpt lat="49.23645" lon="0.8071">
        <ele>143.3</ele>
        <time>2021-05-09T07:03:45Z</time>
      </trkpt>
      <trkpt lat="49.23641" lon="0.80706">
        <ele>143.26</ele>
        <time>2021-05-09T07:03:46Z</time>
      </trkpt>
      <trkpt lat="49.23636" lon="0.80703">
        <ele>143.2</ele>
        <time>2021-05-09T07:03:47Z</time>
      </trkpt>
      <trkpt lat="49.23559" lon="0.80658">
        <ele>142.52</ele>
        <time>2021-05-09T07:04:02Z</time>
      </trkpt>
      <trkpt lat="49.23541" lon="0.80658">
        <ele>142.28</ele>
        <time>2021-05-09T07:04:05Z</time>
      </trkpt>
      <trkpt lat="49.2349" lon="0.80672">
        <ele>141.52</ele>
        <time>2021-05-09T07:04:14Z</time>
      </trkpt>
      <trkpt lat="49.23485" lon="0.80672">
        <ele>141.46</ele>
        <time>2021-05-09T07:04:15Z</time>
      </trkpt>
      <trkpt lat="49.23479" lon="0.80672">
        <ele>141.35</ele>
        <time>2021-05-09T07:04:16Z</time>
      </trkpt>
      <trkpt lat="49.23474" lon="0.8067">
        <ele>141.3</ele>
        <time>2021-05-09T07:04:17Z</time>
      </trkpt>
      <trkpt lat="49.23469" lon="0.80669">
        <ele>141.2</ele>
        <time>2021-05-09T07:04:18Z</time>
      </trkpt>
      <trkpt lat="49.23464" lon="0.80667">
        <ele>141.14</ele>
        <time>2021-05-09T07:04:19Z</time>
      </trkpt>
      <trkpt lat="49.23459" lon="0.80663">
        <ele>141.09</ele>
        <time>2021-05-09T07:04:20Z</time>
      </trkpt>
      <trkpt lat="49.23455" lon="0.80658">
        <ele>141.06</ele>
        <time>2021-05-09T07:04:21Z</time>
      </trkpt>
      <trkpt lat="49.234" lon="0.80591">
        <ele>140.74</ele>
        <time>2021-05-09T07:04:35Z</time>
      </trkpt>
      <trkpt lat="49.23329" lon="0.80534">
        <ele>140.6</ele>
        <time>2021-05-09T07:04:51Z</time>
      </trkpt>
      <trkpt lat="49.23325" lon="0.80531">
        <ele>140.57</ele>
        <time>2021-05-09T07:04:52Z</time>
      </trkpt>
      <trkpt lat="49.2326" lon="0.8048">
        <ele>140.51</ele>
        <time>2021-05-09T07:05:08Z</time>
      </trkpt>
      <trkpt lat="49.23176" lon="0.80414">
        <ele>143.53</ele>
        <time>2021-05-09T07:05:30Z</time>
      </trkpt>
      <trkpt lat="49.23124" lon="0.80373">
        <ele>144.27</ele>
        <time>2021-05-09T07:05:44Z</time>
      </trkpt>
      <trkpt lat="49.23124" lon="0.80369">
        <ele>144.28</ele>
        <time>2021-05-09T07:05:45Z</time>
      </trkpt>
      <trkpt lat="49.23124" lon="0.80366">
        <ele>144.28</ele>
        <time>2021-05-09T07:05:46Z</time>
      </trkpt>
      <trkpt lat="49.23125" lon="0.80363">
        <ele>144.28</ele>
        <time>2021-05-09T07:05:47Z</time>
      </trkpt>
      <trkpt lat="49.23125" lon="0.80358">
        <ele>144.28</ele>
        <time>2021-05-09T07:05:48Z</time>
      </trkpt>
      <trkpt lat="49.23127" lon="0.80353">
        <ele>144.28</ele>
        <time>2021-05-09T07:05:49Z</time>
      </trkpt>
      <trkpt lat="49.23128" lon="0.80347">
        <ele>144.28</ele>
        <time>2021-05-09T07:05:50Z</time>
      </trkpt>
      <trkpt lat="49.23128" lon="0.80341">
        <ele>144.28</ele>
        <time>2021-05-09T07:05:51Z</time>
      </trkpt>
      <trkpt lat="49.2313" lon="0.80336">
        <ele>144.28</ele>
        <time>2021-05-09T07:05:52Z</time>
      </trkpt>
      <trkpt lat="49.23131" lon="0.80329">
        <ele>144.28</ele>
        <time>2021-05-09T07:05:53Z</time>
      </trkpt>
      <trkpt lat="49.23133" lon="0.80321">
        <ele>144.28</ele>
        <time>2021-05-09T07:05:54Z</time>
      </trkpt>
      <trkpt lat="49.23135" lon="0.80302">
        <ele>143.73</ele>
        <time>2021-05-09T07:05:56Z</time>
      </trkpt>
      <trkpt lat="49.23136" lon="0.80283">
        <ele>142.93</ele>
        <time>2021-05-09T07:05:58Z</time>
      </trkpt>
      <trkpt lat="49.23135" lon="0.80274">
        <ele>142.47</ele>
        <time>2021-05-09T07:05:59Z</time>
      </trkpt>
      <trkpt lat="49.23132" lon="0.80265">
        <ele>141.98</ele>
        <time>2021-05-09T07:06:00Z</time>
      </trkpt>
      <trkpt lat="49.23125" lon="0.80248">
        <ele>141</ele>
        <time>2021-05-09T07:06:02Z</time>
      </trkpt>
      <trkpt lat="49.23107" lon="0.80195">
        <ele>138.91</ele>
        <time>2021-05-09T07:06:08Z</time>
      </trkpt>
      <trkpt lat="49.231" lon="0.80151">
        <ele>138.33</ele>
        <time>2021-05-09T07:06:13Z</time>
      </trkpt>
      <trkpt lat="49.23099" lon="0.80136">
        <ele>138.19</ele>
        <time>2021-05-09T07:06:15Z</time>
      </trkpt>
      <trkpt lat="49.23098" lon="0.80057">
        <ele>138.29</ele>
        <time>2021-05-09T07:06:26Z</time>
      </trkpt>
      <trkpt lat="49.23096" lon="0.80055">
        <ele>138.34</ele>
        <time>2021-05-09T07:06:27Z</time>
      </trkpt>
      <trkpt lat="49.23093" lon="0.80057">
        <ele>138.43</ele>
        <time>2021-05-09T07:06:28Z</time>
      </trkpt>
      <trkpt lat="49.2309" lon="0.80061">
        <ele>138.69</ele>
        <time>2021-05-09T07:06:29Z</time>
      </trkpt>
      <trkpt lat="49.23088" lon="0.80066">
        <ele>138.82</ele>
        <time>2021-05-09T07:06:30Z</time>
      </trkpt>
      <trkpt lat="49.23086" lon="0.80072">
        <ele>138.98</ele>
        <time>2021-05-09T07:06:31Z</time>
      </trkpt>
      <trkpt lat="49.23084" lon="0.80079">
        <ele>139.17</ele>
        <time>2021-05-09T07:06:32Z</time>
      </trkpt>
      <trkpt lat="49.2306" lon="0.80138">
        <ele>139.39</ele>
        <time>2021-05-09T07:06:40Z</time>
      </trkpt>
      <trkpt lat="49.23056" lon="0.80144">
        <ele>139.39</ele>
        <time>2021-05-09T07:06:41Z</time>
      </trkpt>
      <trkpt lat="49.23052" lon="0.80149">
        <ele>139.39</ele>
        <time>2021-05-09T07:06:42Z</time>
      </trkpt>
      <trkpt lat="49.23048" lon="0.80154">
        <ele>139.39</ele>
        <time>2021-05-09T07:06:43Z</time>
      </trkpt>
      <trkpt lat="49.23044" lon="0.80158">
        <ele>139.37</ele>
        <time>2021-05-09T07:06:44Z</time>
      </trkpt>
      <trkpt lat="49.23036" lon="0.80165">
        <ele>139.25</ele>
        <time>2021-05-09T07:06:46Z</time>
      </trkpt>
      <trkpt lat="49.23022" lon="0.80172">
        <ele>139.21</ele>
        <time>2021-05-09T07:06:49Z</time>
      </trkpt>
      <trkpt lat="49.23013" lon="0.80175">
        <ele>139.21</ele>
        <time>2021-05-09T07:06:51Z</time>
      </trkpt>
      <trkpt lat="49.22957" lon="0.8019">
        <ele>142.19</ele>
        <time>2021-05-09T07:07:05Z</time>
      </trkpt>
      <trkpt lat="49.22955" lon="0.80186">
        <ele>142.35</ele>
        <time>2021-05-09T07:07:06Z</time>
      </trkpt>
      <trkpt lat="49.22953" lon="0.80181">
        <ele>142.6</ele>
        <time>2021-05-09T07:07:07Z</time>
      </trkpt>
      <trkpt lat="49.22952" lon="0.80175">
        <ele>142.86</ele>
        <time>2021-05-09T07:07:08Z</time>
      </trkpt>
      <trkpt lat="49.2295" lon="0.80169">
        <ele>143.19</ele>
        <time>2021-05-09T07:07:09Z</time>
      </trkpt>
      <trkpt lat="49.22948" lon="0.80164">
        <ele>143.48</ele>
        <time>2021-05-09T07:07:10Z</time>
      </trkpt>
      <trkpt lat="49.22946" lon="0.80158">
        <ele>143.78</ele>
        <time>2021-05-09T07:07:11Z</time>
      </trkpt>
      <trkpt lat="49.22943" lon="0.80153">
        <ele>144</ele>
        <time>2021-05-09T07:07:12Z</time>
      </trkpt>
      <trkpt lat="49.22941" lon="0.80147">
        <ele>144.15</ele>
        <time>2021-05-09T07:07:13Z</time>
      </trkpt>
      <trkpt lat="49.22939" lon="0.8014">
        <ele>144.15</ele>
        <time>2021-05-09T07:07:14Z</time>
      </trkpt>
      <trkpt lat="49.22939" lon="0.80133">
        <ele>144.19</ele>
        <time>2021-05-09T07:07:15Z</time>
      </trkpt>
      <trkpt lat="49.2294" lon="0.80126">
        <ele>144.2</ele>
        <time>2021-05-09T07:07:16Z</time>
      </trkpt>
      <trkpt lat="49.22941" lon="0.80117">
        <ele>144.2</ele>
        <time>2021-05-09T07:07:17Z</time>
      </trkpt>
      <trkpt lat="49.22945" lon="0.80097">
        <ele>144.2</ele>
        <time>2021-05-09T07:07:19Z</time>
      </trkpt>
      <trkpt lat="49.22946" lon="0.80083">
        <ele>144.2</ele>
        <time>2021-05-09T07:07:20Z</time>
      </trkpt>
      <trkpt lat="49.22946" lon="0.8007">
        <ele>144.12</ele>
        <time>2021-05-09T07:07:21Z</time>
      </trkpt>
      <trkpt lat="49.22945" lon="0.80057">
        <ele>143.96</ele>
        <time>2021-05-09T07:07:22Z</time>
      </trkpt>
      <trkpt lat="49.22942" lon="0.80045">
        <ele>143.73</ele>
        <time>2021-05-09T07:07:23Z</time>
      </trkpt>
      <trkpt lat="49.22939" lon="0.80035">
        <ele>143.35</ele>
        <time>2021-05-09T07:07:24Z</time>
      </trkpt>
      <trkpt lat="49.22935" lon="0.80024">
        <ele>142.66</ele>
        <time>2021-05-09T07:07:25Z</time>
      </trkpt>
      <trkpt lat="49.22932" lon="0.80014">
        <ele>141.77</ele>
        <time>2021-05-09T07:07:26Z</time>
      </trkpt>
      <trkpt lat="49.22931" lon="0.80004">
        <ele>141.05</ele>
        <time>2021-05-09T07:07:27Z</time>
      </trkpt>
      <trkpt lat="49.22931" lon="0.79993">
        <ele>139.82</ele>
        <time>2021-05-09T07:07:28Z</time>
      </trkpt>
      <trkpt lat="49.22932" lon="0.79982">
        <ele>138.42</ele>
        <time>2021-05-09T07:07:29Z</time>
      </trkpt>
      <trkpt lat="49.22933" lon="0.79971">
        <ele>137.23</ele>
        <time>2021-05-09T07:07:30Z</time>
      </trkpt>
      <trkpt lat="49.22933" lon="0.7996">
        <ele>136.34</ele>
        <time>2021-05-09T07:07:31Z</time>
      </trkpt>
      <trkpt lat="49.22933" lon="0.7995">
        <ele>135.84</ele>
        <time>2021-05-09T07:07:32Z</time>
      </trkpt>
      <trkpt lat="49.22934" lon="0.79931">
        <ele>135.06</ele>
        <time>2021-05-09T07:07:34Z</time>
      </trkpt>
      <trkpt lat="49.22935" lon="0.79925">
        <ele>134.86</ele>
        <time>2021-05-09T07:07:35Z</time>
      </trkpt>
      <trkpt lat="49.22938" lon="0.79915">
        <ele>134.68</ele>
        <time>2021-05-09T07:07:37Z</time>
      </trkpt>
      <trkpt lat="49.2294" lon="0.79911">
        <ele>134.68</ele>
        <time>2021-05-09T07:07:38Z</time>
      </trkpt>
      <trkpt lat="49.22941" lon="0.79907">
        <ele>134.66</ele>
        <time>2021-05-09T07:07:39Z</time>
      </trkpt>
      <trkpt lat="49.22942" lon="0.79903">
        <ele>134.66</ele>
        <time>2021-05-09T07:07:40Z</time>
      </trkpt>
      <trkpt lat="49.22942" lon="0.79898">
        <ele>134.66</ele>
        <time>2021-05-09T07:07:41Z</time>
      </trkpt>
      <trkpt lat="49.22942" lon="0.79893">
        <ele>134.66</ele>
        <time>2021-05-09T07:07:42Z</time>
      </trkpt>
      <trkpt lat="49.22942" lon="0.79888">
        <ele>134.91</ele>
        <time>2021-05-09T07:07:43Z</time>
      </trkpt>
      <trkpt lat="49.22943" lon="0.79882">
        <ele>135.46</ele>
        <time>2021-05-09T07:07:44Z</time>
      </trkpt>
      <trkpt lat="49.22943" lon="0.79843">
        <ele>138.85</ele>
        <time>2021-05-09T07:07:51Z</time>
      </trkpt>
      <trkpt lat="49.22942" lon="0.79833">
        <ele>139.57</ele>
        <time>2021-05-09T07:07:53Z</time>
      </trkpt>
      <trkpt lat="49.22934" lon="0.79751">
        <ele>142.58</ele>
        <time>2021-05-09T07:08:07Z</time>
      </trkpt>
      <trkpt lat="49.22927" lon="0.79695">
        <ele>142.66</ele>
        <time>2021-05-09T07:08:18Z</time>
      </trkpt>
      <trkpt lat="49.22924" lon="0.79659">
        <ele>142.05</ele>
        <time>2021-05-09T07:08:24Z</time>
      </trkpt>
      <trkpt lat="49.22924" lon="0.79652">
        <ele>142.05</ele>
        <time>2021-05-09T07:08:25Z</time>
      </trkpt>
      <trkpt lat="49.22923" lon="0.79646">
        <ele>142.05</ele>
        <time>2021-05-09T07:08:26Z</time>
      </trkpt>
      <trkpt lat="49.22912" lon="0.79539">
        <ele>142.81</ele>
        <time>2021-05-09T07:08:41Z</time>
      </trkpt>
      <trkpt lat="49.22887" lon="0.79397">
        <ele>143.83</ele>
        <time>2021-05-09T07:09:00Z</time>
      </trkpt>
      <trkpt lat="49.22884" lon="0.79381">
        <ele>143.86</ele>
        <time>2021-05-09T07:09:02Z</time>
      </trkpt>
      <trkpt lat="49.22851" lon="0.79253">
        <ele>143.89</ele>
        <time>2021-05-09T07:09:19Z</time>
      </trkpt>
      <trkpt lat="49.22846" lon="0.7924">
        <ele>143.87</ele>
        <time>2021-05-09T07:09:21Z</time>
      </trkpt>
      <trkpt lat="49.22842" lon="0.79225">
        <ele>143.85</ele>
        <time>2021-05-09T07:09:23Z</time>
      </trkpt>
      <trkpt lat="49.22828" lon="0.79133">
        <ele>143.07</ele>
        <time>2021-05-09T07:09:35Z</time>
      </trkpt>
      <trkpt lat="49.22825" lon="0.7912">
        <ele>142.97</ele>
        <time>2021-05-09T07:09:37Z</time>
      </trkpt>
      <trkpt lat="49.22807" lon="0.79073">
        <ele>142.88</ele>
        <time>2021-05-09T07:09:46Z</time>
      </trkpt>
      <trkpt lat="49.22788" lon="0.79074">
        <ele>142.81</ele>
        <time>2021-05-09T07:09:50Z</time>
      </trkpt>
      <trkpt lat="49.22766" lon="0.79077">
        <ele>142.24</ele>
        <time>2021-05-09T07:10:01Z</time>
      </trkpt>
      <trkpt lat="49.22759" lon="0.79076">
        <ele>141.92</ele>
        <time>2021-05-09T07:10:12Z</time>
      </trkpt>
      <trkpt lat="49.22748" lon="0.79084">
        <ele>140.71</ele>
        <time>2021-05-09T07:16:04Z</time>
      </trkpt>
      <trkpt lat="49.22715" lon="0.79082">
        <ele>140.28</ele>
        <time>2021-05-09T07:16:14Z</time>
      </trkpt>
      <trkpt lat="49.2268" lon="0.79061">
        <ele>139.01</ele>
        <time>2021-05-09T07:16:22Z</time>
      </trkpt>
      <trkpt lat="49.22675" lon="0.79059">
        <ele>138.91</ele>
        <time>2021-05-09T07:16:23Z</time>
      </trkpt>
      <trkpt lat="49.22661" lon="0.7904">
        <ele>137.12</ele>
        <time>2021-05-09T07:16:29Z</time>
      </trkpt>
      <trkpt lat="49.22645" lon="0.79036">
        <ele>135.59</ele>
        <time>2021-05-09T07:16:34Z</time>
      </trkpt>
      <trkpt lat="49.22632" lon="0.79026">
        <ele>135.28</ele>
        <time>2021-05-09T07:16:36Z</time>
      </trkpt>
      <trkpt lat="49.22623" lon="0.79013">
        <ele>134.99</ele>
        <time>2021-05-09T07:16:38Z</time>
      </trkpt>
      <trkpt lat="49.22614" lon="0.78998">
        <ele>134.59</ele>
        <time>2021-05-09T07:16:40Z</time>
      </trkpt>
      <trkpt lat="49.22611" lon="0.78959">
        <ele>132</ele>
        <time>2021-05-09T07:16:44Z</time>
      </trkpt>
      <trkpt lat="49.22618" lon="0.78935">
        <ele>128.1</ele>
        <time>2021-05-09T07:16:48Z</time>
      </trkpt>
      <trkpt lat="49.22624" lon="0.78929">
        <ele>125.68</ele>
        <time>2021-05-09T07:16:50Z</time>
      </trkpt>
      <trkpt lat="49.22649" lon="0.78919">
        <ele>121.42</ele>
        <time>2021-05-09T07:16:54Z</time>
      </trkpt>
      <trkpt lat="49.22657" lon="0.78915">
        <ele>119.94</ele>
        <time>2021-05-09T07:16:56Z</time>
      </trkpt>
      <trkpt lat="49.22667" lon="0.78904">
        <ele>118.01</ele>
        <time>2021-05-09T07:17:00Z</time>
      </trkpt>
      <trkpt lat="49.22677" lon="0.78896">
        <ele>117.66</ele>
        <time>2021-05-09T07:17:03Z</time>
      </trkpt>
      <trkpt lat="49.22685" lon="0.78887">
        <ele>117.63</ele>
        <time>2021-05-09T07:17:05Z</time>
      </trkpt>
      <trkpt lat="49.22728" lon="0.78893">
        <ele>117.67</ele>
        <time>2021-05-09T07:17:14Z</time>
      </trkpt>
      <trkpt lat="49.22729" lon="0.78894">
        <ele>117.67</ele>
        <time>2021-05-09T07:17:15Z</time>
      </trkpt>
      <trkpt lat="49.22735" lon="0.78901">
        <ele>117.66</ele>
        <time>2021-05-09T07:17:19Z</time>
      </trkpt>
      <trkpt lat="49.22753" lon="0.7886">
        <ele>117.01</ele>
        <time>2021-05-09T07:17:28Z</time>
      </trkpt>
      <trkpt lat="49.22759" lon="0.7885">
        <ele>116.87</ele>
        <time>2021-05-09T07:17:30Z</time>
      </trkpt>
      <trkpt lat="49.22766" lon="0.7882">
        <ele>116.68</ele>
        <time>2021-05-09T07:17:35Z</time>
      </trkpt>
      <trkpt lat="49.2276" lon="0.78783">
        <ele>116.68</ele>
        <time>2021-05-09T07:17:43Z</time>
      </trkpt>
      <trkpt lat="49.22759" lon="0.78779">
        <ele>116.78</ele>
        <time>2021-05-09T07:17:44Z</time>
      </trkpt>
      <trkpt lat="49.22752" lon="0.78756">
        <ele>118.8</ele>
        <time>2021-05-09T07:17:50Z</time>
      </trkpt>
      <trkpt lat="49.2275" lon="0.78748">
        <ele>120.16</ele>
        <time>2021-05-09T07:17:53Z</time>
      </trkpt>
      <trkpt lat="49.22738" lon="0.78727">
        <ele>123.44</ele>
        <time>2021-05-09T07:18:03Z</time>
      </trkpt>
      <trkpt lat="49.22727" lon="0.7872">
        <ele>124.81</ele>
        <time>2021-05-09T07:18:08Z</time>
      </trkpt>
      <trkpt lat="49.22717" lon="0.78719">
        <ele>125.81</ele>
        <time>2021-05-09T07:18:11Z</time>
      </trkpt>
      <trkpt lat="49.22703" lon="0.78718">
        <ele>129.44</ele>
        <time>2021-05-09T07:18:21Z</time>
      </trkpt>
      <trkpt lat="49.22683" lon="0.78721">
        <ele>132.15</ele>
        <time>2021-05-09T07:18:31Z</time>
      </trkpt>
      <trkpt lat="49.22647" lon="0.7873">
        <ele>134.84</ele>
        <time>2021-05-09T07:18:44Z</time>
      </trkpt>
      <trkpt lat="49.22632" lon="0.78733">
        <ele>135.51</ele>
        <time>2021-05-09T07:18:50Z</time>
      </trkpt>
      <trkpt lat="49.22604" lon="0.78742">
        <ele>136.83</ele>
        <time>2021-05-09T07:19:02Z</time>
      </trkpt>
      <trkpt lat="49.22569" lon="0.78752">
        <ele>137.83</ele>
        <time>2021-05-09T07:19:12Z</time>
      </trkpt>
      <trkpt lat="49.22539" lon="0.78757">
        <ele>138.73</ele>
        <time>2021-05-09T07:19:20Z</time>
      </trkpt>
      <trkpt lat="49.2253" lon="0.78738">
        <ele>139.12</ele>
        <time>2021-05-09T07:19:25Z</time>
      </trkpt>
      <trkpt lat="49.22516" lon="0.78695">
        <ele>139.51</ele>
        <time>2021-05-09T07:19:33Z</time>
      </trkpt>
      <trkpt lat="49.22492" lon="0.78614">
        <ele>139.41</ele>
        <time>2021-05-09T07:19:45Z</time>
      </trkpt>
      <trkpt lat="49.22482" lon="0.78589">
        <ele>139.39</ele>
        <time>2021-05-09T07:19:49Z</time>
      </trkpt>
      <trkpt lat="49.22478" lon="0.78567">
        <ele>139.37</ele>
        <time>2021-05-09T07:19:52Z</time>
      </trkpt>
      <trkpt lat="49.22469" lon="0.78498">
        <ele>139.01</ele>
        <time>2021-05-09T07:20:01Z</time>
      </trkpt>
      <trkpt lat="49.22464" lon="0.78486">
        <ele>138.86</ele>
        <time>2021-05-09T07:20:03Z</time>
      </trkpt>
      <trkpt lat="49.22452" lon="0.78471">
        <ele>138.79</ele>
        <time>2021-05-09T07:20:07Z</time>
      </trkpt>
      <trkpt lat="49.22433" lon="0.78447">
        <ele>138.8</ele>
        <time>2021-05-09T07:20:12Z</time>
      </trkpt>
      <trkpt lat="49.2242" lon="0.78434">
        <ele>138.84</ele>
        <time>2021-05-09T07:20:15Z</time>
      </trkpt>
      <trkpt lat="49.22371" lon="0.78389">
        <ele>139.15</ele>
        <time>2021-05-09T07:20:26Z</time>
      </trkpt>
      <trkpt lat="49.22333" lon="0.78361">
        <ele>139.24</ele>
        <time>2021-05-09T07:20:34Z</time>
      </trkpt>
      <trkpt lat="49.22318" lon="0.7835">
        <ele>139.2</ele>
        <time>2021-05-09T07:20:37Z</time>
      </trkpt>
      <trkpt lat="49.22276" lon="0.78315">
        <ele>138.7</ele>
        <time>2021-05-09T07:20:45Z</time>
      </trkpt>
      <trkpt lat="49.22245" lon="0.7831">
        <ele>138.29</ele>
        <time>2021-05-09T07:20:50Z</time>
      </trkpt>
      <trkpt lat="49.22167" lon="0.78356">
        <ele>137.6</ele>
        <time>2021-05-09T07:21:04Z</time>
      </trkpt>
      <trkpt lat="49.22115" lon="0.78387">
        <ele>137.31</ele>
        <time>2021-05-09T07:21:15Z</time>
      </trkpt>
      <trkpt lat="49.22108" lon="0.78391">
        <ele>137.29</ele>
        <time>2021-05-09T07:21:16Z</time>
      </trkpt>
      <trkpt lat="49.2207" lon="0.7841">
        <ele>137.22</ele>
        <time>2021-05-09T07:21:23Z</time>
      </trkpt>
      <trkpt lat="49.2203" lon="0.78418">
        <ele>137.21</ele>
        <time>2021-05-09T07:21:29Z</time>
      </trkpt>
      <trkpt lat="49.22016" lon="0.78419">
        <ele>137.12</ele>
        <time>2021-05-09T07:21:31Z</time>
      </trkpt>
      <trkpt lat="49.21969" lon="0.78417">
        <ele>136.79</ele>
        <time>2021-05-09T07:21:38Z</time>
      </trkpt>
      <trkpt lat="49.21959" lon="0.78442">
        <ele>135.29</ele>
        <time>2021-05-09T07:21:44Z</time>
      </trkpt>
      <trkpt lat="49.21963" lon="0.78459">
        <ele>135.01</ele>
        <time>2021-05-09T07:21:46Z</time>
      </trkpt>
      <trkpt lat="49.2197" lon="0.78492">
        <ele>134.92</ele>
        <time>2021-05-09T07:21:51Z</time>
      </trkpt>
      <trkpt lat="49.2198" lon="0.78529">
        <ele>135.23</ele>
        <time>2021-05-09T07:21:57Z</time>
      </trkpt>
      <trkpt lat="49.21985" lon="0.78561">
        <ele>135.74</ele>
        <time>2021-05-09T07:22:02Z</time>
      </trkpt>
      <trkpt lat="49.21986" lon="0.78574">
        <ele>135.78</ele>
        <time>2021-05-09T07:22:04Z</time>
      </trkpt>
      <trkpt lat="49.21986" lon="0.7858">
        <ele>135.78</ele>
        <time>2021-05-09T07:22:05Z</time>
      </trkpt>
      <trkpt lat="49.21984" lon="0.78585">
        <ele>135.78</ele>
        <time>2021-05-09T07:22:06Z</time>
      </trkpt>
      <trkpt lat="49.21981" lon="0.78588">
        <ele>135.78</ele>
        <time>2021-05-09T07:22:07Z</time>
      </trkpt>
      <trkpt lat="49.21934" lon="0.78615">
        <ele>134.92</ele>
        <time>2021-05-09T07:22:17Z</time>
      </trkpt>
      <trkpt lat="49.21924" lon="0.78617">
        <ele>134.72</ele>
        <time>2021-05-09T07:22:19Z</time>
      </trkpt>
      <trkpt lat="49.2192" lon="0.78615">
        <ele>134.71</ele>
        <time>2021-05-09T07:22:20Z</time>
      </trkpt>
      <trkpt lat="49.21915" lon="0.78612">
        <ele>134.7</ele>
        <time>2021-05-09T07:22:21Z</time>
      </trkpt>
      <trkpt lat="49.21912" lon="0.78606">
        <ele>134.67</ele>
        <time>2021-05-09T07:22:22Z</time>
      </trkpt>
      <trkpt lat="49.21908" lon="0.78599">
        <ele>134.61</ele>
        <time>2021-05-09T07:22:23Z</time>
      </trkpt>
      <trkpt lat="49.21883" lon="0.78496">
        <ele>133.89</ele>
        <time>2021-05-09T07:22:36Z</time>
      </trkpt>
      <trkpt lat="49.21881" lon="0.78486">
        <ele>133.71</ele>
        <time>2021-05-09T07:22:37Z</time>
      </trkpt>
      <trkpt lat="49.21867" lon="0.78388">
        <ele>130.65</ele>
        <time>2021-05-09T07:22:47Z</time>
      </trkpt>
      <trkpt lat="49.21864" lon="0.78347">
        <ele>129.32</ele>
        <time>2021-05-09T07:22:52Z</time>
      </trkpt>
      <trkpt lat="49.21865" lon="0.78339">
        <ele>129.25</ele>
        <time>2021-05-09T07:22:53Z</time>
      </trkpt>
      <trkpt lat="49.21866" lon="0.78335">
        <ele>129.18</ele>
        <time>2021-05-09T07:22:54Z</time>
      </trkpt>
      <trkpt lat="49.21867" lon="0.78331">
        <ele>129.09</ele>
        <time>2021-05-09T07:22:55Z</time>
      </trkpt>
      <trkpt lat="49.21867" lon="0.78319">
        <ele>127.94</ele>
        <time>2021-05-09T07:22:59Z</time>
      </trkpt>
      <trkpt lat="49.21865" lon="0.78294">
        <ele>127.31</ele>
        <time>2021-05-09T07:23:04Z</time>
      </trkpt>
      <trkpt lat="49.21839" lon="0.78227">
        <ele>124.36</ele>
        <time>2021-05-09T07:23:16Z</time>
      </trkpt>
      <trkpt lat="49.21811" lon="0.78191">
        <ele>121.07</ele>
        <time>2021-05-09T07:23:24Z</time>
      </trkpt>
      <trkpt lat="49.21776" lon="0.78173">
        <ele>118.27</ele>
        <time>2021-05-09T07:23:39Z</time>
      </trkpt>
      <trkpt lat="49.21756" lon="0.78177">
        <ele>121.44</ele>
        <time>2021-05-09T07:23:51Z</time>
      </trkpt>
      <trkpt lat="49.21749" lon="0.78178">
        <ele>122.19</ele>
        <time>2021-05-09T07:23:53Z</time>
      </trkpt>
      <trkpt lat="49.21745" lon="0.78177">
        <ele>123.01</ele>
        <time>2021-05-09T07:23:55Z</time>
      </trkpt>
      <trkpt lat="49.21719" lon="0.78183">
        <ele>124.68</ele>
        <time>2021-05-09T07:24:01Z</time>
      </trkpt>
      <trkpt lat="49.2169" lon="0.78193">
        <ele>127.18</ele>
        <time>2021-05-09T07:25:04Z</time>
      </trkpt>
      <trkpt lat="49.21671" lon="0.78188">
        <ele>128.03</ele>
        <time>2021-05-09T07:25:13Z</time>
      </trkpt>
      <trkpt lat="49.21631" lon="0.78216">
        <ele>128.24</ele>
        <time>2021-05-09T07:25:23Z</time>
      </trkpt>
      <trkpt lat="49.21618" lon="0.78223">
        <ele>128.39</ele>
        <time>2021-05-09T07:25:27Z</time>
      </trkpt>
      <trkpt lat="49.21582" lon="0.78211">
        <ele>129.87</ele>
        <time>2021-05-09T07:25:37Z</time>
      </trkpt>
      <trkpt lat="49.21556" lon="0.78219">
        <ele>130.27</ele>
        <time>2021-05-09T07:25:43Z</time>
      </trkpt>
      <trkpt lat="49.21531" lon="0.78273">
        <ele>131.22</ele>
        <time>2021-05-09T07:25:52Z</time>
      </trkpt>
      <trkpt lat="49.21515" lon="0.78345">
        <ele>133.36</ele>
        <time>2021-05-09T07:26:04Z</time>
      </trkpt>
      <trkpt lat="49.21512" lon="0.78373">
        <ele>133.84</ele>
        <time>2021-05-09T07:26:08Z</time>
      </trkpt>
      <trkpt lat="49.21506" lon="0.78403">
        <ele>133.88</ele>
        <time>2021-05-09T07:26:12Z</time>
      </trkpt>
      <trkpt lat="49.21491" lon="0.78439">
        <ele>133.87</ele>
        <time>2021-05-09T07:26:17Z</time>
      </trkpt>
      <trkpt lat="49.21477" lon="0.7848">
        <ele>133.64</ele>
        <time>2021-05-09T07:26:22Z</time>
      </trkpt>
      <trkpt lat="49.21455" lon="0.78547">
        <ele>133.32</ele>
        <time>2021-05-09T07:26:34Z</time>
      </trkpt>
      <trkpt lat="49.21423" lon="0.78586">
        <ele>135.79</ele>
        <time>2021-05-09T07:26:44Z</time>
      </trkpt>
      <trkpt lat="49.21375" lon="0.78635">
        <ele>136.09</ele>
        <time>2021-05-09T07:26:56Z</time>
      </trkpt>
      <trkpt lat="49.21363" lon="0.78648">
        <ele>136.1</ele>
        <time>2021-05-09T07:26:59Z</time>
      </trkpt>
      <trkpt lat="49.2131" lon="0.7869">
        <ele>135.83</ele>
        <time>2021-05-09T07:27:10Z</time>
      </trkpt>
      <trkpt lat="49.21238" lon="0.78733">
        <ele>134.84</ele>
        <time>2021-05-09T07:27:21Z</time>
      </trkpt>
      <trkpt lat="49.2117" lon="0.78776">
        <ele>133.44</ele>
        <time>2021-05-09T07:27:33Z</time>
      </trkpt>
      <trkpt lat="49.21118" lon="0.78813">
        <ele>133.44</ele>
        <time>2021-05-09T07:27:42Z</time>
      </trkpt>
      <trkpt lat="49.21098" lon="0.78819">
        <ele>132.72</ele>
        <time>2021-05-09T07:27:46Z</time>
      </trkpt>
      <trkpt lat="49.21027" lon="0.78814">
        <ele>129.27</ele>
        <time>2021-05-09T07:27:58Z</time>
      </trkpt>
      <trkpt lat="49.21009" lon="0.78813">
        <ele>128.35</ele>
        <time>2021-05-09T07:28:01Z</time>
      </trkpt>
      <trkpt lat="49.2094" lon="0.78806">
        <ele>127.4</ele>
        <time>2021-05-09T07:28:12Z</time>
      </trkpt>
      <trkpt lat="49.20934" lon="0.78806">
        <ele>127.17</ele>
        <time>2021-05-09T07:28:13Z</time>
      </trkpt>
      <trkpt lat="49.20918" lon="0.78782">
        <ele>126.72</ele>
        <time>2021-05-09T07:28:18Z</time>
      </trkpt>
      <trkpt lat="49.20907" lon="0.78751">
        <ele>125.96</ele>
        <time>2021-05-09T07:28:22Z</time>
      </trkpt>
      <trkpt lat="49.20883" lon="0.78713">
        <ele>121.99</ele>
        <time>2021-05-09T07:28:28Z</time>
      </trkpt>
      <trkpt lat="49.2087" lon="0.78695">
        <ele>117.99</ele>
        <time>2021-05-09T07:28:32Z</time>
      </trkpt>
      <trkpt lat="49.20861" lon="0.78682">
        <ele>114.95</ele>
        <time>2021-05-09T07:28:35Z</time>
      </trkpt>
      <trkpt lat="49.20846" lon="0.78664">
        <ele>111.66</ele>
        <time>2021-05-09T07:28:39Z</time>
      </trkpt>
      <trkpt lat="49.2082" lon="0.78668">
        <ele>107.55</ele>
        <time>2021-05-09T07:28:44Z</time>
      </trkpt>
      <trkpt lat="49.20802" lon="0.78681">
        <ele>104.07</ele>
        <time>2021-05-09T07:28:48Z</time>
      </trkpt>
      <trkpt lat="49.20791" lon="0.78686">
        <ele>102.46</ele>
        <time>2021-05-09T07:28:50Z</time>
      </trkpt>
      <trkpt lat="49.20767" lon="0.78701">
        <ele>98.9</ele>
        <time>2021-05-09T07:28:54Z</time>
      </trkpt>
      <trkpt lat="49.20762" lon="0.78705">
        <ele>98.1</ele>
        <time>2021-05-09T07:28:55Z</time>
      </trkpt>
      <trkpt lat="49.20744" lon="0.78715">
        <ele>94.95</ele>
        <time>2021-05-09T07:28:58Z</time>
      </trkpt>
      <trkpt lat="49.20708" lon="0.78705">
        <ele>89.8</ele>
        <time>2021-05-09T07:29:03Z</time>
      </trkpt>
      <trkpt lat="49.20686" lon="0.78672">
        <ele>85.81</ele>
        <time>2021-05-09T07:29:07Z</time>
      </trkpt>
      <trkpt lat="49.20669" lon="0.78646">
        <ele>82.57</ele>
        <time>2021-05-09T07:29:10Z</time>
      </trkpt>
      <trkpt lat="49.20653" lon="0.78623">
        <ele>78.94</ele>
        <time>2021-05-09T07:29:13Z</time>
      </trkpt>
      <trkpt lat="49.20647" lon="0.78615">
        <ele>78.94</ele>
        <time>2021-05-09T07:29:14Z</time>
      </trkpt>
      <trkpt lat="49.206" lon="0.78553">
        <ele>75.82</ele>
        <time>2021-05-09T07:29:23Z</time>
      </trkpt>
      <trkpt lat="49.20542" lon="0.78472">
        <ele>74.16</ele>
        <time>2021-05-09T07:29:37Z</time>
      </trkpt>
      <trkpt lat="49.20488" lon="0.784">
        <ele>74.07</ele>
        <time>2021-05-09T07:29:50Z</time>
      </trkpt>
      <trkpt lat="49.2048" lon="0.78387">
        <ele>74.07</ele>
        <time>2021-05-09T07:29:52Z</time>
      </trkpt>
      <trkpt lat="49.2047" lon="0.78365">
        <ele>74.08</ele>
        <time>2021-05-09T07:29:55Z</time>
      </trkpt>
      <trkpt lat="49.20464" lon="0.78348">
        <ele>74.08</ele>
        <time>2021-05-09T07:29:57Z</time>
      </trkpt>
      <trkpt lat="49.20426" lon="0.78195">
        <ele>74.21</ele>
        <time>2021-05-09T07:30:15Z</time>
      </trkpt>
      <trkpt lat="49.2039" lon="0.78107">
        <ele>74.65</ele>
        <time>2021-05-09T07:30:27Z</time>
      </trkpt>
      <trkpt lat="49.20378" lon="0.78091">
        <ele>74.78</ele>
        <time>2021-05-09T07:30:30Z</time>
      </trkpt>
      <trkpt lat="49.20374" lon="0.7809">
        <ele>74.86</ele>
        <time>2021-05-09T07:30:31Z</time>
      </trkpt>
      <trkpt lat="49.2037" lon="0.78092">
        <ele>74.95</ele>
        <time>2021-05-09T07:30:32Z</time>
      </trkpt>
      <trkpt lat="49.20366" lon="0.78097">
        <ele>75.04</ele>
        <time>2021-05-09T07:30:33Z</time>
      </trkpt>
      <trkpt lat="49.20363" lon="0.78105">
        <ele>75.11</ele>
        <time>2021-05-09T07:30:34Z</time>
      </trkpt>
      <trkpt lat="49.2036" lon="0.78112">
        <ele>75.14</ele>
        <time>2021-05-09T07:30:35Z</time>
      </trkpt>
      <trkpt lat="49.20357" lon="0.7812">
        <ele>75.24</ele>
        <time>2021-05-09T07:30:36Z</time>
      </trkpt>
      <trkpt lat="49.20341" lon="0.78145">
        <ele>75.58</ele>
        <time>2021-05-09T07:30:40Z</time>
      </trkpt>
      <trkpt lat="49.20336" lon="0.78149">
        <ele>75.61</ele>
        <time>2021-05-09T07:30:41Z</time>
      </trkpt>
      <trkpt lat="49.20331" lon="0.78152">
        <ele>75.66</ele>
        <time>2021-05-09T07:30:42Z</time>
      </trkpt>
      <trkpt lat="49.20325" lon="0.78153">
        <ele>75.69</ele>
        <time>2021-05-09T07:30:43Z</time>
      </trkpt>
      <trkpt lat="49.20319" lon="0.78152">
        <ele>75.73</ele>
        <time>2021-05-09T07:30:44Z</time>
      </trkpt>
      <trkpt lat="49.20313" lon="0.7815">
        <ele>75.77</ele>
        <time>2021-05-09T07:30:45Z</time>
      </trkpt>
      <trkpt lat="49.20307" lon="0.78148">
        <ele>75.81</ele>
        <time>2021-05-09T07:30:46Z</time>
      </trkpt>
      <trkpt lat="49.20289" lon="0.78143">
        <ele>75.91</ele>
        <time>2021-05-09T07:30:49Z</time>
      </trkpt>
      <trkpt lat="49.20282" lon="0.78143">
        <ele>75.92</ele>
        <time>2021-05-09T07:30:50Z</time>
      </trkpt>
      <trkpt lat="49.20276" lon="0.78145">
        <ele>75.92</ele>
        <time>2021-05-09T07:30:51Z</time>
      </trkpt>
      <trkpt lat="49.2027" lon="0.78147">
        <ele>75.92</ele>
        <time>2021-05-09T07:30:52Z</time>
      </trkpt>
      <trkpt lat="49.20264" lon="0.7815">
        <ele>75.86</ele>
        <time>2021-05-09T07:30:53Z</time>
      </trkpt>
      <trkpt lat="49.20234" lon="0.78165">
        <ele>75.44</ele>
        <time>2021-05-09T07:30:58Z</time>
      </trkpt>
      <trkpt lat="49.20227" lon="0.78166">
        <ele>75.33</ele>
        <time>2021-05-09T07:30:59Z</time>
      </trkpt>
      <trkpt lat="49.20128" lon="0.7817">
        <ele>74.72</ele>
        <time>2021-05-09T07:31:16Z</time>
      </trkpt>
      <trkpt lat="49.20057" lon="0.78172">
        <ele>74.73</ele>
        <time>2021-05-09T07:31:29Z</time>
      </trkpt>
      <trkpt lat="49.20041" lon="0.78175">
        <ele>74.97</ele>
        <time>2021-05-09T07:31:34Z</time>
      </trkpt>
      <trkpt lat="49.20039" lon="0.78179">
        <ele>75.08</ele>
        <time>2021-05-09T07:31:35Z</time>
      </trkpt>
      <trkpt lat="49.20036" lon="0.78183">
        <ele>75.28</ele>
        <time>2021-05-09T07:31:36Z</time>
      </trkpt>
      <trkpt lat="49.20028" lon="0.78193">
        <ele>75.81</ele>
        <time>2021-05-09T07:31:38Z</time>
      </trkpt>
      <trkpt lat="49.20024" lon="0.78198">
        <ele>75.97</ele>
        <time>2021-05-09T07:31:39Z</time>
      </trkpt>
      <trkpt lat="49.2002" lon="0.78204">
        <ele>76.05</ele>
        <time>2021-05-09T07:31:40Z</time>
      </trkpt>
      <trkpt lat="49.20017" lon="0.78209">
        <ele>76.09</ele>
        <time>2021-05-09T07:31:41Z</time>
      </trkpt>
      <trkpt lat="49.20014" lon="0.78215">
        <ele>76.11</ele>
        <time>2021-05-09T07:31:42Z</time>
      </trkpt>
      <trkpt lat="49.20011" lon="0.78221">
        <ele>76.12</ele>
        <time>2021-05-09T07:31:43Z</time>
      </trkpt>
      <trkpt lat="49.20007" lon="0.78229">
        <ele>76.12</ele>
        <time>2021-05-09T07:31:44Z</time>
      </trkpt>
      <trkpt lat="49.20004" lon="0.78237">
        <ele>76.12</ele>
        <time>2021-05-09T07:31:45Z</time>
      </trkpt>
      <trkpt lat="49.20002" lon="0.78246">
        <ele>76.16</ele>
        <time>2021-05-09T07:31:47Z</time>
      </trkpt>
      <trkpt lat="49.19999" lon="0.78276">
        <ele>76.38</ele>
        <time>2021-05-09T07:31:56Z</time>
      </trkpt>
      <trkpt lat="49.19998" lon="0.78303">
        <ele>79.4</ele>
        <time>2021-05-09T07:32:05Z</time>
      </trkpt>
      <trkpt lat="49.19991" lon="0.78356">
        <ele>83.19</ele>
        <time>2021-05-09T07:32:17Z</time>
      </trkpt>
      <trkpt lat="49.19989" lon="0.78376">
        <ele>84.72</ele>
        <time>2021-05-09T07:32:24Z</time>
      </trkpt>
      <trkpt lat="49.19988" lon="0.7839">
        <ele>85.58</ele>
        <time>2021-05-09T07:32:28Z</time>
      </trkpt>
      <trkpt lat="49.19983" lon="0.78413">
        <ele>88.08</ele>
        <time>2021-05-09T07:32:37Z</time>
      </trkpt>
      <trkpt lat="49.19982" lon="0.78446">
        <ele>91.77</ele>
        <time>2021-05-09T07:32:48Z</time>
      </trkpt>
      <trkpt lat="49.19988" lon="0.78468">
        <ele>94.87</ele>
        <time>2021-05-09T07:32:57Z</time>
      </trkpt>
      <trkpt lat="49.19995" lon="0.7849">
        <ele>97.98</ele>
        <time>2021-05-09T07:33:10Z</time>
      </trkpt>
      <trkpt lat="49.20004" lon="0.7852">
        <ele>101.01</ele>
        <time>2021-05-09T07:33:22Z</time>
      </trkpt>
      <trkpt lat="49.20011" lon="0.78542">
        <ele>103.79</ele>
        <time>2021-05-09T07:33:32Z</time>
      </trkpt>
      <trkpt lat="49.20025" lon="0.7855">
        <ele>107.11</ele>
        <time>2021-05-09T07:33:43Z</time>
      </trkpt>
      <trkpt lat="49.20032" lon="0.78554">
        <ele>108.22</ele>
        <time>2021-05-09T07:33:47Z</time>
      </trkpt>
      <trkpt lat="49.20052" lon="0.78582">
        <ele>110.68</ele>
        <time>2021-05-09T07:34:02Z</time>
      </trkpt>
      <trkpt lat="49.20061" lon="0.78598">
        <ele>113.72</ele>
        <time>2021-05-09T07:34:13Z</time>
      </trkpt>
      <trkpt lat="49.20063" lon="0.78621">
        <ele>116.34</ele>
        <time>2021-05-09T07:34:26Z</time>
      </trkpt>
      <trkpt lat="49.20064" lon="0.78625">
        <ele>117.06</ele>
        <time>2021-05-09T07:34:29Z</time>
      </trkpt>
      <trkpt lat="49.20062" lon="0.78635">
        <ele>118.79</ele>
        <time>2021-05-09T07:34:35Z</time>
      </trkpt>
      <trkpt lat="49.20056" lon="0.78656">
        <ele>121.9</ele>
        <time>2021-05-09T07:34:44Z</time>
      </trkpt>
      <trkpt lat="49.20045" lon="0.78689">
        <ele>124.82</ele>
        <time>2021-05-09T07:34:57Z</time>
      </trkpt>
      <trkpt lat="49.20041" lon="0.78706">
        <ele>125.78</ele>
        <time>2021-05-09T07:35:03Z</time>
      </trkpt>
      <trkpt lat="49.20025" lon="0.78758">
        <ele>126.76</ele>
        <time>2021-05-09T07:35:17Z</time>
      </trkpt>
      <trkpt lat="49.20014" lon="0.78808">
        <ele>127.2</ele>
        <time>2021-05-09T07:35:28Z</time>
      </trkpt>
      <trkpt lat="49.20013" lon="0.78812">
        <ele>127.27</ele>
        <time>2021-05-09T07:35:29Z</time>
      </trkpt>
      <trkpt lat="49.20007" lon="0.78818">
        <ele>127.37</ele>
        <time>2021-05-09T07:35:33Z</time>
      </trkpt>
      <trkpt lat="49.19986" lon="0.78829">
        <ele>128.11</ele>
        <time>2021-05-09T07:35:49Z</time>
      </trkpt>
      <trkpt lat="49.19959" lon="0.78839">
        <ele>128.43</ele>
        <time>2021-05-09T07:36:04Z</time>
      </trkpt>
      <trkpt lat="49.19935" lon="0.78852">
        <ele>128.51</ele>
        <time>2021-05-09T07:36:15Z</time>
      </trkpt>
      <trkpt lat="49.1991" lon="0.78865">
        <ele>128.64</ele>
        <time>2021-05-09T07:36:24Z</time>
      </trkpt>
      <trkpt lat="49.19875" lon="0.78885">
        <ele>129.39</ele>
        <time>2021-05-09T07:36:34Z</time>
      </trkpt>
      <trkpt lat="49.19843" lon="0.78898">
        <ele>130.24</ele>
        <time>2021-05-09T07:36:44Z</time>
      </trkpt>
      <trkpt lat="49.1984" lon="0.789">
        <ele>130.26</ele>
        <time>2021-05-09T07:36:45Z</time>
      </trkpt>
      <trkpt lat="49.19823" lon="0.78912">
        <ele>130.55</ele>
        <time>2021-05-09T07:36:49Z</time>
      </trkpt>
      <trkpt lat="49.19774" lon="0.78933">
        <ele>131.51</ele>
        <time>2021-05-09T07:36:59Z</time>
      </trkpt>
      <trkpt lat="49.19725" lon="0.78955">
        <ele>132.72</ele>
        <time>2021-05-09T07:37:10Z</time>
      </trkpt>
      <trkpt lat="49.19702" lon="0.78964">
        <ele>133.58</ele>
        <time>2021-05-09T07:37:15Z</time>
      </trkpt>
      <trkpt lat="49.19693" lon="0.78968">
        <ele>134.05</ele>
        <time>2021-05-09T07:37:17Z</time>
      </trkpt>
      <trkpt lat="49.19651" lon="0.78989">
        <ele>135.53</ele>
        <time>2021-05-09T07:37:28Z</time>
      </trkpt>
      <trkpt lat="49.19618" lon="0.79024">
        <ele>136.77</ele>
        <time>2021-05-09T07:37:38Z</time>
      </trkpt>
      <trkpt lat="49.19581" lon="0.79062">
        <ele>137.38</ele>
        <time>2021-05-09T07:37:47Z</time>
      </trkpt>
      <trkpt lat="49.19551" lon="0.79102">
        <ele>137.31</ele>
        <time>2021-05-09T07:37:55Z</time>
      </trkpt>
      <trkpt lat="49.19502" lon="0.79159">
        <ele>136.62</ele>
        <time>2021-05-09T07:38:05Z</time>
      </trkpt>
      <trkpt lat="49.19497" lon="0.79165">
        <ele>136.61</ele>
        <time>2021-05-09T07:38:06Z</time>
      </trkpt>
      <trkpt lat="49.19461" lon="0.7919">
        <ele>136.69</ele>
        <time>2021-05-09T07:38:15Z</time>
      </trkpt>
      <trkpt lat="49.19453" lon="0.79175">
        <ele>136.99</ele>
        <time>2021-05-09T07:38:20Z</time>
      </trkpt>
      <trkpt lat="49.19449" lon="0.79177">
        <ele>137.78</ele>
        <time>2021-05-09T07:38:35Z</time>
      </trkpt>
      <trkpt lat="49.19453" lon="0.79186">
        <ele>138.14</ele>
        <time>2021-05-09T07:39:21Z</time>
      </trkpt>
      <trkpt lat="49.19465" lon="0.79234">
        <ele>138.14</ele>
        <time>2021-05-09T07:39:31Z</time>
      </trkpt>
      <trkpt lat="49.19467" lon="0.79246">
        <ele>138.1</ele>
        <time>2021-05-09T07:39:33Z</time>
      </trkpt>
      <trkpt lat="49.1947" lon="0.79268">
        <ele>137.94</ele>
        <time>2021-05-09T07:39:36Z</time>
      </trkpt>
      <trkpt lat="49.19474" lon="0.79284">
        <ele>137.69</ele>
        <time>2021-05-09T07:39:38Z</time>
      </trkpt>
      <trkpt lat="49.19484" lon="0.79325">
        <ele>137.29</ele>
        <time>2021-05-09T07:39:43Z</time>
      </trkpt>
      <trkpt lat="49.19486" lon="0.79352">
        <ele>136.79</ele>
        <time>2021-05-09T07:39:46Z</time>
      </trkpt>
      <trkpt lat="49.195" lon="0.79412">
        <ele>135.71</ele>
        <time>2021-05-09T07:39:52Z</time>
      </trkpt>
      <trkpt lat="49.19512" lon="0.79452">
        <ele>135.56</ele>
        <time>2021-05-09T07:39:56Z</time>
      </trkpt>
      <trkpt lat="49.19534" lon="0.7959">
        <ele>134.42</ele>
        <time>2021-05-09T07:40:09Z</time>
      </trkpt>
      <trkpt lat="49.19539" lon="0.79617">
        <ele>134.27</ele>
        <time>2021-05-09T07:40:12Z</time>
      </trkpt>
      <trkpt lat="49.1955" lon="0.7969">
        <ele>136.05</ele>
        <time>2021-05-09T07:40:21Z</time>
      </trkpt>
      <trkpt lat="49.19554" lon="0.79697">
        <ele>136.5</ele>
        <time>2021-05-09T07:40:22Z</time>
      </trkpt>
      <trkpt lat="49.19594" lon="0.79766">
        <ele>138.94</ele>
        <time>2021-05-09T07:40:33Z</time>
      </trkpt>
      <trkpt lat="49.196" lon="0.79778">
        <ele>139.48</ele>
        <time>2021-05-09T07:40:35Z</time>
      </trkpt>
      <trkpt lat="49.19589" lon="0.79815">
        <ele>139.97</ele>
        <time>2021-05-09T07:40:43Z</time>
      </trkpt>
      <trkpt lat="49.19585" lon="0.7982">
        <ele>139.99</ele>
        <time>2021-05-09T07:40:44Z</time>
      </trkpt>
      <trkpt lat="49.19571" lon="0.79837">
        <ele>140.22</ele>
        <time>2021-05-09T07:40:48Z</time>
      </trkpt>
      <trkpt lat="49.19529" lon="0.79895">
        <ele>141.38</ele>
        <time>2021-05-09T07:41:01Z</time>
      </trkpt>
      <trkpt lat="49.19505" lon="0.79928">
        <ele>142.4</ele>
        <time>2021-05-09T07:41:09Z</time>
      </trkpt>
      <trkpt lat="49.19469" lon="0.79997">
        <ele>142.84</ele>
        <time>2021-05-09T07:41:20Z</time>
      </trkpt>
      <trkpt lat="49.19439" lon="0.80056">
        <ele>143.49</ele>
        <time>2021-05-09T07:41:29Z</time>
      </trkpt>
      <trkpt lat="49.19389" lon="0.80115">
        <ele>143.77</ele>
        <time>2021-05-09T07:41:41Z</time>
      </trkpt>
      <trkpt lat="49.19376" lon="0.80127">
        <ele>143.81</ele>
        <time>2021-05-09T07:41:44Z</time>
      </trkpt>
      <trkpt lat="49.19338" lon="0.80169">
        <ele>143.74</ele>
        <time>2021-05-09T07:41:53Z</time>
      </trkpt>
      <trkpt lat="49.19316" lon="0.80189">
        <ele>143.68</ele>
        <time>2021-05-09T07:41:57Z</time>
      </trkpt>
      <trkpt lat="49.19279" lon="0.80223">
        <ele>143.59</ele>
        <time>2021-05-09T07:42:04Z</time>
      </trkpt>
      <trkpt lat="49.19258" lon="0.80237">
        <ele>143.54</ele>
        <time>2021-05-09T07:42:08Z</time>
      </trkpt>
      <trkpt lat="49.19233" lon="0.80253">
        <ele>143.25</ele>
        <time>2021-05-09T07:42:13Z</time>
      </trkpt>
      <trkpt lat="49.19221" lon="0.80261">
        <ele>143.15</ele>
        <time>2021-05-09T07:42:16Z</time>
      </trkpt>
      <trkpt lat="49.19208" lon="0.80266">
        <ele>142.87</ele>
        <time>2021-05-09T07:42:19Z</time>
      </trkpt>
      <trkpt lat="49.19206" lon="0.80263">
        <ele>142.73</ele>
        <time>2021-05-09T07:42:20Z</time>
      </trkpt>
      <trkpt lat="49.19205" lon="0.80258">
        <ele>142.61</ele>
        <time>2021-05-09T07:42:21Z</time>
      </trkpt>
      <trkpt lat="49.19205" lon="0.80253">
        <ele>142.46</ele>
        <time>2021-05-09T07:42:22Z</time>
      </trkpt>
      <trkpt lat="49.19199" lon="0.80172">
        <ele>141.19</ele>
        <time>2021-05-09T07:42:32Z</time>
      </trkpt>
      <trkpt lat="49.19198" lon="0.80163">
        <ele>140.97</ele>
        <time>2021-05-09T07:42:33Z</time>
      </trkpt>
      <trkpt lat="49.19194" lon="0.80135">
        <ele>140.7</ele>
        <time>2021-05-09T07:42:36Z</time>
      </trkpt>
      <trkpt lat="49.19191" lon="0.80126">
        <ele>140.66</ele>
        <time>2021-05-09T07:42:37Z</time>
      </trkpt>
      <trkpt lat="49.19187" lon="0.80118">
        <ele>140.61</ele>
        <time>2021-05-09T07:42:38Z</time>
      </trkpt>
      <trkpt lat="49.19182" lon="0.80111">
        <ele>140.56</ele>
        <time>2021-05-09T07:42:39Z</time>
      </trkpt>
      <trkpt lat="49.19178" lon="0.80104">
        <ele>140.52</ele>
        <time>2021-05-09T07:42:40Z</time>
      </trkpt>
      <trkpt lat="49.19159" lon="0.80074">
        <ele>140.01</ele>
        <time>2021-05-09T07:42:44Z</time>
      </trkpt>
      <trkpt lat="49.19155" lon="0.80066">
        <ele>139.82</ele>
        <time>2021-05-09T07:42:45Z</time>
      </trkpt>
      <trkpt lat="49.19152" lon="0.80057">
        <ele>139.64</ele>
        <time>2021-05-09T07:42:46Z</time>
      </trkpt>
      <trkpt lat="49.19116" lon="0.79939">
        <ele>139.12</ele>
        <time>2021-05-09T07:43:00Z</time>
      </trkpt>
      <trkpt lat="49.19087" lon="0.79832">
        <ele>140.38</ele>
        <time>2021-05-09T07:43:14Z</time>
      </trkpt>
      <trkpt lat="49.19085" lon="0.79825">
        <ele>140.56</ele>
        <time>2021-05-09T07:43:15Z</time>
      </trkpt>
      <trkpt lat="49.19082" lon="0.79818">
        <ele>140.7</ele>
        <time>2021-05-09T07:43:16Z</time>
      </trkpt>
      <trkpt lat="49.1906" lon="0.79764">
        <ele>141.27</ele>
        <time>2021-05-09T07:43:24Z</time>
      </trkpt>
      <trkpt lat="49.1906" lon="0.79694">
        <ele>140.66</ele>
        <time>2021-05-09T07:43:31Z</time>
      </trkpt>
      <trkpt lat="49.19043" lon="0.79678">
        <ele>138.14</ele>
        <time>2021-05-09T07:43:35Z</time>
      </trkpt>
      <trkpt lat="49.19013" lon="0.79669">
        <ele>134.41</ele>
        <time>2021-05-09T07:43:40Z</time>
      </trkpt>
      <trkpt lat="49.19002" lon="0.79662">
        <ele>132.71</ele>
        <time>2021-05-09T07:43:42Z</time>
      </trkpt>
      <trkpt lat="49.18977" lon="0.79634">
        <ele>128.29</ele>
        <time>2021-05-09T07:43:46Z</time>
      </trkpt>
      <trkpt lat="49.18973" lon="0.7963">
        <ele>126.86</ele>
        <time>2021-05-09T07:43:47Z</time>
      </trkpt>
      <trkpt lat="49.18963" lon="0.79624">
        <ele>124.21</ele>
        <time>2021-05-09T07:43:49Z</time>
      </trkpt>
      <trkpt lat="49.18945" lon="0.79607">
        <ele>119.62</ele>
        <time>2021-05-09T07:43:52Z</time>
      </trkpt>
      <trkpt lat="49.18935" lon="0.79594">
        <ele>116.73</ele>
        <time>2021-05-09T07:43:54Z</time>
      </trkpt>
      <trkpt lat="49.18928" lon="0.79544">
        <ele>112.84</ele>
        <time>2021-05-09T07:43:59Z</time>
      </trkpt>
      <trkpt lat="49.18939" lon="0.79491">
        <ele>110.55</ele>
        <time>2021-05-09T07:44:03Z</time>
      </trkpt>
      <trkpt lat="49.18938" lon="0.7942">
        <ele>106.3</ele>
        <time>2021-05-09T07:44:08Z</time>
      </trkpt>
      <trkpt lat="49.18932" lon="0.79366">
        <ele>102.63</ele>
        <time>2021-05-09T07:44:12Z</time>
      </trkpt>
      <trkpt lat="49.18929" lon="0.79353">
        <ele>101.91</ele>
        <time>2021-05-09T07:44:13Z</time>
      </trkpt>
      <trkpt lat="49.18907" lon="0.79295">
        <ele>98.91</ele>
        <time>2021-05-09T07:44:18Z</time>
      </trkpt>
      <trkpt lat="49.18892" lon="0.79282">
        <ele>96.67</ele>
        <time>2021-05-09T07:44:23Z</time>
      </trkpt>
      <trkpt lat="49.18889" lon="0.79287">
        <ele>96.11</ele>
        <time>2021-05-09T07:44:24Z</time>
      </trkpt>
      <trkpt lat="49.18885" lon="0.79293">
        <ele>95.49</ele>
        <time>2021-05-09T07:44:25Z</time>
      </trkpt>
      <trkpt lat="49.18881" lon="0.79298">
        <ele>95.13</ele>
        <time>2021-05-09T07:44:26Z</time>
      </trkpt>
      <trkpt lat="49.18876" lon="0.79304">
        <ele>94.78</ele>
        <time>2021-05-09T07:44:27Z</time>
      </trkpt>
      <trkpt lat="49.18872" lon="0.79309">
        <ele>94.44</ele>
        <time>2021-05-09T07:44:28Z</time>
      </trkpt>
      <trkpt lat="49.18869" lon="0.79314">
        <ele>93.77</ele>
        <time>2021-05-09T07:44:29Z</time>
      </trkpt>
      <trkpt lat="49.18867" lon="0.79319">
        <ele>93.32</ele>
        <time>2021-05-09T07:44:30Z</time>
      </trkpt>
      <trkpt lat="49.18865" lon="0.79325">
        <ele>92.84</ele>
        <time>2021-05-09T07:44:31Z</time>
      </trkpt>
      <trkpt lat="49.18863" lon="0.79331">
        <ele>92.39</ele>
        <time>2021-05-09T07:44:32Z</time>
      </trkpt>
      <trkpt lat="49.1886" lon="0.79337">
        <ele>91.95</ele>
        <time>2021-05-09T07:44:33Z</time>
      </trkpt>
      <trkpt lat="49.18832" lon="0.79427">
        <ele>89.79</ele>
        <time>2021-05-09T07:44:44Z</time>
      </trkpt>
      <trkpt lat="49.18801" lon="0.79523">
        <ele>86.62</ele>
        <time>2021-05-09T07:44:52Z</time>
      </trkpt>
      <trkpt lat="49.18758" lon="0.79613">
        <ele>83.57</ele>
        <time>2021-05-09T07:45:01Z</time>
      </trkpt>
      <trkpt lat="49.18755" lon="0.7962">
        <ele>83.4</ele>
        <time>2021-05-09T07:45:02Z</time>
      </trkpt>
      <trkpt lat="49.18729" lon="0.79672">
        <ele>83.16</ele>
        <time>2021-05-09T07:45:08Z</time>
      </trkpt>
      <trkpt lat="49.18723" lon="0.79679">
        <ele>83.11</ele>
        <time>2021-05-09T07:45:09Z</time>
      </trkpt>
      <trkpt lat="49.18658" lon="0.79752">
        <ele>82.81</ele>
        <time>2021-05-09T07:45:20Z</time>
      </trkpt>
      <trkpt lat="49.18642" lon="0.79769">
        <ele>82.79</ele>
        <time>2021-05-09T07:45:23Z</time>
      </trkpt>
      <trkpt lat="49.18637" lon="0.79774">
        <ele>82.79</ele>
        <time>2021-05-09T07:45:24Z</time>
      </trkpt>
      <trkpt lat="49.18585" lon="0.79822">
        <ele>83.36</ele>
        <time>2021-05-09T07:45:33Z</time>
      </trkpt>
      <trkpt lat="49.18575" lon="0.79835">
        <ele>83.43</ele>
        <time>2021-05-09T07:45:35Z</time>
      </trkpt>
      <trkpt lat="49.1857" lon="0.79842">
        <ele>83.45</ele>
        <time>2021-05-09T07:45:36Z</time>
      </trkpt>
      <trkpt lat="49.18565" lon="0.79848">
        <ele>83.46</ele>
        <time>2021-05-09T07:45:37Z</time>
      </trkpt>
      <trkpt lat="49.18559" lon="0.79854">
        <ele>83.46</ele>
        <time>2021-05-09T07:45:38Z</time>
      </trkpt>
      <trkpt lat="49.18554" lon="0.7986">
        <ele>83.44</ele>
        <time>2021-05-09T07:45:39Z</time>
      </trkpt>
      <trkpt lat="49.18545" lon="0.7987">
        <ele>83.36</ele>
        <time>2021-05-09T07:45:41Z</time>
      </trkpt>
      <trkpt lat="49.1854" lon="0.79876">
        <ele>83.35</ele>
        <time>2021-05-09T07:45:42Z</time>
      </trkpt>
      <trkpt lat="49.18536" lon="0.79883">
        <ele>83.32</ele>
        <time>2021-05-09T07:45:43Z</time>
      </trkpt>
      <trkpt lat="49.18532" lon="0.7989">
        <ele>83.25</ele>
        <time>2021-05-09T07:45:44Z</time>
      </trkpt>
      <trkpt lat="49.18529" lon="0.79897">
        <ele>83.22</ele>
        <time>2021-05-09T07:45:45Z</time>
      </trkpt>
      <trkpt lat="49.18526" lon="0.79905">
        <ele>83.2</ele>
        <time>2021-05-09T07:45:46Z</time>
      </trkpt>
      <trkpt lat="49.18478" lon="0.80006">
        <ele>82.66</ele>
        <time>2021-05-09T07:45:57Z</time>
      </trkpt>
      <trkpt lat="49.18453" lon="0.80051">
        <ele>82.73</ele>
        <time>2021-05-09T07:46:03Z</time>
      </trkpt>
      <trkpt lat="49.18416" lon="0.80074">
        <ele>83.45</ele>
        <time>2021-05-09T07:46:12Z</time>
      </trkpt>
      <trkpt lat="49.1841" lon="0.80066">
        <ele>83.63</ele>
        <time>2021-05-09T07:46:14Z</time>
      </trkpt>
      <trkpt lat="49.18399" lon="0.80023">
        <ele>83.92</ele>
        <time>2021-05-09T07:46:20Z</time>
      </trkpt>
      <trkpt lat="49.18372" lon="0.79946">
        <ele>84.99</ele>
        <time>2021-05-09T07:46:30Z</time>
      </trkpt>
      <trkpt lat="49.18352" lon="0.79907">
        <ele>85.62</ele>
        <time>2021-05-09T07:46:36Z</time>
      </trkpt>
      <trkpt lat="49.18343" lon="0.79891">
        <ele>86.26</ele>
        <time>2021-05-09T07:46:40Z</time>
      </trkpt>
      <trkpt lat="49.1833" lon="0.79884">
        <ele>86.45</ele>
        <time>2021-05-09T07:46:42Z</time>
      </trkpt>
      <trkpt lat="49.18311" lon="0.79878">
        <ele>86.57</ele>
        <time>2021-05-09T07:46:44Z</time>
      </trkpt>
      <trkpt lat="49.18306" lon="0.79878">
        <ele>86.64</ele>
        <time>2021-05-09T07:46:45Z</time>
      </trkpt>
      <trkpt lat="49.18302" lon="0.79877">
        <ele>86.71</ele>
        <time>2021-05-09T07:46:46Z</time>
      </trkpt>
      <trkpt lat="49.18298" lon="0.79876">
        <ele>86.75</ele>
        <time>2021-05-09T07:46:47Z</time>
      </trkpt>
      <trkpt lat="49.18296" lon="0.79876">
        <ele>86.8</ele>
        <time>2021-05-09T07:46:48Z</time>
      </trkpt>
      <trkpt lat="49.18294" lon="0.79874">
        <ele>87.1</ele>
        <time>2021-05-09T07:46:50Z</time>
      </trkpt>
      <trkpt lat="49.18289" lon="0.79858">
        <ele>89.19</ele>
        <time>2021-05-09T07:46:57Z</time>
      </trkpt>
      <trkpt lat="49.18287" lon="0.79856">
        <ele>89.36</ele>
        <time>2021-05-09T07:46:58Z</time>
      </trkpt>
      <trkpt lat="49.18283" lon="0.79856">
        <ele>89.46</ele>
        <time>2021-05-09T07:46:59Z</time>
      </trkpt>
      <trkpt lat="49.1828" lon="0.79856">
        <ele>89.5</ele>
        <time>2021-05-09T07:47:00Z</time>
      </trkpt>
      <trkpt lat="49.18275" lon="0.79856">
        <ele>89.52</ele>
        <time>2021-05-09T07:47:01Z</time>
      </trkpt>
      <trkpt lat="49.18271" lon="0.79855">
        <ele>89.53</ele>
        <time>2021-05-09T07:47:02Z</time>
      </trkpt>
      <trkpt lat="49.18267" lon="0.79855">
        <ele>89.54</ele>
        <time>2021-05-09T07:47:03Z</time>
      </trkpt>
      <trkpt lat="49.18258" lon="0.79854">
        <ele>89.54</ele>
        <time>2021-05-09T07:47:05Z</time>
      </trkpt>
      <trkpt lat="49.18252" lon="0.79853">
        <ele>89.54</ele>
        <time>2021-05-09T07:47:06Z</time>
      </trkpt>
      <trkpt lat="49.18247" lon="0.79852">
        <ele>89.54</ele>
        <time>2021-05-09T07:47:07Z</time>
      </trkpt>
      <trkpt lat="49.18241" lon="0.79852">
        <ele>89.42</ele>
        <time>2021-05-09T07:47:08Z</time>
      </trkpt>
      <trkpt lat="49.18236" lon="0.79854">
        <ele>89.21</ele>
        <time>2021-05-09T07:47:09Z</time>
      </trkpt>
      <trkpt lat="49.18231" lon="0.79854">
        <ele>88.8</ele>
        <time>2021-05-09T07:47:10Z</time>
      </trkpt>
      <trkpt lat="49.18225" lon="0.79855">
        <ele>88.52</ele>
        <time>2021-05-09T07:47:11Z</time>
      </trkpt>
      <trkpt lat="49.18216" lon="0.79857">
        <ele>87.71</ele>
        <time>2021-05-09T07:47:12Z</time>
      </trkpt>
      <trkpt lat="49.18204" lon="0.7986">
        <ele>86.87</ele>
        <time>2021-05-09T07:47:14Z</time>
      </trkpt>
      <trkpt lat="49.18197" lon="0.79863">
        <ele>86.6</ele>
        <time>2021-05-09T07:47:15Z</time>
      </trkpt>
      <trkpt lat="49.18184" lon="0.79868">
        <ele>86.39</ele>
        <time>2021-05-09T07:47:17Z</time>
      </trkpt>
      <trkpt lat="49.18179" lon="0.7987">
        <ele>86.35</ele>
        <time>2021-05-09T07:47:18Z</time>
      </trkpt>
      <trkpt lat="49.18129" lon="0.79887">
        <ele>86.57</ele>
        <time>2021-05-09T07:47:27Z</time>
      </trkpt>
      <trkpt lat="49.18088" lon="0.79911">
        <ele>87.26</ele>
        <time>2021-05-09T07:47:37Z</time>
      </trkpt>
      <trkpt lat="49.18083" lon="0.79916">
        <ele>87.38</ele>
        <time>2021-05-09T07:47:38Z</time>
      </trkpt>
      <trkpt lat="49.18045" lon="0.79956">
        <ele>87.92</ele>
        <time>2021-05-09T07:47:47Z</time>
      </trkpt>
      <trkpt lat="49.18015" lon="0.79984">
        <ele>88.46</ele>
        <time>2021-05-09T07:47:53Z</time>
      </trkpt>
      <trkpt lat="49.18011" lon="0.79989">
        <ele>88.52</ele>
        <time>2021-05-09T07:47:54Z</time>
      </trkpt>
      <trkpt lat="49.18006" lon="0.79994">
        <ele>88.56</ele>
        <time>2021-05-09T07:47:55Z</time>
      </trkpt>
      <trkpt lat="49.18002" lon="0.79998">
        <ele>88.61</ele>
        <time>2021-05-09T07:47:56Z</time>
      </trkpt>
      <trkpt lat="49.17997" lon="0.80003">
        <ele>88.66</ele>
        <time>2021-05-09T07:47:57Z</time>
      </trkpt>
      <trkpt lat="49.17975" lon="0.80031">
        <ele>89</ele>
        <time>2021-05-09T07:48:02Z</time>
      </trkpt>
      <trkpt lat="49.1797" lon="0.80038">
        <ele>89.05</ele>
        <time>2021-05-09T07:48:03Z</time>
      </trkpt>
      <trkpt lat="49.17965" lon="0.80044">
        <ele>89.09</ele>
        <time>2021-05-09T07:48:04Z</time>
      </trkpt>
      <trkpt lat="49.17908" lon="0.80114">
        <ele>90.07</ele>
        <time>2021-05-09T07:48:17Z</time>
      </trkpt>
      <trkpt lat="49.17862" lon="0.80183">
        <ele>90.67</ele>
        <time>2021-05-09T07:48:28Z</time>
      </trkpt>
      <trkpt lat="49.17853" lon="0.80198">
        <ele>90.61</ele>
        <time>2021-05-09T07:48:30Z</time>
      </trkpt>
      <trkpt lat="49.17849" lon="0.80205">
        <ele>90.61</ele>
        <time>2021-05-09T07:48:31Z</time>
      </trkpt>
      <trkpt lat="49.17842" lon="0.80219">
        <ele>90.59</ele>
        <time>2021-05-09T07:48:33Z</time>
      </trkpt>
      <trkpt lat="49.17838" lon="0.80226">
        <ele>90.56</ele>
        <time>2021-05-09T07:48:34Z</time>
      </trkpt>
      <trkpt lat="49.17834" lon="0.80233">
        <ele>90.55</ele>
        <time>2021-05-09T07:48:35Z</time>
      </trkpt>
      <trkpt lat="49.17831" lon="0.80239">
        <ele>90.54</ele>
        <time>2021-05-09T07:48:36Z</time>
      </trkpt>
      <trkpt lat="49.17827" lon="0.80245">
        <ele>90.52</ele>
        <time>2021-05-09T07:48:37Z</time>
      </trkpt>
      <trkpt lat="49.17816" lon="0.80266">
        <ele>90.52</ele>
        <time>2021-05-09T07:48:42Z</time>
      </trkpt>
      <trkpt lat="49.17816" lon="0.80271">
        <ele>90.52</ele>
        <time>2021-05-09T07:48:43Z</time>
      </trkpt>
      <trkpt lat="49.17817" lon="0.80276">
        <ele>90.52</ele>
        <time>2021-05-09T07:48:44Z</time>
      </trkpt>
      <trkpt lat="49.17838" lon="0.80329">
        <ele>92.4</ele>
        <time>2021-05-09T07:48:57Z</time>
      </trkpt>
      <trkpt lat="49.17861" lon="0.80378">
        <ele>94.13</ele>
        <time>2021-05-09T07:49:11Z</time>
      </trkpt>
      <trkpt lat="49.17866" lon="0.80427">
        <ele>94.14</ele>
        <time>2021-05-09T07:49:21Z</time>
      </trkpt>
      <trkpt lat="49.17866" lon="0.80434">
        <ele>94.13</ele>
        <time>2021-05-09T07:49:22Z</time>
      </trkpt>
      <trkpt lat="49.17866" lon="0.80442">
        <ele>94.11</ele>
        <time>2021-05-09T07:49:23Z</time>
      </trkpt>
      <trkpt lat="49.17867" lon="0.8045">
        <ele>94.1</ele>
        <time>2021-05-09T07:49:24Z</time>
      </trkpt>
      <trkpt lat="49.17871" lon="0.80484">
        <ele>93.68</ele>
        <time>2021-05-09T07:49:28Z</time>
      </trkpt>
      <trkpt lat="49.17872" lon="0.80521">
        <ele>92.38</ele>
        <time>2021-05-09T07:49:33Z</time>
      </trkpt>
      <trkpt lat="49.17871" lon="0.80538">
        <ele>91.73</ele>
        <time>2021-05-09T07:49:35Z</time>
      </trkpt>
      <trkpt lat="49.17871" lon="0.80548">
        <ele>91.54</ele>
        <time>2021-05-09T07:49:36Z</time>
      </trkpt>
      <trkpt lat="49.1787" lon="0.80555">
        <ele>91.25</ele>
        <time>2021-05-09T07:49:37Z</time>
      </trkpt>
      <trkpt lat="49.17871" lon="0.80573">
        <ele>90.99</ele>
        <time>2021-05-09T07:49:39Z</time>
      </trkpt>
      <trkpt lat="49.17872" lon="0.80603">
        <ele>90.76</ele>
        <time>2021-05-09T07:49:42Z</time>
      </trkpt>
      <trkpt lat="49.17873" lon="0.80622">
        <ele>90.66</ele>
        <time>2021-05-09T07:49:44Z</time>
      </trkpt>
      <trkpt lat="49.17875" lon="0.80634">
        <ele>90.62</ele>
        <time>2021-05-09T07:49:45Z</time>
      </trkpt>
      <trkpt lat="49.17878" lon="0.80646">
        <ele>90.6</ele>
        <time>2021-05-09T07:49:46Z</time>
      </trkpt>
      <trkpt lat="49.17884" lon="0.80684">
        <ele>90.39</ele>
        <time>2021-05-09T07:49:50Z</time>
      </trkpt>
      <trkpt lat="49.17886" lon="0.80694">
        <ele>90.38</ele>
        <time>2021-05-09T07:49:51Z</time>
      </trkpt>
      <trkpt lat="49.17887" lon="0.80703">
        <ele>90.38</ele>
        <time>2021-05-09T07:49:52Z</time>
      </trkpt>
      <trkpt lat="49.17887" lon="0.80734">
        <ele>90.37</ele>
        <time>2021-05-09T07:49:55Z</time>
      </trkpt>
      <trkpt lat="49.1789" lon="0.80809">
        <ele>90.69</ele>
        <time>2021-05-09T07:50:03Z</time>
      </trkpt>
      <trkpt lat="49.1789" lon="0.80816">
        <ele>90.75</ele>
        <time>2021-05-09T07:50:04Z</time>
      </trkpt>
      <trkpt lat="49.17889" lon="0.80824">
        <ele>90.85</ele>
        <time>2021-05-09T07:50:05Z</time>
      </trkpt>
      <trkpt lat="49.1789" lon="0.80848">
        <ele>91.3</ele>
        <time>2021-05-09T07:50:08Z</time>
      </trkpt>
      <trkpt lat="49.17887" lon="0.80865">
        <ele>91.45</ele>
        <time>2021-05-09T07:50:10Z</time>
      </trkpt>
      <trkpt lat="49.17884" lon="0.80873">
        <ele>91.47</ele>
        <time>2021-05-09T07:50:11Z</time>
      </trkpt>
      <trkpt lat="49.1788" lon="0.80878">
        <ele>91.49</ele>
        <time>2021-05-09T07:50:12Z</time>
      </trkpt>
      <trkpt lat="49.17876" lon="0.80884">
        <ele>91.51</ele>
        <time>2021-05-09T07:50:13Z</time>
      </trkpt>
      <trkpt lat="49.17872" lon="0.80888">
        <ele>91.52</ele>
        <time>2021-05-09T07:50:14Z</time>
      </trkpt>
      <trkpt lat="49.17868" lon="0.80892">
        <ele>91.56</ele>
        <time>2021-05-09T07:50:15Z</time>
      </trkpt>
      <trkpt lat="49.17832" lon="0.80928">
        <ele>91.89</ele>
        <time>2021-05-09T07:50:22Z</time>
      </trkpt>
      <trkpt lat="49.17827" lon="0.8093">
        <ele>91.9</ele>
        <time>2021-05-09T07:50:23Z</time>
      </trkpt>
      <trkpt lat="49.17822" lon="0.8093">
        <ele>91.94</ele>
        <time>2021-05-09T07:50:24Z</time>
      </trkpt>
      <trkpt lat="49.17817" lon="0.8093">
        <ele>91.97</ele>
        <time>2021-05-09T07:50:25Z</time>
      </trkpt>
      <trkpt lat="49.17811" lon="0.8093">
        <ele>91.97</ele>
        <time>2021-05-09T07:50:26Z</time>
      </trkpt>
      <trkpt lat="49.17804" lon="0.80932">
        <ele>91.98</ele>
        <time>2021-05-09T07:50:27Z</time>
      </trkpt>
      <trkpt lat="49.1778" lon="0.80934">
        <ele>91.98</ele>
        <time>2021-05-09T07:50:30Z</time>
      </trkpt>
      <trkpt lat="49.1776" lon="0.80939">
        <ele>91.76</ele>
        <time>2021-05-09T07:50:33Z</time>
      </trkpt>
      <trkpt lat="49.17753" lon="0.8094">
        <ele>91.68</ele>
        <time>2021-05-09T07:50:34Z</time>
      </trkpt>
      <trkpt lat="49.17747" lon="0.8094">
        <ele>91.64</ele>
        <time>2021-05-09T07:50:35Z</time>
      </trkpt>
      <trkpt lat="49.17711" lon="0.80936">
        <ele>91.47</ele>
        <time>2021-05-09T07:50:43Z</time>
      </trkpt>
      <trkpt lat="49.17696" lon="0.80933">
        <ele>91.45</ele>
        <time>2021-05-09T07:50:46Z</time>
      </trkpt>
      <trkpt lat="49.17692" lon="0.80931">
        <ele>91.45</ele>
        <time>2021-05-09T07:50:47Z</time>
      </trkpt>
      <trkpt lat="49.17687" lon="0.80931">
        <ele>91.45</ele>
        <time>2021-05-09T07:50:48Z</time>
      </trkpt>
      <trkpt lat="49.17683" lon="0.80931">
        <ele>91.45</ele>
        <time>2021-05-09T07:50:49Z</time>
      </trkpt>
      <trkpt lat="49.17678" lon="0.80931">
        <ele>91.45</ele>
        <time>2021-05-09T07:50:50Z</time>
      </trkpt>
      <trkpt lat="49.17672" lon="0.80931">
        <ele>91.46</ele>
        <time>2021-05-09T07:50:51Z</time>
      </trkpt>
      <trkpt lat="49.17667" lon="0.80931">
        <ele>91.46</ele>
        <time>2021-05-09T07:50:52Z</time>
      </trkpt>
      <trkpt lat="49.17662" lon="0.80933">
        <ele>91.46</ele>
        <time>2021-05-09T07:50:53Z</time>
      </trkpt>
      <trkpt lat="49.17656" lon="0.80934">
        <ele>91.46</ele>
        <time>2021-05-09T07:50:54Z</time>
      </trkpt>
      <trkpt lat="49.1765" lon="0.80937">
        <ele>91.46</ele>
        <time>2021-05-09T07:50:55Z</time>
      </trkpt>
      <trkpt lat="49.17636" lon="0.80945">
        <ele>91.46</ele>
        <time>2021-05-09T07:50:58Z</time>
      </trkpt>
      <trkpt lat="49.17631" lon="0.80949">
        <ele>91.52</ele>
        <time>2021-05-09T07:50:59Z</time>
      </trkpt>
      <trkpt lat="49.17627" lon="0.80954">
        <ele>91.56</ele>
        <time>2021-05-09T07:51:00Z</time>
      </trkpt>
      <trkpt lat="49.17605" lon="0.80976">
        <ele>92.26</ele>
        <time>2021-05-09T07:51:04Z</time>
      </trkpt>
      <trkpt lat="49.17593" lon="0.80977">
        <ele>92.33</ele>
        <time>2021-05-09T07:51:05Z</time>
      </trkpt>
      <trkpt lat="49.17572" lon="0.81011">
        <ele>92.56</ele>
        <time>2021-05-09T07:51:10Z</time>
      </trkpt>
      <trkpt lat="49.17571" lon="0.8102">
        <ele>92.56</ele>
        <time>2021-05-09T07:51:11Z</time>
      </trkpt>
      <trkpt lat="49.17568" lon="0.81029">
        <ele>92.57</ele>
        <time>2021-05-09T07:51:12Z</time>
      </trkpt>
      <trkpt lat="49.17549" lon="0.8108">
        <ele>92.57</ele>
        <time>2021-05-09T07:51:18Z</time>
      </trkpt>
      <trkpt lat="49.17541" lon="0.81095">
        <ele>92.37</ele>
        <time>2021-05-09T07:51:20Z</time>
      </trkpt>
      <trkpt lat="49.1751" lon="0.81156">
        <ele>92.22</ele>
        <time>2021-05-09T07:51:29Z</time>
      </trkpt>
      <trkpt lat="49.17507" lon="0.81165">
        <ele>92.24</ele>
        <time>2021-05-09T07:51:30Z</time>
      </trkpt>
      <trkpt lat="49.17503" lon="0.81172">
        <ele>92.26</ele>
        <time>2021-05-09T07:51:31Z</time>
      </trkpt>
      <trkpt lat="49.17481" lon="0.81209">
        <ele>92.89</ele>
        <time>2021-05-09T07:51:37Z</time>
      </trkpt>
      <trkpt lat="49.17478" lon="0.81218">
        <ele>92.98</ele>
        <time>2021-05-09T07:51:38Z</time>
      </trkpt>
      <trkpt lat="49.17475" lon="0.81227">
        <ele>93.07</ele>
        <time>2021-05-09T07:51:39Z</time>
      </trkpt>
      <trkpt lat="49.17473" lon="0.81234">
        <ele>93.12</ele>
        <time>2021-05-09T07:51:40Z</time>
      </trkpt>
      <trkpt lat="49.17472" lon="0.81241">
        <ele>93.29</ele>
        <time>2021-05-09T07:51:41Z</time>
      </trkpt>
      <trkpt lat="49.17471" lon="0.81248">
        <ele>93.35</ele>
        <time>2021-05-09T07:51:42Z</time>
      </trkpt>
      <trkpt lat="49.1747" lon="0.81255">
        <ele>93.4</ele>
        <time>2021-05-09T07:51:43Z</time>
      </trkpt>
      <trkpt lat="49.17469" lon="0.81261">
        <ele>93.44</ele>
        <time>2021-05-09T07:51:44Z</time>
      </trkpt>
      <trkpt lat="49.17468" lon="0.81267">
        <ele>93.47</ele>
        <time>2021-05-09T07:51:45Z</time>
      </trkpt>
      <trkpt lat="49.17468" lon="0.81275">
        <ele>93.53</ele>
        <time>2021-05-09T07:51:46Z</time>
      </trkpt>
      <trkpt lat="49.17469" lon="0.81283">
        <ele>93.57</ele>
        <time>2021-05-09T07:51:47Z</time>
      </trkpt>
      <trkpt lat="49.17469" lon="0.81291">
        <ele>93.68</ele>
        <time>2021-05-09T07:51:48Z</time>
      </trkpt>
      <trkpt lat="49.1747" lon="0.81299">
        <ele>93.77</ele>
        <time>2021-05-09T07:51:49Z</time>
      </trkpt>
      <trkpt lat="49.17473" lon="0.81316">
        <ele>93.86</ele>
        <time>2021-05-09T07:51:51Z</time>
      </trkpt>
      <trkpt lat="49.17475" lon="0.81323">
        <ele>93.88</ele>
        <time>2021-05-09T07:51:52Z</time>
      </trkpt>
      <trkpt lat="49.17477" lon="0.81329">
        <ele>93.92</ele>
        <time>2021-05-09T07:51:53Z</time>
      </trkpt>
      <trkpt lat="49.17484" lon="0.81354">
        <ele>94.07</ele>
        <time>2021-05-09T07:51:56Z</time>
      </trkpt>
      <trkpt lat="49.17489" lon="0.81368">
        <ele>94.18</ele>
        <time>2021-05-09T07:51:58Z</time>
      </trkpt>
      <trkpt lat="49.17492" lon="0.81375">
        <ele>94.24</ele>
        <time>2021-05-09T07:51:59Z</time>
      </trkpt>
      <trkpt lat="49.17495" lon="0.8138">
        <ele>94.28</ele>
        <time>2021-05-09T07:52:00Z</time>
      </trkpt>
      <trkpt lat="49.175" lon="0.81387">
        <ele>94.3</ele>
        <time>2021-05-09T07:52:01Z</time>
      </trkpt>
      <trkpt lat="49.17504" lon="0.81393">
        <ele>94.31</ele>
        <time>2021-05-09T07:52:02Z</time>
      </trkpt>
      <trkpt lat="49.17513" lon="0.81404">
        <ele>94.36</ele>
        <time>2021-05-09T07:52:04Z</time>
      </trkpt>
      <trkpt lat="49.17517" lon="0.81409">
        <ele>94.38</ele>
        <time>2021-05-09T07:52:05Z</time>
      </trkpt>
      <trkpt lat="49.17521" lon="0.81414">
        <ele>94.5</ele>
        <time>2021-05-09T07:52:06Z</time>
      </trkpt>
      <trkpt lat="49.17524" lon="0.81419">
        <ele>94.54</ele>
        <time>2021-05-09T07:52:07Z</time>
      </trkpt>
      <trkpt lat="49.17528" lon="0.81423">
        <ele>94.57</ele>
        <time>2021-05-09T07:52:08Z</time>
      </trkpt>
      <trkpt lat="49.17532" lon="0.81428">
        <ele>94.61</ele>
        <time>2021-05-09T07:52:09Z</time>
      </trkpt>
      <trkpt lat="49.17537" lon="0.81432">
        <ele>94.63</ele>
        <time>2021-05-09T07:52:10Z</time>
      </trkpt>
      <trkpt lat="49.17541" lon="0.81436">
        <ele>94.66</ele>
        <time>2021-05-09T07:52:11Z</time>
      </trkpt>
      <trkpt lat="49.17545" lon="0.81439">
        <ele>94.68</ele>
        <time>2021-05-09T07:52:12Z</time>
      </trkpt>
      <trkpt lat="49.17549" lon="0.81443">
        <ele>94.7</ele>
        <time>2021-05-09T07:52:13Z</time>
      </trkpt>
      <trkpt lat="49.17552" lon="0.81448">
        <ele>94.71</ele>
        <time>2021-05-09T07:52:14Z</time>
      </trkpt>
      <trkpt lat="49.17556" lon="0.81453">
        <ele>94.92</ele>
        <time>2021-05-09T07:52:15Z</time>
      </trkpt>
      <trkpt lat="49.17561" lon="0.81458">
        <ele>95.18</ele>
        <time>2021-05-09T07:52:16Z</time>
      </trkpt>
      <trkpt lat="49.17565" lon="0.81463">
        <ele>95.5</ele>
        <time>2021-05-09T07:52:17Z</time>
      </trkpt>
      <trkpt lat="49.1757" lon="0.81468">
        <ele>95.7</ele>
        <time>2021-05-09T07:52:18Z</time>
      </trkpt>
      <trkpt lat="49.17574" lon="0.81473">
        <ele>95.79</ele>
        <time>2021-05-09T07:52:19Z</time>
      </trkpt>
      <trkpt lat="49.17579" lon="0.81478">
        <ele>95.84</ele>
        <time>2021-05-09T07:52:20Z</time>
      </trkpt>
      <trkpt lat="49.17619" lon="0.8153">
        <ele>96.06</ele>
        <time>2021-05-09T07:52:30Z</time>
      </trkpt>
      <trkpt lat="49.17621" lon="0.81536">
        <ele>95.97</ele>
        <time>2021-05-09T07:52:31Z</time>
      </trkpt>
      <trkpt lat="49.17622" lon="0.8155">
        <ele>95.86</ele>
        <time>2021-05-09T07:52:33Z</time>
      </trkpt>
      <trkpt lat="49.17627" lon="0.81597">
        <ele>95.95</ele>
        <time>2021-05-09T07:52:39Z</time>
      </trkpt>
      <trkpt lat="49.17625" lon="0.81605">
        <ele>95.98</ele>
        <time>2021-05-09T07:52:40Z</time>
      </trkpt>
      <trkpt lat="49.1762" lon="0.81619">
        <ele>96.01</ele>
        <time>2021-05-09T07:52:42Z</time>
      </trkpt>
      <trkpt lat="49.17616" lon="0.81625">
        <ele>96.01</ele>
        <time>2021-05-09T07:52:43Z</time>
      </trkpt>
      <trkpt lat="49.17612" lon="0.8163">
        <ele>96.01</ele>
        <time>2021-05-09T07:52:44Z</time>
      </trkpt>
      <trkpt lat="49.17609" lon="0.81635">
        <ele>95.98</ele>
        <time>2021-05-09T07:52:45Z</time>
      </trkpt>
      <trkpt lat="49.17605" lon="0.81639">
        <ele>95.97</ele>
        <time>2021-05-09T07:52:46Z</time>
      </trkpt>
      <trkpt lat="49.17591" lon="0.81653">
        <ele>95.92</ele>
        <time>2021-05-09T07:52:49Z</time>
      </trkpt>
      <trkpt lat="49.17585" lon="0.81658">
        <ele>95.93</ele>
        <time>2021-05-09T07:52:50Z</time>
      </trkpt>
      <trkpt lat="49.1756" lon="0.81693">
        <ele>95.86</ele>
        <time>2021-05-09T07:52:56Z</time>
      </trkpt>
      <trkpt lat="49.17557" lon="0.81699">
        <ele>95.86</ele>
        <time>2021-05-09T07:52:57Z</time>
      </trkpt>
      <trkpt lat="49.17553" lon="0.81705">
        <ele>95.86</ele>
        <time>2021-05-09T07:52:58Z</time>
      </trkpt>
      <trkpt lat="49.1754" lon="0.81727">
        <ele>96.12</ele>
        <time>2021-05-09T07:53:02Z</time>
      </trkpt>
      <trkpt lat="49.17514" lon="0.81752">
        <ele>96.98</ele>
        <time>2021-05-09T07:53:09Z</time>
      </trkpt>
      <trkpt lat="49.175" lon="0.81764">
        <ele>97.14</ele>
        <time>2021-05-09T07:53:12Z</time>
      </trkpt>
      <trkpt lat="49.17495" lon="0.81767">
        <ele>97.2</ele>
        <time>2021-05-09T07:53:13Z</time>
      </trkpt>
      <trkpt lat="49.17486" lon="0.81776">
        <ele>97.38</ele>
        <time>2021-05-09T07:53:15Z</time>
      </trkpt>
      <trkpt lat="49.17481" lon="0.8178">
        <ele>97.43</ele>
        <time>2021-05-09T07:53:16Z</time>
      </trkpt>
      <trkpt lat="49.17476" lon="0.81784">
        <ele>97.59</ele>
        <time>2021-05-09T07:53:17Z</time>
      </trkpt>
      <trkpt lat="49.17454" lon="0.81797">
        <ele>98.3</ele>
        <time>2021-05-09T07:53:22Z</time>
      </trkpt>
      <trkpt lat="49.17449" lon="0.81797">
        <ele>98.56</ele>
        <time>2021-05-09T07:53:23Z</time>
      </trkpt>
      <trkpt lat="49.1743" lon="0.81795">
        <ele>99.2</ele>
        <time>2021-05-09T07:53:27Z</time>
      </trkpt>
      <trkpt lat="49.17425" lon="0.81795">
        <ele>99.3</ele>
        <time>2021-05-09T07:53:28Z</time>
      </trkpt>
      <trkpt lat="49.17408" lon="0.81799">
        <ele>99.46</ele>
        <time>2021-05-09T07:53:31Z</time>
      </trkpt>
      <trkpt lat="49.17394" lon="0.81799">
        <ele>99.55</ele>
        <time>2021-05-09T07:53:36Z</time>
      </trkpt>
      <trkpt lat="49.17393" lon="0.81796">
        <ele>99.57</ele>
        <time>2021-05-09T07:53:37Z</time>
      </trkpt>
      <trkpt lat="49.17392" lon="0.81783">
        <ele>99.66</ele>
        <time>2021-05-09T07:53:42Z</time>
      </trkpt>
      <trkpt lat="49.17374" lon="0.81797">
        <ele>102.18</ele>
        <time>2021-05-09T07:53:56Z</time>
      </trkpt>
      <trkpt lat="49.17367" lon="0.81788">
        <ele>102.32</ele>
        <time>2021-05-09T07:53:59Z</time>
      </trkpt>
      <trkpt lat="49.17365" lon="0.81787">
        <ele>102.35</ele>
        <time>2021-05-09T07:54:00Z</time>
      </trkpt>
      <trkpt lat="49.17361" lon="0.81788">
        <ele>102.37</ele>
        <time>2021-05-09T07:54:01Z</time>
      </trkpt>
      <trkpt lat="49.17358" lon="0.8179">
        <ele>102.38</ele>
        <time>2021-05-09T07:54:02Z</time>
      </trkpt>
      <trkpt lat="49.17353" lon="0.81794">
        <ele>102.38</ele>
        <time>2021-05-09T07:54:03Z</time>
      </trkpt>
      <trkpt lat="49.17349" lon="0.81798">
        <ele>102.38</ele>
        <time>2021-05-09T07:54:04Z</time>
      </trkpt>
      <trkpt lat="49.17346" lon="0.81803">
        <ele>102.38</ele>
        <time>2021-05-09T07:54:05Z</time>
      </trkpt>
      <trkpt lat="49.17343" lon="0.81808">
        <ele>102.38</ele>
        <time>2021-05-09T07:54:06Z</time>
      </trkpt>
      <trkpt lat="49.17341" lon="0.81814">
        <ele>102.35</ele>
        <time>2021-05-09T07:54:07Z</time>
      </trkpt>
      <trkpt lat="49.17338" lon="0.81821">
        <ele>102.35</ele>
        <time>2021-05-09T07:54:08Z</time>
      </trkpt>
      <trkpt lat="49.17336" lon="0.81827">
        <ele>102.25</ele>
        <time>2021-05-09T07:54:09Z</time>
      </trkpt>
      <trkpt lat="49.17321" lon="0.81862">
        <ele>101.29</ele>
        <time>2021-05-09T07:54:15Z</time>
      </trkpt>
      <trkpt lat="49.17304" lon="0.81889">
        <ele>100.93</ele>
        <time>2021-05-09T07:54:20Z</time>
      </trkpt>
      <trkpt lat="49.17292" lon="0.81902">
        <ele>100.83</ele>
        <time>2021-05-09T07:54:23Z</time>
      </trkpt>
      <trkpt lat="49.17287" lon="0.81906">
        <ele>100.79</ele>
        <time>2021-05-09T07:54:24Z</time>
      </trkpt>
      <trkpt lat="49.17253" lon="0.81926">
        <ele>100.59</ele>
        <time>2021-05-09T07:54:34Z</time>
      </trkpt>
      <trkpt lat="49.17218" lon="0.81943">
        <ele>101.3</ele>
        <time>2021-05-09T07:54:44Z</time>
      </trkpt>
      <trkpt lat="49.17209" lon="0.81944">
        <ele>101.56</ele>
        <time>2021-05-09T07:54:46Z</time>
      </trkpt>
      <trkpt lat="49.17207" lon="0.81941">
        <ele>101.65</ele>
        <time>2021-05-09T07:54:47Z</time>
      </trkpt>
      <trkpt lat="49.17205" lon="0.81937">
        <ele>101.73</ele>
        <time>2021-05-09T07:54:48Z</time>
      </trkpt>
      <trkpt lat="49.17203" lon="0.81934">
        <ele>101.88</ele>
        <time>2021-05-09T07:54:49Z</time>
      </trkpt>
      <trkpt lat="49.17201" lon="0.81931">
        <ele>101.99</ele>
        <time>2021-05-09T07:54:50Z</time>
      </trkpt>
      <trkpt lat="49.17198" lon="0.81928">
        <ele>102.04</ele>
        <time>2021-05-09T07:54:51Z</time>
      </trkpt>
      <trkpt lat="49.17192" lon="0.81925">
        <ele>102.07</ele>
        <time>2021-05-09T07:54:52Z</time>
      </trkpt>
      <trkpt lat="49.17187" lon="0.81922">
        <ele>102.09</ele>
        <time>2021-05-09T07:54:53Z</time>
      </trkpt>
      <trkpt lat="49.17182" lon="0.81921">
        <ele>102.1</ele>
        <time>2021-05-09T07:54:54Z</time>
      </trkpt>
      <trkpt lat="49.17178" lon="0.8192">
        <ele>102.1</ele>
        <time>2021-05-09T07:54:55Z</time>
      </trkpt>
      <trkpt lat="49.17174" lon="0.81919">
        <ele>102.1</ele>
        <time>2021-05-09T07:54:56Z</time>
      </trkpt>
      <trkpt lat="49.17169" lon="0.8192">
        <ele>102.1</ele>
        <time>2021-05-09T07:54:57Z</time>
      </trkpt>
      <trkpt lat="49.17163" lon="0.81921">
        <ele>102.1</ele>
        <time>2021-05-09T07:54:58Z</time>
      </trkpt>
      <trkpt lat="49.17158" lon="0.81922">
        <ele>102.11</ele>
        <time>2021-05-09T07:54:59Z</time>
      </trkpt>
      <trkpt lat="49.1711" lon="0.8193">
        <ele>102.66</ele>
        <time>2021-05-09T07:55:11Z</time>
      </trkpt>
      <trkpt lat="49.17084" lon="0.81934">
        <ele>106.2</ele>
        <time>2021-05-09T07:55:19Z</time>
      </trkpt>
      <trkpt lat="49.17081" lon="0.81935">
        <ele>106.2</ele>
        <time>2021-05-09T07:55:20Z</time>
      </trkpt>
      <trkpt lat="49.17055" lon="0.81938">
        <ele>109.22</ele>
        <time>2021-05-09T07:55:26Z</time>
      </trkpt>
      <trkpt lat="49.17026" lon="0.81942">
        <ele>112.28</ele>
        <time>2021-05-09T07:55:37Z</time>
      </trkpt>
      <trkpt lat="49.16989" lon="0.81942">
        <ele>115.43</ele>
        <time>2021-05-09T07:55:49Z</time>
      </trkpt>
      <trkpt lat="49.16956" lon="0.81942">
        <ele>117.83</ele>
        <time>2021-05-09T07:56:01Z</time>
      </trkpt>
      <trkpt lat="49.16917" lon="0.8194">
        <ele>119.06</ele>
        <time>2021-05-09T07:56:13Z</time>
      </trkpt>
      <trkpt lat="49.16864" lon="0.81943">
        <ele>120.06</ele>
        <time>2021-05-09T07:56:27Z</time>
      </trkpt>
      <trkpt lat="49.16828" lon="0.81943">
        <ele>121.67</ele>
        <time>2021-05-09T07:56:37Z</time>
      </trkpt>
      <trkpt lat="49.16783" lon="0.81939">
        <ele>122.4</ele>
        <time>2021-05-09T07:56:46Z</time>
      </trkpt>
      <trkpt lat="49.16735" lon="0.81965">
        <ele>124.79</ele>
        <time>2021-05-09T07:56:58Z</time>
      </trkpt>
      <trkpt lat="49.16704" lon="0.82001">
        <ele>126.81</ele>
        <time>2021-05-09T07:57:11Z</time>
      </trkpt>
      <trkpt lat="49.16705" lon="0.82007">
        <ele>127.46</ele>
        <time>2021-05-09T07:57:17Z</time>
      </trkpt>
      <trkpt lat="49.16712" lon="0.81998">
        <ele>127.93</ele>
        <time>2021-05-09T07:57:21Z</time>
      </trkpt>
      <trkpt lat="49.16714" lon="0.81995">
        <ele>127.95</ele>
        <time>2021-05-09T07:57:22Z</time>
      </trkpt>
      <trkpt lat="49.16716" lon="0.81991">
        <ele>127.96</ele>
        <time>2021-05-09T07:57:23Z</time>
      </trkpt>
      <trkpt lat="49.1672" lon="0.81979">
        <ele>127.96</ele>
        <time>2021-05-09T07:57:26Z</time>
      </trkpt>
      <trkpt lat="49.16719" lon="0.81975">
        <ele>127.96</ele>
        <time>2021-05-09T07:57:27Z</time>
      </trkpt>
      <trkpt lat="49.16713" lon="0.81912">
        <ele>127.87</ele>
        <time>2021-05-09T07:57:39Z</time>
      </trkpt>
      <trkpt lat="49.16709" lon="0.81881">
        <ele>128.19</ele>
        <time>2021-05-09T07:57:43Z</time>
      </trkpt>
      <trkpt lat="49.16707" lon="0.81859">
        <ele>128.38</ele>
        <time>2021-05-09T07:57:46Z</time>
      </trkpt>
      <trkpt lat="49.16696" lon="0.81799">
        <ele>129.04</ele>
        <time>2021-05-09T07:57:54Z</time>
      </trkpt>
      <trkpt lat="49.16692" lon="0.81773">
        <ele>129.47</ele>
        <time>2021-05-09T07:57:58Z</time>
      </trkpt>
      <trkpt lat="49.16708" lon="0.81729">
        <ele>129.97</ele>
        <time>2021-05-09T07:58:05Z</time>
      </trkpt>
      <trkpt lat="49.16718" lon="0.81714">
        <ele>130.04</ele>
        <time>2021-05-09T07:58:08Z</time>
      </trkpt>
      <trkpt lat="49.16724" lon="0.81702">
        <ele>130.06</ele>
        <time>2021-05-09T07:58:10Z</time>
      </trkpt>
      <trkpt lat="49.16734" lon="0.81685">
        <ele>130.09</ele>
        <time>2021-05-09T07:58:13Z</time>
      </trkpt>
      <trkpt lat="49.16739" lon="0.81655">
        <ele>130.13</ele>
        <time>2021-05-09T07:58:17Z</time>
      </trkpt>
      <trkpt lat="49.16763" lon="0.81595">
        <ele>130.12</ele>
        <time>2021-05-09T07:58:28Z</time>
      </trkpt>
      <trkpt lat="49.1679" lon="0.81567">
        <ele>129.94</ele>
        <time>2021-05-09T07:58:36Z</time>
      </trkpt>
      <trkpt lat="49.16807" lon="0.81584">
        <ele>129.72</ele>
        <time>2021-05-09T07:58:41Z</time>
      </trkpt>
      <trkpt lat="49.16817" lon="0.81602">
        <ele>129.58</ele>
        <time>2021-05-09T07:58:44Z</time>
      </trkpt>
      <trkpt lat="49.16843" lon="0.81657">
        <ele>127.06</ele>
        <time>2021-05-09T07:58:52Z</time>
      </trkpt>
      <trkpt lat="49.16856" lon="0.81677">
        <ele>126.34</ele>
        <time>2021-05-09T07:58:55Z</time>
      </trkpt>
      <trkpt lat="49.16883" lon="0.81699">
        <ele>126.03</ele>
        <time>2021-05-09T07:59:00Z</time>
      </trkpt>
      <trkpt lat="49.16906" lon="0.81717">
        <ele>125.78</ele>
        <time>2021-05-09T07:59:04Z</time>
      </trkpt>
      <trkpt lat="49.16966" lon="0.81737">
        <ele>122.21</ele>
        <time>2021-05-09T07:59:12Z</time>
      </trkpt>
      <trkpt lat="49.17005" lon="0.81729">
        <ele>118.6</ele>
        <time>2021-05-09T07:59:16Z</time>
      </trkpt>
      <trkpt lat="49.17025" lon="0.81713">
        <ele>115.56</ele>
        <time>2021-05-09T07:59:19Z</time>
      </trkpt>
      <trkpt lat="49.17031" lon="0.81707">
        <ele>113.49</ele>
        <time>2021-05-09T07:59:21Z</time>
      </trkpt>
      <trkpt lat="49.17033" lon="0.81699">
        <ele>109.44</ele>
        <time>2021-05-09T07:59:26Z</time>
      </trkpt>
      <trkpt lat="49.17031" lon="0.81699">
        <ele>106.31</ele>
        <time>2021-05-09T07:59:30Z</time>
      </trkpt>
      <trkpt lat="49.17023" lon="0.81698">
        <ele>104.89</ele>
        <time>2021-05-09T07:59:39Z</time>
      </trkpt>
      <trkpt lat="49.17005" lon="0.81691">
        <ele>104.32</ele>
        <time>2021-05-09T07:59:44Z</time>
      </trkpt>
      <trkpt lat="49.17002" lon="0.81672">
        <ele>104.05</ele>
        <time>2021-05-09T07:59:48Z</time>
      </trkpt>
      <trkpt lat="49.17002" lon="0.81657">
        <ele>103.83</ele>
        <time>2021-05-09T07:59:52Z</time>
      </trkpt>
      <trkpt lat="49.16976" lon="0.81644">
        <ele>104.06</ele>
        <time>2021-05-09T08:00:00Z</time>
      </trkpt>
      <trkpt lat="49.16958" lon="0.81626">
        <ele>104.39</ele>
        <time>2021-05-09T08:00:05Z</time>
      </trkpt>
      <trkpt lat="49.16938" lon="0.81603">
        <ele>104.58</ele>
        <time>2021-05-09T08:00:09Z</time>
      </trkpt>
      <trkpt lat="49.16919" lon="0.81588">
        <ele>104.74</ele>
        <time>2021-05-09T08:00:15Z</time>
      </trkpt>
      <trkpt lat="49.16896" lon="0.81542">
        <ele>105.11</ele>
        <time>2021-05-09T08:00:26Z</time>
      </trkpt>
      <trkpt lat="49.1686" lon="0.81508">
        <ele>105.69</ele>
        <time>2021-05-09T08:00:36Z</time>
      </trkpt>
      <trkpt lat="49.16841" lon="0.81496">
        <ele>105.97</ele>
        <time>2021-05-09T08:00:45Z</time>
      </trkpt>
      <trkpt lat="49.1684" lon="0.81495">
        <ele>106.08</ele>
        <time>2021-05-09T08:00:47Z</time>
      </trkpt>
      <trkpt lat="49.16826" lon="0.81504">
        <ele>106.18</ele>
        <time>2021-05-09T08:01:07Z</time>
      </trkpt>
      <trkpt lat="49.1682" lon="0.81505">
        <ele>106.22</ele>
        <time>2021-05-09T08:01:09Z</time>
      </trkpt>
      <trkpt lat="49.16782" lon="0.81515">
        <ele>106.43</ele>
        <time>2021-05-09T08:01:20Z</time>
      </trkpt>
      <trkpt lat="49.16738" lon="0.81532">
        <ele>106.99</ele>
        <time>2021-05-09T08:01:31Z</time>
      </trkpt>
      <trkpt lat="49.1673" lon="0.81536">
        <ele>107.33</ele>
        <time>2021-05-09T08:01:37Z</time>
      </trkpt>
      <trkpt lat="49.16723" lon="0.81544">
        <ele>107.65</ele>
        <time>2021-05-09T08:01:43Z</time>
      </trkpt>
      <trkpt lat="49.16717" lon="0.81546">
        <ele>107.75</ele>
        <time>2021-05-09T08:01:47Z</time>
      </trkpt>
      <trkpt lat="49.16686" lon="0.8156">
        <ele>107.76</ele>
        <time>2021-05-09T08:01:57Z</time>
      </trkpt>
      <trkpt lat="49.16656" lon="0.81564">
        <ele>107.82</ele>
        <time>2021-05-09T08:02:03Z</time>
      </trkpt>
      <trkpt lat="49.16624" lon="0.81548">
        <ele>108.03</ele>
        <time>2021-05-09T08:02:12Z</time>
      </trkpt>
      <trkpt lat="49.16604" lon="0.81518">
        <ele>108.2</ele>
        <time>2021-05-09T08:02:20Z</time>
      </trkpt>
      <trkpt lat="49.1659" lon="0.81521">
        <ele>108.35</ele>
        <time>2021-05-09T08:02:24Z</time>
      </trkpt>
      <trkpt lat="49.16551" lon="0.81555">
        <ele>109.79</ele>
        <time>2021-05-09T08:02:37Z</time>
      </trkpt>
      <trkpt lat="49.16541" lon="0.81564">
        <ele>110.05</ele>
        <time>2021-05-09T08:02:40Z</time>
      </trkpt>
      <trkpt lat="49.16532" lon="0.81571">
        <ele>110.12</ele>
        <time>2021-05-09T08:02:42Z</time>
      </trkpt>
      <trkpt lat="49.16502" lon="0.81608">
        <ele>110.64</ele>
        <time>2021-05-09T08:02:50Z</time>
      </trkpt>
      <trkpt lat="49.16495" lon="0.81626">
        <ele>110.72</ele>
        <time>2021-05-09T08:02:53Z</time>
      </trkpt>
      <trkpt lat="49.16489" lon="0.81637">
        <ele>110.83</ele>
        <time>2021-05-09T08:02:55Z</time>
      </trkpt>
      <trkpt lat="49.1648" lon="0.8168">
        <ele>111.46</ele>
        <time>2021-05-09T08:03:04Z</time>
      </trkpt>
      <trkpt lat="49.16478" lon="0.81694">
        <ele>112.03</ele>
        <time>2021-05-09T08:03:09Z</time>
      </trkpt>
      <trkpt lat="49.16465" lon="0.81717">
        <ele>112.4</ele>
        <time>2021-05-09T08:03:20Z</time>
      </trkpt>
      <trkpt lat="49.16451" lon="0.81755">
        <ele>112.54</ele>
        <time>2021-05-09T08:03:28Z</time>
      </trkpt>
      <trkpt lat="49.16446" lon="0.81774">
        <ele>112.62</ele>
        <time>2021-05-09T08:03:33Z</time>
      </trkpt>
      <trkpt lat="49.16429" lon="0.81789">
        <ele>112.82</ele>
        <time>2021-05-09T08:03:42Z</time>
      </trkpt>
      <trkpt lat="49.16428" lon="0.81793">
        <ele>112.98</ele>
        <time>2021-05-09T08:03:46Z</time>
      </trkpt>
      <trkpt lat="49.16426" lon="0.81798">
        <ele>113.06</ele>
        <time>2021-05-09T08:03:49Z</time>
      </trkpt>
      <trkpt lat="49.16402" lon="0.81828">
        <ele>113.21</ele>
        <time>2021-05-09T08:03:59Z</time>
      </trkpt>
      <trkpt lat="49.16361" lon="0.81861">
        <ele>113.25</ele>
        <time>2021-05-09T08:04:07Z</time>
      </trkpt>
      <trkpt lat="49.16341" lon="0.81883">
        <ele>113.11</ele>
        <time>2021-05-09T08:04:12Z</time>
      </trkpt>
      <trkpt lat="49.16296" lon="0.81952">
        <ele>113.09</ele>
        <time>2021-05-09T08:04:23Z</time>
      </trkpt>
      <trkpt lat="49.16283" lon="0.8197">
        <ele>113.61</ele>
        <time>2021-05-09T08:04:27Z</time>
      </trkpt>
      <trkpt lat="49.16259" lon="0.81978">
        <ele>114</ele>
        <time>2021-05-09T08:04:32Z</time>
      </trkpt>
      <trkpt lat="49.16235" lon="0.81967">
        <ele>115.09</ele>
        <time>2021-05-09T08:04:42Z</time>
      </trkpt>
      <trkpt lat="49.16219" lon="0.81987">
        <ele>116.35</ele>
        <time>2021-05-09T08:05:01Z</time>
      </trkpt>
      <trkpt lat="49.16214" lon="0.82005">
        <ele>116.92</ele>
        <time>2021-05-09T08:05:11Z</time>
      </trkpt>
      <trkpt lat="49.16214" lon="0.82013">
        <ele>117.99</ele>
        <time>2021-05-09T08:05:16Z</time>
      </trkpt>
      <trkpt lat="49.16218" lon="0.82034">
        <ele>121.26</ele>
        <time>2021-05-09T08:05:27Z</time>
      </trkpt>
      <trkpt lat="49.16222" lon="0.82041">
        <ele>122.81</ele>
        <time>2021-05-09T08:05:30Z</time>
      </trkpt>
      <trkpt lat="49.16227" lon="0.8207">
        <ele>125.86</ele>
        <time>2021-05-09T08:05:44Z</time>
      </trkpt>
      <trkpt lat="49.16227" lon="0.82095">
        <ele>129.04</ele>
        <time>2021-05-09T08:05:57Z</time>
      </trkpt>
      <trkpt lat="49.16225" lon="0.82133">
        <ele>132.16</ele>
        <time>2021-05-09T08:06:13Z</time>
      </trkpt>
      <trkpt lat="49.16224" lon="0.82157">
        <ele>135.22</ele>
        <time>2021-05-09T08:06:24Z</time>
      </trkpt>
      <trkpt lat="49.16217" lon="0.82178">
        <ele>137.34</ele>
        <time>2021-05-09T08:06:32Z</time>
      </trkpt>
      <trkpt lat="49.16218" lon="0.82211">
        <ele>138.68</ele>
        <time>2021-05-09T08:06:42Z</time>
      </trkpt>
      <trkpt lat="49.16219" lon="0.82233">
        <ele>139.25</ele>
        <time>2021-05-09T08:07:00Z</time>
      </trkpt>
      <trkpt lat="49.16223" lon="0.82262">
        <ele>138.94</ele>
        <time>2021-05-09T08:13:04Z</time>
      </trkpt>
      <trkpt lat="49.16225" lon="0.82274">
        <ele>138.95</ele>
        <time>2021-05-09T08:13:07Z</time>
      </trkpt>
      <trkpt lat="49.16232" lon="0.82331">
        <ele>138.98</ele>
        <time>2021-05-09T08:13:19Z</time>
      </trkpt>
      <trkpt lat="49.16241" lon="0.82388">
        <ele>139.04</ele>
        <time>2021-05-09T08:13:29Z</time>
      </trkpt>
      <trkpt lat="49.16253" lon="0.82457">
        <ele>139.36</ele>
        <time>2021-05-09T08:13:39Z</time>
      </trkpt>
      <trkpt lat="49.16257" lon="0.8247">
        <ele>139.47</ele>
        <time>2021-05-09T08:13:41Z</time>
      </trkpt>
      <trkpt lat="49.16259" lon="0.82477">
        <ele>139.51</ele>
        <time>2021-05-09T08:13:42Z</time>
      </trkpt>
      <trkpt lat="49.1626" lon="0.82483">
        <ele>139.56</ele>
        <time>2021-05-09T08:13:43Z</time>
      </trkpt>
      <trkpt lat="49.16273" lon="0.82552">
        <ele>140.1</ele>
        <time>2021-05-09T08:13:54Z</time>
      </trkpt>
      <trkpt lat="49.16273" lon="0.82559">
        <ele>140.18</ele>
        <time>2021-05-09T08:13:55Z</time>
      </trkpt>
      <trkpt lat="49.1627" lon="0.82629">
        <ele>140.36</ele>
        <time>2021-05-09T08:14:05Z</time>
      </trkpt>
      <trkpt lat="49.16267" lon="0.8269">
        <ele>139.76</ele>
        <time>2021-05-09T08:14:13Z</time>
      </trkpt>
      <trkpt lat="49.16267" lon="0.82696">
        <ele>139.72</ele>
        <time>2021-05-09T08:14:14Z</time>
      </trkpt>
      <trkpt lat="49.16269" lon="0.82718">
        <ele>139.63</ele>
        <time>2021-05-09T08:14:17Z</time>
      </trkpt>
      <trkpt lat="49.1627" lon="0.82724">
        <ele>139.6</ele>
        <time>2021-05-09T08:14:18Z</time>
      </trkpt>
      <trkpt lat="49.16272" lon="0.82731">
        <ele>139.63</ele>
        <time>2021-05-09T08:14:19Z</time>
      </trkpt>
      <trkpt lat="49.16272" lon="0.82738">
        <ele>139.65</ele>
        <time>2021-05-09T08:14:20Z</time>
      </trkpt>
      <trkpt lat="49.16272" lon="0.82744">
        <ele>139.66</ele>
        <time>2021-05-09T08:14:21Z</time>
      </trkpt>
      <trkpt lat="49.16272" lon="0.82751">
        <ele>139.66</ele>
        <time>2021-05-09T08:14:22Z</time>
      </trkpt>
      <trkpt lat="49.16274" lon="0.82789">
        <ele>139.74</ele>
        <time>2021-05-09T08:14:28Z</time>
      </trkpt>
      <trkpt lat="49.16276" lon="0.82804">
        <ele>139.82</ele>
        <time>2021-05-09T08:14:30Z</time>
      </trkpt>
      <trkpt lat="49.16277" lon="0.82811">
        <ele>139.85</ele>
        <time>2021-05-09T08:14:31Z</time>
      </trkpt>
      <trkpt lat="49.16277" lon="0.82819">
        <ele>139.85</ele>
        <time>2021-05-09T08:14:32Z</time>
      </trkpt>
      <trkpt lat="49.16279" lon="0.82866">
        <ele>140.37</ele>
        <time>2021-05-09T08:14:38Z</time>
      </trkpt>
      <trkpt lat="49.16281" lon="0.82896">
        <ele>140.57</ele>
        <time>2021-05-09T08:14:42Z</time>
      </trkpt>
      <trkpt lat="49.16283" lon="0.82903">
        <ele>140.59</ele>
        <time>2021-05-09T08:14:43Z</time>
      </trkpt>
      <trkpt lat="49.16285" lon="0.82909">
        <ele>140.6</ele>
        <time>2021-05-09T08:14:44Z</time>
      </trkpt>
      <trkpt lat="49.16329" lon="0.8301">
        <ele>140.61</ele>
        <time>2021-05-09T08:14:59Z</time>
      </trkpt>
      <trkpt lat="49.16331" lon="0.83018">
        <ele>140.62</ele>
        <time>2021-05-09T08:15:00Z</time>
      </trkpt>
      <trkpt lat="49.16336" lon="0.83136">
        <ele>141.01</ele>
        <time>2021-05-09T08:15:15Z</time>
      </trkpt>
      <trkpt lat="49.16333" lon="0.83284">
        <ele>142.03</ele>
        <time>2021-05-09T08:15:33Z</time>
      </trkpt>
      <trkpt lat="49.16337" lon="0.83324">
        <ele>142.14</ele>
        <time>2021-05-09T08:15:39Z</time>
      </trkpt>
      <trkpt lat="49.1634" lon="0.83322">
        <ele>142.15</ele>
        <time>2021-05-09T08:15:40Z</time>
      </trkpt>
      <trkpt lat="49.16342" lon="0.83317">
        <ele>142.16</ele>
        <time>2021-05-09T08:15:41Z</time>
      </trkpt>
      <trkpt lat="49.16344" lon="0.83312">
        <ele>142.18</ele>
        <time>2021-05-09T08:15:42Z</time>
      </trkpt>
      <trkpt lat="49.16346" lon="0.83307">
        <ele>142.19</ele>
        <time>2021-05-09T08:15:43Z</time>
      </trkpt>
      <trkpt lat="49.16349" lon="0.83302">
        <ele>142.19</ele>
        <time>2021-05-09T08:15:44Z</time>
      </trkpt>
      <trkpt lat="49.16352" lon="0.83296">
        <ele>142.2</ele>
        <time>2021-05-09T08:15:45Z</time>
      </trkpt>
      <trkpt lat="49.16408" lon="0.83196">
        <ele>141.69</ele>
        <time>2021-05-09T08:16:01Z</time>
      </trkpt>
      <trkpt lat="49.16442" lon="0.83139">
        <ele>141.07</ele>
        <time>2021-05-09T08:16:10Z</time>
      </trkpt>
      <trkpt lat="49.16458" lon="0.83105">
        <ele>140.65</ele>
        <time>2021-05-09T08:16:15Z</time>
      </trkpt>
      <trkpt lat="49.1646" lon="0.83097">
        <ele>140.62</ele>
        <time>2021-05-09T08:16:16Z</time>
      </trkpt>
      <trkpt lat="49.16462" lon="0.8309">
        <ele>140.61</ele>
        <time>2021-05-09T08:16:17Z</time>
      </trkpt>
      <trkpt lat="49.16495" lon="0.83">
        <ele>139.67</ele>
        <time>2021-05-09T08:16:29Z</time>
      </trkpt>
      <trkpt lat="49.16511" lon="0.82973">
        <ele>139.12</ele>
        <time>2021-05-09T08:16:33Z</time>
      </trkpt>
      <trkpt lat="49.16535" lon="0.82945">
        <ele>138.05</ele>
        <time>2021-05-09T08:16:38Z</time>
      </trkpt>
      <trkpt lat="49.16607" lon="0.82864">
        <ele>135.59</ele>
        <time>2021-05-09T08:16:51Z</time>
      </trkpt>
      <trkpt lat="49.16659" lon="0.82812">
        <ele>132.86</ele>
        <time>2021-05-09T08:17:00Z</time>
      </trkpt>
      <trkpt lat="49.16672" lon="0.82805">
        <ele>131.05</ele>
        <time>2021-05-09T08:17:08Z</time>
      </trkpt>
      <trkpt lat="49.16674" lon="0.82803">
        <ele>130.8</ele>
        <time>2021-05-09T08:17:14Z</time>
      </trkpt>
      <trkpt lat="49.1669" lon="0.82782">
        <ele>130.92</ele>
        <time>2021-05-09T08:17:54Z</time>
      </trkpt>
      <trkpt lat="49.16699" lon="0.82779">
        <ele>130.83</ele>
        <time>2021-05-09T08:17:56Z</time>
      </trkpt>
      <trkpt lat="49.16768" lon="0.82749">
        <ele>129.86</ele>
        <time>2021-05-09T08:18:09Z</time>
      </trkpt>
      <trkpt lat="49.16787" lon="0.82744">
        <ele>129.48</ele>
        <time>2021-05-09T08:18:12Z</time>
      </trkpt>
      <trkpt lat="49.16814" lon="0.8274">
        <ele>128.72</ele>
        <time>2021-05-09T08:18:16Z</time>
      </trkpt>
      <trkpt lat="49.16841" lon="0.82725">
        <ele>126.93</ele>
        <time>2021-05-09T08:18:20Z</time>
      </trkpt>
      <trkpt lat="49.16864" lon="0.82712">
        <ele>125.36</ele>
        <time>2021-05-09T08:18:24Z</time>
      </trkpt>
      <trkpt lat="49.16894" lon="0.82689">
        <ele>122.68</ele>
        <time>2021-05-09T08:18:28Z</time>
      </trkpt>
      <trkpt lat="49.16935" lon="0.82645">
        <ele>118.24</ele>
        <time>2021-05-09T08:18:34Z</time>
      </trkpt>
      <trkpt lat="49.16958" lon="0.82616">
        <ele>115.66</ele>
        <time>2021-05-09T08:18:38Z</time>
      </trkpt>
      <trkpt lat="49.1697" lon="0.82602">
        <ele>114.98</ele>
        <time>2021-05-09T08:18:40Z</time>
      </trkpt>
      <trkpt lat="49.17002" lon="0.8262">
        <ele>112.53</ele>
        <time>2021-05-09T08:18:47Z</time>
      </trkpt>
      <trkpt lat="49.17006" lon="0.82623">
        <ele>111.45</ele>
        <time>2021-05-09T08:18:49Z</time>
      </trkpt>
      <trkpt lat="49.17018" lon="0.82619">
        <ele>109.51</ele>
        <time>2021-05-09T08:18:52Z</time>
      </trkpt>
      <trkpt lat="49.17021" lon="0.82614">
        <ele>108.71</ele>
        <time>2021-05-09T08:18:53Z</time>
      </trkpt>
      <trkpt lat="49.17023" lon="0.82608">
        <ele>108.18</ele>
        <time>2021-05-09T08:18:54Z</time>
      </trkpt>
      <trkpt lat="49.17025" lon="0.826">
        <ele>107.58</ele>
        <time>2021-05-09T08:18:55Z</time>
      </trkpt>
      <trkpt lat="49.17027" lon="0.82592">
        <ele>106.6</ele>
        <time>2021-05-09T08:18:56Z</time>
      </trkpt>
      <trkpt lat="49.17029" lon="0.82583">
        <ele>105.58</ele>
        <time>2021-05-09T08:18:57Z</time>
      </trkpt>
      <trkpt lat="49.17033" lon="0.82559">
        <ele>103.56</ele>
        <time>2021-05-09T08:19:00Z</time>
      </trkpt>
      <trkpt lat="49.17035" lon="0.82551">
        <ele>103.1</ele>
        <time>2021-05-09T08:19:01Z</time>
      </trkpt>
      <trkpt lat="49.17041" lon="0.8253">
        <ele>102.6</ele>
        <time>2021-05-09T08:19:04Z</time>
      </trkpt>
      <trkpt lat="49.17043" lon="0.82523">
        <ele>102.46</ele>
        <time>2021-05-09T08:19:05Z</time>
      </trkpt>
      <trkpt lat="49.17047" lon="0.82517">
        <ele>102.36</ele>
        <time>2021-05-09T08:19:06Z</time>
      </trkpt>
      <trkpt lat="49.17047" lon="0.8251">
        <ele>102.31</ele>
        <time>2021-05-09T08:19:07Z</time>
      </trkpt>
      <trkpt lat="49.17053" lon="0.82503">
        <ele>102.28</ele>
        <time>2021-05-09T08:19:08Z</time>
      </trkpt>
      <trkpt lat="49.17057" lon="0.82494">
        <ele>102.27</ele>
        <time>2021-05-09T08:19:09Z</time>
      </trkpt>
      <trkpt lat="49.1706" lon="0.82486">
        <ele>102.26</ele>
        <time>2021-05-09T08:19:10Z</time>
      </trkpt>
      <trkpt lat="49.17062" lon="0.82478">
        <ele>102.26</ele>
        <time>2021-05-09T08:19:11Z</time>
      </trkpt>
      <trkpt lat="49.17067" lon="0.82457">
        <ele>102.26</ele>
        <time>2021-05-09T08:19:14Z</time>
      </trkpt>
      <trkpt lat="49.17069" lon="0.82449">
        <ele>102.26</ele>
        <time>2021-05-09T08:19:15Z</time>
      </trkpt>
      <trkpt lat="49.17072" lon="0.82442">
        <ele>102.26</ele>
        <time>2021-05-09T08:19:16Z</time>
      </trkpt>
      <trkpt lat="49.17087" lon="0.82376">
        <ele>102.78</ele>
        <time>2021-05-09T08:19:26Z</time>
      </trkpt>
      <trkpt lat="49.17088" lon="0.82369">
        <ele>103.02</ele>
        <time>2021-05-09T08:19:27Z</time>
      </trkpt>
      <trkpt lat="49.17103" lon="0.82304">
        <ele>103.91</ele>
        <time>2021-05-09T08:19:36Z</time>
      </trkpt>
      <trkpt lat="49.17105" lon="0.82297">
        <ele>103.95</ele>
        <time>2021-05-09T08:19:37Z</time>
      </trkpt>
      <trkpt lat="49.17106" lon="0.8229">
        <ele>103.98</ele>
        <time>2021-05-09T08:19:38Z</time>
      </trkpt>
      <trkpt lat="49.17108" lon="0.82282">
        <ele>104</ele>
        <time>2021-05-09T08:19:39Z</time>
      </trkpt>
      <trkpt lat="49.1711" lon="0.82275">
        <ele>104.11</ele>
        <time>2021-05-09T08:19:40Z</time>
      </trkpt>
      <trkpt lat="49.17112" lon="0.82267">
        <ele>104.16</ele>
        <time>2021-05-09T08:19:41Z</time>
      </trkpt>
      <trkpt lat="49.17134" lon="0.82192">
        <ele>104</ele>
        <time>2021-05-09T08:19:50Z</time>
      </trkpt>
      <trkpt lat="49.17144" lon="0.82162">
        <ele>103.89</ele>
        <time>2021-05-09T08:19:53Z</time>
      </trkpt>
      <trkpt lat="49.17159" lon="0.82125">
        <ele>102.78</ele>
        <time>2021-05-09T08:19:57Z</time>
      </trkpt>
      <trkpt lat="49.17161" lon="0.82116">
        <ele>102.45</ele>
        <time>2021-05-09T08:19:58Z</time>
      </trkpt>
      <trkpt lat="49.17162" lon="0.82107">
        <ele>102.04</ele>
        <time>2021-05-09T08:19:59Z</time>
      </trkpt>
      <trkpt lat="49.17164" lon="0.82089">
        <ele>101.41</ele>
        <time>2021-05-09T08:20:01Z</time>
      </trkpt>
      <trkpt lat="49.17168" lon="0.82071">
        <ele>100.98</ele>
        <time>2021-05-09T08:20:03Z</time>
      </trkpt>
      <trkpt lat="49.17172" lon="0.82063">
        <ele>100.76</ele>
        <time>2021-05-09T08:20:04Z</time>
      </trkpt>
      <trkpt lat="49.1718" lon="0.82042">
        <ele>100.23</ele>
        <time>2021-05-09T08:20:07Z</time>
      </trkpt>
      <trkpt lat="49.17181" lon="0.82036">
        <ele>100.06</ele>
        <time>2021-05-09T08:20:08Z</time>
      </trkpt>
      <trkpt lat="49.17183" lon="0.82029">
        <ele>99.87</ele>
        <time>2021-05-09T08:20:09Z</time>
      </trkpt>
      <trkpt lat="49.17187" lon="0.82022">
        <ele>99.73</ele>
        <time>2021-05-09T08:20:10Z</time>
      </trkpt>
      <trkpt lat="49.17189" lon="0.82017">
        <ele>99.66</ele>
        <time>2021-05-09T08:20:11Z</time>
      </trkpt>
      <trkpt lat="49.17191" lon="0.82012">
        <ele>99.57</ele>
        <time>2021-05-09T08:20:12Z</time>
      </trkpt>
      <trkpt lat="49.17195" lon="0.82006">
        <ele>99.5</ele>
        <time>2021-05-09T08:20:13Z</time>
      </trkpt>
      <trkpt lat="49.172" lon="0.81999">
        <ele>99.45</ele>
        <time>2021-05-09T08:20:14Z</time>
      </trkpt>
      <trkpt lat="49.17203" lon="0.81993">
        <ele>99.43</ele>
        <time>2021-05-09T08:20:15Z</time>
      </trkpt>
      <trkpt lat="49.17228" lon="0.81958">
        <ele>99.19</ele>
        <time>2021-05-09T08:20:22Z</time>
      </trkpt>
      <trkpt lat="49.17231" lon="0.81953">
        <ele>99.2</ele>
        <time>2021-05-09T08:20:23Z</time>
      </trkpt>
      <trkpt lat="49.17238" lon="0.81935">
        <ele>99.18</ele>
        <time>2021-05-09T08:20:26Z</time>
      </trkpt>
      <trkpt lat="49.17243" lon="0.81928">
        <ele>99.17</ele>
        <time>2021-05-09T08:20:27Z</time>
      </trkpt>
      <trkpt lat="49.17247" lon="0.81921">
        <ele>99.17</ele>
        <time>2021-05-09T08:20:28Z</time>
      </trkpt>
      <trkpt lat="49.17251" lon="0.81913">
        <ele>99.17</ele>
        <time>2021-05-09T08:20:29Z</time>
      </trkpt>
      <trkpt lat="49.17254" lon="0.81907">
        <ele>99.17</ele>
        <time>2021-05-09T08:20:30Z</time>
      </trkpt>
      <trkpt lat="49.17258" lon="0.819">
        <ele>99.17</ele>
        <time>2021-05-09T08:20:31Z</time>
      </trkpt>
      <trkpt lat="49.17261" lon="0.81894">
        <ele>99.19</ele>
        <time>2021-05-09T08:20:32Z</time>
      </trkpt>
      <trkpt lat="49.17266" lon="0.81889">
        <ele>99.23</ele>
        <time>2021-05-09T08:20:33Z</time>
      </trkpt>
      <trkpt lat="49.17279" lon="0.81873">
        <ele>99.29</ele>
        <time>2021-05-09T08:20:36Z</time>
      </trkpt>
      <trkpt lat="49.17283" lon="0.81867">
        <ele>99.39</ele>
        <time>2021-05-09T08:20:37Z</time>
      </trkpt>
      <trkpt lat="49.17319" lon="0.8178">
        <ele>100.59</ele>
        <time>2021-05-09T08:20:50Z</time>
      </trkpt>
      <trkpt lat="49.17322" lon="0.81775">
        <ele>100.6</ele>
        <time>2021-05-09T08:20:51Z</time>
      </trkpt>
      <trkpt lat="49.17326" lon="0.81771">
        <ele>100.64</ele>
        <time>2021-05-09T08:20:52Z</time>
      </trkpt>
      <trkpt lat="49.17329" lon="0.81768">
        <ele>100.66</ele>
        <time>2021-05-09T08:20:53Z</time>
      </trkpt>
      <trkpt lat="49.17334" lon="0.81768">
        <ele>100.73</ele>
        <time>2021-05-09T08:20:54Z</time>
      </trkpt>
      <trkpt lat="49.17337" lon="0.81769">
        <ele>100.77</ele>
        <time>2021-05-09T08:20:55Z</time>
      </trkpt>
      <trkpt lat="49.1734" lon="0.81773">
        <ele>100.8</ele>
        <time>2021-05-09T08:20:56Z</time>
      </trkpt>
      <trkpt lat="49.17342" lon="0.81777">
        <ele>100.91</ele>
        <time>2021-05-09T08:20:57Z</time>
      </trkpt>
      <trkpt lat="49.17344" lon="0.81782">
        <ele>100.96</ele>
        <time>2021-05-09T08:20:58Z</time>
      </trkpt>
      <trkpt lat="49.17358" lon="0.81828">
        <ele>101.8</ele>
        <time>2021-05-09T08:21:07Z</time>
      </trkpt>
      <trkpt lat="49.17367" lon="0.81845">
        <ele>101.8</ele>
        <time>2021-05-09T08:21:11Z</time>
      </trkpt>
      <trkpt lat="49.17378" lon="0.8185">
        <ele>101.58</ele>
        <time>2021-05-09T08:21:13Z</time>
      </trkpt>
      <trkpt lat="49.17383" lon="0.81852">
        <ele>101.32</ele>
        <time>2021-05-09T08:21:14Z</time>
      </trkpt>
      <trkpt lat="49.17386" lon="0.81855">
        <ele>101.05</ele>
        <time>2021-05-09T08:21:15Z</time>
      </trkpt>
      <trkpt lat="49.17387" lon="0.81858">
        <ele>100.8</ele>
        <time>2021-05-09T08:21:16Z</time>
      </trkpt>
      <trkpt lat="49.17387" lon="0.81862">
        <ele>100.58</ele>
        <time>2021-05-09T08:21:17Z</time>
      </trkpt>
      <trkpt lat="49.17387" lon="0.81866">
        <ele>100.46</ele>
        <time>2021-05-09T08:21:18Z</time>
      </trkpt>
      <trkpt lat="49.17394" lon="0.8188">
        <ele>100.35</ele>
        <time>2021-05-09T08:21:23Z</time>
      </trkpt>
      <trkpt lat="49.174" lon="0.8192">
        <ele>102.18</ele>
        <time>2021-05-09T08:21:35Z</time>
      </trkpt>
      <trkpt lat="49.17412" lon="0.81985">
        <ele>104.78</ele>
        <time>2021-05-09T08:21:45Z</time>
      </trkpt>
      <trkpt lat="49.17435" lon="0.82032">
        <ele>106.09</ele>
        <time>2021-05-09T08:21:55Z</time>
      </trkpt>
      <trkpt lat="49.17464" lon="0.8207">
        <ele>107.63</ele>
        <time>2021-05-09T08:22:06Z</time>
      </trkpt>
      <trkpt lat="49.17502" lon="0.82102">
        <ele>109.34</ele>
        <time>2021-05-09T08:22:17Z</time>
      </trkpt>
      <trkpt lat="49.17518" lon="0.82118">
        <ele>110.45</ele>
        <time>2021-05-09T08:22:23Z</time>
      </trkpt>
      <trkpt lat="49.17526" lon="0.82127">
        <ele>111.2</ele>
        <time>2021-05-09T08:22:27Z</time>
      </trkpt>
      <trkpt lat="49.1755" lon="0.82154">
        <ele>113.96</ele>
        <time>2021-05-09T08:22:38Z</time>
      </trkpt>
      <trkpt lat="49.17586" lon="0.82196">
        <ele>116</ele>
        <time>2021-05-09T08:22:50Z</time>
      </trkpt>
      <trkpt lat="49.17605" lon="0.82241">
        <ele>117.76</ele>
        <time>2021-05-09T08:23:00Z</time>
      </trkpt>
      <trkpt lat="49.17614" lon="0.82278">
        <ele>120.02</ele>
        <time>2021-05-09T08:23:10Z</time>
      </trkpt>
      <trkpt lat="49.17616" lon="0.82342">
        <ele>121.98</ele>
        <time>2021-05-09T08:23:21Z</time>
      </trkpt>
      <trkpt lat="49.17627" lon="0.82407">
        <ele>123.93</ele>
        <time>2021-05-09T08:23:32Z</time>
      </trkpt>
      <trkpt lat="49.17642" lon="0.8245">
        <ele>124.78</ele>
        <time>2021-05-09T08:23:40Z</time>
      </trkpt>
      <trkpt lat="49.17667" lon="0.82501">
        <ele>127.02</ele>
        <time>2021-05-09T08:23:52Z</time>
      </trkpt>
      <trkpt lat="49.17685" lon="0.82546">
        <ele>129.38</ele>
        <time>2021-05-09T08:24:03Z</time>
      </trkpt>
      <trkpt lat="49.17695" lon="0.82606">
        <ele>131.72</ele>
        <time>2021-05-09T08:24:15Z</time>
      </trkpt>
      <trkpt lat="49.17699" lon="0.82671">
        <ele>133.74</ele>
        <time>2021-05-09T08:24:26Z</time>
      </trkpt>
      <trkpt lat="49.17703" lon="0.8274">
        <ele>135.31</ele>
        <time>2021-05-09T08:24:37Z</time>
      </trkpt>
      <trkpt lat="49.17704" lon="0.82747">
        <ele>135.48</ele>
        <time>2021-05-09T08:24:38Z</time>
      </trkpt>
      <trkpt lat="49.17707" lon="0.82809">
        <ele>136.51</ele>
        <time>2021-05-09T08:24:47Z</time>
      </trkpt>
      <trkpt lat="49.17729" lon="0.82901">
        <ele>137.69</ele>
        <time>2021-05-09T08:24:58Z</time>
      </trkpt>
      <trkpt lat="49.17755" lon="0.82959">
        <ele>139.12</ele>
        <time>2021-05-09T08:25:08Z</time>
      </trkpt>
      <trkpt lat="49.17766" lon="0.83009">
        <ele>141.07</ele>
        <time>2021-05-09T08:25:16Z</time>
      </trkpt>
      <trkpt lat="49.17791" lon="0.83073">
        <ele>142.2</ele>
        <time>2021-05-09T08:25:26Z</time>
      </trkpt>
      <trkpt lat="49.17794" lon="0.8308">
        <ele>142.33</ele>
        <time>2021-05-09T08:25:27Z</time>
      </trkpt>
      <trkpt lat="49.17815" lon="0.83147">
        <ele>143.61</ele>
        <time>2021-05-09T08:25:36Z</time>
      </trkpt>
      <trkpt lat="49.17836" lon="0.83187">
        <ele>144.24</ele>
        <time>2021-05-09T08:25:43Z</time>
      </trkpt>
      <trkpt lat="49.17848" lon="0.8321">
        <ele>144.58</ele>
        <time>2021-05-09T08:25:47Z</time>
      </trkpt>
      <trkpt lat="49.17875" lon="0.83266">
        <ele>144.79</ele>
        <time>2021-05-09T08:25:58Z</time>
      </trkpt>
      <trkpt lat="49.17904" lon="0.83318">
        <ele>145.58</ele>
        <time>2021-05-09T08:26:10Z</time>
      </trkpt>
      <trkpt lat="49.17924" lon="0.83363">
        <ele>146.34</ele>
        <time>2021-05-09T08:26:22Z</time>
      </trkpt>
      <trkpt lat="49.17959" lon="0.83423">
        <ele>147.41</ele>
        <time>2021-05-09T08:26:38Z</time>
      </trkpt>
      <trkpt lat="49.17996" lon="0.83491">
        <ele>148.22</ele>
        <time>2021-05-09T08:26:53Z</time>
      </trkpt>
      <trkpt lat="49.18044" lon="0.83582">
        <ele>149.46</ele>
        <time>2021-05-09T08:27:13Z</time>
      </trkpt>
      <trkpt lat="49.18094" lon="0.83668">
        <ele>150.39</ele>
        <time>2021-05-09T08:27:33Z</time>
      </trkpt>
      <trkpt lat="49.18138" lon="0.83745">
        <ele>151.8</ele>
        <time>2021-05-09T08:27:50Z</time>
      </trkpt>
      <trkpt lat="49.1817" lon="0.83805">
        <ele>153.14</ele>
        <time>2021-05-09T08:28:03Z</time>
      </trkpt>
      <trkpt lat="49.18213" lon="0.83876">
        <ele>154.11</ele>
        <time>2021-05-09T08:28:20Z</time>
      </trkpt>
      <trkpt lat="49.18248" lon="0.83952">
        <ele>154.08</ele>
        <time>2021-05-09T08:28:36Z</time>
      </trkpt>
      <trkpt lat="49.18274" lon="0.84037">
        <ele>153.72</ele>
        <time>2021-05-09T08:28:51Z</time>
      </trkpt>
      <trkpt lat="49.18302" lon="0.84131">
        <ele>153.16</ele>
        <time>2021-05-09T08:29:07Z</time>
      </trkpt>
      <trkpt lat="49.1833" lon="0.84215">
        <ele>152.4</ele>
        <time>2021-05-09T08:29:22Z</time>
      </trkpt>
      <trkpt lat="49.18337" lon="0.84241">
        <ele>152.43</ele>
        <time>2021-05-09T08:29:26Z</time>
      </trkpt>
      <trkpt lat="49.18344" lon="0.84259">
        <ele>152.49</ele>
        <time>2021-05-09T08:29:29Z</time>
      </trkpt>
      <trkpt lat="49.18384" lon="0.84391">
        <ele>152.05</ele>
        <time>2021-05-09T08:29:48Z</time>
      </trkpt>
      <trkpt lat="49.18407" lon="0.84463">
        <ele>151.54</ele>
        <time>2021-05-09T08:29:59Z</time>
      </trkpt>
      <trkpt lat="49.18414" lon="0.84483">
        <ele>151.44</ele>
        <time>2021-05-09T08:30:02Z</time>
      </trkpt>
      <trkpt lat="49.1842" lon="0.84509">
        <ele>150.95</ele>
        <time>2021-05-09T08:30:06Z</time>
      </trkpt>
      <trkpt lat="49.18433" lon="0.84544">
        <ele>150.46</ele>
        <time>2021-05-09T08:30:12Z</time>
      </trkpt>
      <trkpt lat="49.18434" lon="0.8455">
        <ele>150.39</ele>
        <time>2021-05-09T08:30:13Z</time>
      </trkpt>
      <trkpt lat="49.18435" lon="0.84557">
        <ele>150.33</ele>
        <time>2021-05-09T08:30:14Z</time>
      </trkpt>
      <trkpt lat="49.18436" lon="0.84564">
        <ele>150.29</ele>
        <time>2021-05-09T08:30:15Z</time>
      </trkpt>
      <trkpt lat="49.18435" lon="0.84571">
        <ele>150.22</ele>
        <time>2021-05-09T08:30:16Z</time>
      </trkpt>
      <trkpt lat="49.18433" lon="0.84607">
        <ele>149.75</ele>
        <time>2021-05-09T08:30:21Z</time>
      </trkpt>
      <trkpt lat="49.18432" lon="0.84644">
        <ele>149.03</ele>
        <time>2021-05-09T08:30:27Z</time>
      </trkpt>
      <trkpt lat="49.18435" lon="0.84649">
        <ele>148.96</ele>
        <time>2021-05-09T08:30:28Z</time>
      </trkpt>
      <trkpt lat="49.18439" lon="0.8466">
        <ele>148.82</ele>
        <time>2021-05-09T08:30:30Z</time>
      </trkpt>
      <trkpt lat="49.18441" lon="0.84666">
        <ele>148.79</ele>
        <time>2021-05-09T08:30:31Z</time>
      </trkpt>
      <trkpt lat="49.18448" lon="0.84693">
        <ele>148.71</ele>
        <time>2021-05-09T08:30:35Z</time>
      </trkpt>
      <trkpt lat="49.18451" lon="0.84706">
        <ele>148.63</ele>
        <time>2021-05-09T08:30:37Z</time>
      </trkpt>
      <trkpt lat="49.18472" lon="0.84787">
        <ele>148.24</ele>
        <time>2021-05-09T08:30:50Z</time>
      </trkpt>
      <trkpt lat="49.18493" lon="0.848">
        <ele>148.05</ele>
        <time>2021-05-09T08:30:55Z</time>
      </trkpt>
      <trkpt lat="49.18547" lon="0.8478">
        <ele>147.49</ele>
        <time>2021-05-09T08:31:05Z</time>
      </trkpt>
      <trkpt lat="49.18635" lon="0.84748">
        <ele>146.17</ele>
        <time>2021-05-09T08:31:21Z</time>
      </trkpt>
      <trkpt lat="49.18726" lon="0.84714">
        <ele>143.73</ele>
        <time>2021-05-09T08:31:35Z</time>
      </trkpt>
      <trkpt lat="49.18817" lon="0.84678">
        <ele>140.55</ele>
        <time>2021-05-09T08:31:47Z</time>
      </trkpt>
      <trkpt lat="49.18881" lon="0.8465">
        <ele>137.43</ele>
        <time>2021-05-09T08:31:54Z</time>
      </trkpt>
      <trkpt lat="49.18935" lon="0.84683">
        <ele>133.33</ele>
        <time>2021-05-09T08:32:01Z</time>
      </trkpt>
      <trkpt lat="49.18964" lon="0.84707">
        <ele>132.13</ele>
        <time>2021-05-09T08:32:05Z</time>
      </trkpt>
      <trkpt lat="49.18999" lon="0.84688">
        <ele>131.29</ele>
        <time>2021-05-09T08:32:10Z</time>
      </trkpt>
      <trkpt lat="49.19087" lon="0.84583">
        <ele>127.97</ele>
        <time>2021-05-09T08:32:24Z</time>
      </trkpt>
      <trkpt lat="49.19113" lon="0.84553">
        <ele>127.57</ele>
        <time>2021-05-09T08:32:28Z</time>
      </trkpt>
      <trkpt lat="49.19167" lon="0.8452">
        <ele>126.06</ele>
        <time>2021-05-09T08:32:35Z</time>
      </trkpt>
      <trkpt lat="49.19182" lon="0.84518">
        <ele>125.71</ele>
        <time>2021-05-09T08:32:37Z</time>
      </trkpt>
      <trkpt lat="49.19271" lon="0.84525">
        <ele>124.08</ele>
        <time>2021-05-09T08:32:47Z</time>
      </trkpt>
      <trkpt lat="49.19348" lon="0.84539">
        <ele>121.25</ele>
        <time>2021-05-09T08:32:56Z</time>
      </trkpt>
      <trkpt lat="49.19447" lon="0.84541">
        <ele>118.15</ele>
        <time>2021-05-09T08:33:07Z</time>
      </trkpt>
      <trkpt lat="49.19482" lon="0.84546">
        <ele>116.75</ele>
        <time>2021-05-09T08:33:11Z</time>
      </trkpt>
      <trkpt lat="49.19515" lon="0.84522">
        <ele>115.42</ele>
        <time>2021-05-09T08:33:15Z</time>
      </trkpt>
      <trkpt lat="49.19544" lon="0.84469">
        <ele>113.14</ele>
        <time>2021-05-09T08:33:20Z</time>
      </trkpt>
      <trkpt lat="49.19566" lon="0.84408">
        <ele>112.12</ele>
        <time>2021-05-09T08:33:25Z</time>
      </trkpt>
      <trkpt lat="49.19574" lon="0.84323">
        <ele>111.29</ele>
        <time>2021-05-09T08:33:31Z</time>
      </trkpt>
      <trkpt lat="49.19584" lon="0.84261">
        <ele>110.21</ele>
        <time>2021-05-09T08:33:36Z</time>
      </trkpt>
      <trkpt lat="49.196" lon="0.84199">
        <ele>109.71</ele>
        <time>2021-05-09T08:33:43Z</time>
      </trkpt>
      <trkpt lat="49.19644" lon="0.84186">
        <ele>109.99</ele>
        <time>2021-05-09T08:33:54Z</time>
      </trkpt>
      <trkpt lat="49.1965" lon="0.84186">
        <ele>110.35</ele>
        <time>2021-05-09T08:34:00Z</time>
      </trkpt>
      <trkpt lat="49.19663" lon="0.84201">
        <ele>112.22</ele>
        <time>2021-05-09T08:34:15Z</time>
      </trkpt>
      <trkpt lat="49.19668" lon="0.84224">
        <ele>115.59</ele>
        <time>2021-05-09T08:34:24Z</time>
      </trkpt>
      <trkpt lat="49.19667" lon="0.84235">
        <ele>119.2</ele>
        <time>2021-05-09T08:34:31Z</time>
      </trkpt>
      <trkpt lat="49.19666" lon="0.84235">
        <ele>119.2</ele>
        <time>2021-05-09T08:34:32Z</time>
      </trkpt>
      <trkpt lat="49.19665" lon="0.8424">
        <ele>122.57</ele>
        <time>2021-05-09T08:34:38Z</time>
      </trkpt>
      <trkpt lat="49.19665" lon="0.8424">
        <ele>122.99</ele>
        <time>2021-05-09T08:34:39Z</time>
      </trkpt>
      <trkpt lat="49.19668" lon="0.84262">
        <ele>126.68</ele>
        <time>2021-05-09T08:34:57Z</time>
      </trkpt>
      <trkpt lat="49.19678" lon="0.84292">
        <ele>129.8</ele>
        <time>2021-05-09T08:35:23Z</time>
      </trkpt>
      <trkpt lat="49.19681" lon="0.84293">
        <ele>130.2</ele>
        <time>2021-05-09T08:35:31Z</time>
      </trkpt>
      <trkpt lat="49.19684" lon="0.84306">
        <ele>130.19</ele>
        <time>2021-05-09T08:35:47Z</time>
      </trkpt>
      <trkpt lat="49.19689" lon="0.8432">
        <ele>130.19</ele>
        <time>2021-05-09T08:35:57Z</time>
      </trkpt>
      <trkpt lat="49.19703" lon="0.84361">
        <ele>130.25</ele>
        <time>2021-05-09T08:36:10Z</time>
      </trkpt>
      <trkpt lat="49.19705" lon="0.84371">
        <ele>130.27</ele>
        <time>2021-05-09T08:36:12Z</time>
      </trkpt>
      <trkpt lat="49.19715" lon="0.84408">
        <ele>130.48</ele>
        <time>2021-05-09T08:36:18Z</time>
      </trkpt>
      <trkpt lat="49.19723" lon="0.84429">
        <ele>130.62</ele>
        <time>2021-05-09T08:36:21Z</time>
      </trkpt>
      <trkpt lat="49.19748" lon="0.84505">
        <ele>130.64</ele>
        <time>2021-05-09T08:36:32Z</time>
      </trkpt>
      <trkpt lat="49.19752" lon="0.84519">
        <ele>130.6</ele>
        <time>2021-05-09T08:36:34Z</time>
      </trkpt>
      <trkpt lat="49.1976" lon="0.84547">
        <ele>130.54</ele>
        <time>2021-05-09T08:36:38Z</time>
      </trkpt>
      <trkpt lat="49.19772" lon="0.8458">
        <ele>130.58</ele>
        <time>2021-05-09T08:36:43Z</time>
      </trkpt>
      <trkpt lat="49.19777" lon="0.84595">
        <ele>130.77</ele>
        <time>2021-05-09T08:36:45Z</time>
      </trkpt>
      <trkpt lat="49.19809" lon="0.84691">
        <ele>130.86</ele>
        <time>2021-05-09T08:36:56Z</time>
      </trkpt>
      <trkpt lat="49.19823" lon="0.84731">
        <ele>129.96</ele>
        <time>2021-05-09T08:37:01Z</time>
      </trkpt>
      <trkpt lat="49.19836" lon="0.84771">
        <ele>129.43</ele>
        <time>2021-05-09T08:37:06Z</time>
      </trkpt>
      <trkpt lat="49.19845" lon="0.84797">
        <ele>129.33</ele>
        <time>2021-05-09T08:37:09Z</time>
      </trkpt>
      <trkpt lat="49.19855" lon="0.84822">
        <ele>129.12</ele>
        <time>2021-05-09T08:37:12Z</time>
      </trkpt>
      <trkpt lat="49.19866" lon="0.84853">
        <ele>128.93</ele>
        <time>2021-05-09T08:37:16Z</time>
      </trkpt>
      <trkpt lat="49.19881" lon="0.84898">
        <ele>128.91</ele>
        <time>2021-05-09T08:37:22Z</time>
      </trkpt>
      <trkpt lat="49.19903" lon="0.84971">
        <ele>130.84</ele>
        <time>2021-05-09T08:37:34Z</time>
      </trkpt>
      <trkpt lat="49.19956" lon="0.84993">
        <ele>134.28</ele>
        <time>2021-05-09T08:37:48Z</time>
      </trkpt>
      <trkpt lat="49.20024" lon="0.85018">
        <ele>136.46</ele>
        <time>2021-05-09T08:38:03Z</time>
      </trkpt>
      <trkpt lat="49.20039" lon="0.85026">
        <ele>136.67</ele>
        <time>2021-05-09T08:38:07Z</time>
      </trkpt>
      <trkpt lat="49.20052" lon="0.85051">
        <ele>137.41</ele>
        <time>2021-05-09T08:38:12Z</time>
      </trkpt>
      <trkpt lat="49.20058" lon="0.85069">
        <ele>138.46</ele>
        <time>2021-05-09T08:38:15Z</time>
      </trkpt>
      <trkpt lat="49.2007" lon="0.85098">
        <ele>139.23</ele>
        <time>2021-05-09T08:38:20Z</time>
      </trkpt>
      <trkpt lat="49.20076" lon="0.85112">
        <ele>139.57</ele>
        <time>2021-05-09T08:38:22Z</time>
      </trkpt>
      <trkpt lat="49.20095" lon="0.85164">
        <ele>140.7</ele>
        <time>2021-05-09T08:38:30Z</time>
      </trkpt>
      <trkpt lat="49.20099" lon="0.85175">
        <ele>140.94</ele>
        <time>2021-05-09T08:38:32Z</time>
      </trkpt>
      <trkpt lat="49.20103" lon="0.85188">
        <ele>141.2</ele>
        <time>2021-05-09T08:38:34Z</time>
      </trkpt>
      <trkpt lat="49.20138" lon="0.85278">
        <ele>141.7</ele>
        <time>2021-05-09T08:38:48Z</time>
      </trkpt>
      <trkpt lat="49.20163" lon="0.85334">
        <ele>141.67</ele>
        <time>2021-05-09T08:38:59Z</time>
      </trkpt>
      <trkpt lat="49.20185" lon="0.85389">
        <ele>141.37</ele>
        <time>2021-05-09T08:39:07Z</time>
      </trkpt>
      <trkpt lat="49.20216" lon="0.85471">
        <ele>140.52</ele>
        <time>2021-05-09T08:39:18Z</time>
      </trkpt>
      <trkpt lat="49.20246" lon="0.85542">
        <ele>139.42</ele>
        <time>2021-05-09T08:39:26Z</time>
      </trkpt>
      <trkpt lat="49.20262" lon="0.85588">
        <ele>138.67</ele>
        <time>2021-05-09T08:39:32Z</time>
      </trkpt>
      <trkpt lat="49.20281" lon="0.85634">
        <ele>138.34</ele>
        <time>2021-05-09T08:39:42Z</time>
      </trkpt>
      <trkpt lat="49.20294" lon="0.85655">
        <ele>138.18</ele>
        <time>2021-05-09T08:39:46Z</time>
      </trkpt>
      <trkpt lat="49.20322" lon="0.85707">
        <ele>137.63</ele>
        <time>2021-05-09T08:39:54Z</time>
      </trkpt>
      <trkpt lat="49.20343" lon="0.85742">
        <ele>137.38</ele>
        <time>2021-05-09T08:39:58Z</time>
      </trkpt>
      <trkpt lat="49.20361" lon="0.85783">
        <ele>136.48</ele>
        <time>2021-05-09T08:40:03Z</time>
      </trkpt>
      <trkpt lat="49.20373" lon="0.85802">
        <ele>135.51</ele>
        <time>2021-05-09T08:40:06Z</time>
      </trkpt>
      <trkpt lat="49.20404" lon="0.85846">
        <ele>135.3</ele>
        <time>2021-05-09T08:40:14Z</time>
      </trkpt>
      <trkpt lat="49.20427" lon="0.85881">
        <ele>136.9</ele>
        <time>2021-05-09T08:40:19Z</time>
      </trkpt>
      <trkpt lat="49.20441" lon="0.85912">
        <ele>137.39</ele>
        <time>2021-05-09T08:40:23Z</time>
      </trkpt>
      <trkpt lat="49.20449" lon="0.85933">
        <ele>137.54</ele>
        <time>2021-05-09T08:40:25Z</time>
      </trkpt>
      <trkpt lat="49.20478" lon="0.86014">
        <ele>138.09</ele>
        <time>2021-05-09T08:40:34Z</time>
      </trkpt>
      <trkpt lat="49.20492" lon="0.86058">
        <ele>138.19</ele>
        <time>2021-05-09T08:40:39Z</time>
      </trkpt>
      <trkpt lat="49.20499" lon="0.86076">
        <ele>138.39</ele>
        <time>2021-05-09T08:40:41Z</time>
      </trkpt>
      <trkpt lat="49.20517" lon="0.86122">
        <ele>138.65</ele>
        <time>2021-05-09T08:40:46Z</time>
      </trkpt>
      <trkpt lat="49.20584" lon="0.8626">
        <ele>138.17</ele>
        <time>2021-05-09T08:40:59Z</time>
      </trkpt>
      <trkpt lat="49.20633" lon="0.86386">
        <ele>136.73</ele>
        <time>2021-05-09T08:41:11Z</time>
      </trkpt>
      <trkpt lat="49.20665" lon="0.86451">
        <ele>136.78</ele>
        <time>2021-05-09T08:41:18Z</time>
      </trkpt>
      <trkpt lat="49.20719" lon="0.86535">
        <ele>136.75</ele>
        <time>2021-05-09T08:41:29Z</time>
      </trkpt>
      <trkpt lat="49.20723" lon="0.86542">
        <ele>136.79</ele>
        <time>2021-05-09T08:41:30Z</time>
      </trkpt>
      <trkpt lat="49.20759" lon="0.86599">
        <ele>137.48</ele>
        <time>2021-05-09T08:41:40Z</time>
      </trkpt>
      <trkpt lat="49.20762" lon="0.86603">
        <ele>137.72</ele>
        <time>2021-05-09T08:41:41Z</time>
      </trkpt>
      <trkpt lat="49.20765" lon="0.86605">
        <ele>137.91</ele>
        <time>2021-05-09T08:41:42Z</time>
      </trkpt>
      <trkpt lat="49.20769" lon="0.86607">
        <ele>138.12</ele>
        <time>2021-05-09T08:41:43Z</time>
      </trkpt>
      <trkpt lat="49.20773" lon="0.86609">
        <ele>138.22</ele>
        <time>2021-05-09T08:41:44Z</time>
      </trkpt>
      <trkpt lat="49.20775" lon="0.86611">
        <ele>138.3</ele>
        <time>2021-05-09T08:41:45Z</time>
      </trkpt>
      <trkpt lat="49.20777" lon="0.86615">
        <ele>138.42</ele>
        <time>2021-05-09T08:41:46Z</time>
      </trkpt>
      <trkpt lat="49.20778" lon="0.86621">
        <ele>138.57</ele>
        <time>2021-05-09T08:41:47Z</time>
      </trkpt>
      <trkpt lat="49.20779" lon="0.86626">
        <ele>138.64</ele>
        <time>2021-05-09T08:41:48Z</time>
      </trkpt>
      <trkpt lat="49.20781" lon="0.86632">
        <ele>138.71</ele>
        <time>2021-05-09T08:41:49Z</time>
      </trkpt>
      <trkpt lat="49.208" lon="0.8669">
        <ele>139.11</ele>
        <time>2021-05-09T08:41:58Z</time>
      </trkpt>
      <trkpt lat="49.20811" lon="0.86788">
        <ele>140.72</ele>
        <time>2021-05-09T08:42:10Z</time>
      </trkpt>
      <trkpt lat="49.20817" lon="0.86811">
        <ele>141.28</ele>
        <time>2021-05-09T08:42:13Z</time>
      </trkpt>
      <trkpt lat="49.2083" lon="0.86838">
        <ele>142.03</ele>
        <time>2021-05-09T08:42:17Z</time>
      </trkpt>
      <trkpt lat="49.20845" lon="0.86875">
        <ele>142.71</ele>
        <time>2021-05-09T08:42:22Z</time>
      </trkpt>
      <trkpt lat="49.2085" lon="0.8689">
        <ele>142.81</ele>
        <time>2021-05-09T08:42:24Z</time>
      </trkpt>
      <trkpt lat="49.20866" lon="0.86907">
        <ele>143.33</ele>
        <time>2021-05-09T08:42:28Z</time>
      </trkpt>
      <trkpt lat="49.20874" lon="0.86911">
        <ele>143.5</ele>
        <time>2021-05-09T08:42:30Z</time>
      </trkpt>
      <trkpt lat="49.20877" lon="0.86916">
        <ele>143.59</ele>
        <time>2021-05-09T08:42:31Z</time>
      </trkpt>
      <trkpt lat="49.20879" lon="0.86922">
        <ele>143.65</ele>
        <time>2021-05-09T08:42:32Z</time>
      </trkpt>
      <trkpt lat="49.2088" lon="0.86929">
        <ele>143.7</ele>
        <time>2021-05-09T08:42:33Z</time>
      </trkpt>
      <trkpt lat="49.2088" lon="0.86936">
        <ele>143.77</ele>
        <time>2021-05-09T08:42:34Z</time>
      </trkpt>
      <trkpt lat="49.20891" lon="0.87045">
        <ele>144.9</ele>
        <time>2021-05-09T08:42:49Z</time>
      </trkpt>
      <trkpt lat="49.20894" lon="0.87076">
        <ele>144.9</ele>
        <time>2021-05-09T08:42:53Z</time>
      </trkpt>
      <trkpt lat="49.20894" lon="0.87084">
        <ele>144.9</ele>
        <time>2021-05-09T08:42:54Z</time>
      </trkpt>
      <trkpt lat="49.20893" lon="0.87092">
        <ele>144.9</ele>
        <time>2021-05-09T08:42:55Z</time>
      </trkpt>
      <trkpt lat="49.20878" lon="0.87188">
        <ele>145.1</ele>
        <time>2021-05-09T08:43:07Z</time>
      </trkpt>
      <trkpt lat="49.20877" lon="0.87204">
        <ele>145.2</ele>
        <time>2021-05-09T08:43:09Z</time>
      </trkpt>
      <trkpt lat="49.20877" lon="0.87213">
        <ele>145.24</ele>
        <time>2021-05-09T08:43:10Z</time>
      </trkpt>
      <trkpt lat="49.20878" lon="0.87299">
        <ele>145.43</ele>
        <time>2021-05-09T08:43:20Z</time>
      </trkpt>
      <trkpt lat="49.20873" lon="0.87344">
        <ele>145.54</ele>
        <time>2021-05-09T08:43:25Z</time>
      </trkpt>
      <trkpt lat="49.20872" lon="0.87354">
        <ele>145.54</ele>
        <time>2021-05-09T08:43:26Z</time>
      </trkpt>
      <trkpt lat="49.20871" lon="0.87364">
        <ele>145.54</ele>
        <time>2021-05-09T08:43:27Z</time>
      </trkpt>
      <trkpt lat="49.20865" lon="0.87487">
        <ele>145.07</ele>
        <time>2021-05-09T08:43:40Z</time>
      </trkpt>
      <trkpt lat="49.20864" lon="0.87497">
        <ele>145.05</ele>
        <time>2021-05-09T08:43:41Z</time>
      </trkpt>
      <trkpt lat="49.20862" lon="0.87537">
        <ele>144.97</ele>
        <time>2021-05-09T08:43:45Z</time>
      </trkpt>
      <trkpt lat="49.20859" lon="0.87566">
        <ele>144.98</ele>
        <time>2021-05-09T08:43:48Z</time>
      </trkpt>
      <trkpt lat="49.20874" lon="0.87725">
        <ele>145.01</ele>
        <time>2021-05-09T08:44:05Z</time>
      </trkpt>
      <trkpt lat="49.20886" lon="0.879">
        <ele>146.37</ele>
        <time>2021-05-09T08:44:24Z</time>
      </trkpt>
      <trkpt lat="49.20879" lon="0.8808">
        <ele>146.67</ele>
        <time>2021-05-09T08:44:44Z</time>
      </trkpt>
      <trkpt lat="49.2089" lon="0.88227">
        <ele>147.15</ele>
        <time>2021-05-09T08:45:01Z</time>
      </trkpt>
      <trkpt lat="49.20893" lon="0.88296">
        <ele>147.46</ele>
        <time>2021-05-09T08:45:09Z</time>
      </trkpt>
      <trkpt lat="49.20892" lon="0.88372">
        <ele>147.88</ele>
        <time>2021-05-09T08:45:18Z</time>
      </trkpt>
      <trkpt lat="49.20893" lon="0.88379">
        <ele>147.96</ele>
        <time>2021-05-09T08:45:19Z</time>
      </trkpt>
      <trkpt lat="49.20894" lon="0.88388">
        <ele>148.01</ele>
        <time>2021-05-09T08:45:20Z</time>
      </trkpt>
      <trkpt lat="49.20894" lon="0.88396">
        <ele>148.06</ele>
        <time>2021-05-09T08:45:21Z</time>
      </trkpt>
      <trkpt lat="49.20897" lon="0.8844">
        <ele>148.59</ele>
        <time>2021-05-09T08:45:26Z</time>
      </trkpt>
      <trkpt lat="49.20897" lon="0.88473">
        <ele>148.8</ele>
        <time>2021-05-09T08:45:30Z</time>
      </trkpt>
      <trkpt lat="49.20911" lon="0.88487">
        <ele>148.98</ele>
        <time>2021-05-09T08:45:34Z</time>
      </trkpt>
      <trkpt lat="49.20939" lon="0.88478">
        <ele>149.82</ele>
        <time>2021-05-09T08:45:40Z</time>
      </trkpt>
      <trkpt lat="49.20944" lon="0.88478">
        <ele>149.99</ele>
        <time>2021-05-09T08:45:41Z</time>
      </trkpt>
      <trkpt lat="49.20948" lon="0.88482">
        <ele>150.1</ele>
        <time>2021-05-09T08:45:42Z</time>
      </trkpt>
      <trkpt lat="49.20952" lon="0.88489">
        <ele>150.35</ele>
        <time>2021-05-09T08:45:43Z</time>
      </trkpt>
      <trkpt lat="49.20955" lon="0.88496">
        <ele>150.55</ele>
        <time>2021-05-09T08:45:44Z</time>
      </trkpt>
      <trkpt lat="49.20962" lon="0.8851">
        <ele>150.78</ele>
        <time>2021-05-09T08:45:46Z</time>
      </trkpt>
      <trkpt lat="49.20966" lon="0.88515">
        <ele>150.83</ele>
        <time>2021-05-09T08:45:47Z</time>
      </trkpt>
      <trkpt lat="49.20995" lon="0.88556">
        <ele>151.87</ele>
        <time>2021-05-09T08:45:55Z</time>
      </trkpt>
      <trkpt lat="49.20997" lon="0.88562">
        <ele>151.97</ele>
        <time>2021-05-09T08:45:56Z</time>
      </trkpt>
      <trkpt lat="49.21035" lon="0.88657">
        <ele>152.98</ele>
        <time>2021-05-09T08:46:09Z</time>
      </trkpt>
      <trkpt lat="49.21038" lon="0.88664">
        <ele>153.07</ele>
        <time>2021-05-09T08:46:10Z</time>
      </trkpt>
      <trkpt lat="49.21041" lon="0.88671">
        <ele>153.15</ele>
        <time>2021-05-09T08:46:11Z</time>
      </trkpt>
      <trkpt lat="49.21043" lon="0.88679">
        <ele>153.2</ele>
        <time>2021-05-09T08:46:12Z</time>
      </trkpt>
      <trkpt lat="49.21048" lon="0.88711">
        <ele>153.59</ele>
        <time>2021-05-09T08:46:16Z</time>
      </trkpt>
      <trkpt lat="49.21049" lon="0.88719">
        <ele>153.72</ele>
        <time>2021-05-09T08:46:17Z</time>
      </trkpt>
      <trkpt lat="49.21048" lon="0.88736">
        <ele>153.98</ele>
        <time>2021-05-09T08:46:19Z</time>
      </trkpt>
      <trkpt lat="49.21047" lon="0.88745">
        <ele>154.24</ele>
        <time>2021-05-09T08:46:20Z</time>
      </trkpt>
      <trkpt lat="49.21045" lon="0.88753">
        <ele>154.55</ele>
        <time>2021-05-09T08:46:21Z</time>
      </trkpt>
      <trkpt lat="49.2102" lon="0.88871">
        <ele>155.15</ele>
        <time>2021-05-09T08:46:36Z</time>
      </trkpt>
      <trkpt lat="49.21017" lon="0.88878">
        <ele>155.12</ele>
        <time>2021-05-09T08:46:37Z</time>
      </trkpt>
      <trkpt lat="49.21013" lon="0.88891">
        <ele>154.99</ele>
        <time>2021-05-09T08:46:39Z</time>
      </trkpt>
      <trkpt lat="49.21002" lon="0.88927">
        <ele>154.57</ele>
        <time>2021-05-09T08:46:44Z</time>
      </trkpt>
      <trkpt lat="49.20989" lon="0.88964">
        <ele>154.27</ele>
        <time>2021-05-09T08:46:49Z</time>
      </trkpt>
      <trkpt lat="49.20988" lon="0.89015">
        <ele>154.08</ele>
        <time>2021-05-09T08:46:55Z</time>
      </trkpt>
      <trkpt lat="49.21021" lon="0.89158">
        <ele>154.25</ele>
        <time>2021-05-09T08:47:12Z</time>
      </trkpt>
      <trkpt lat="49.21036" lon="0.89237">
        <ele>154.52</ele>
        <time>2021-05-09T08:47:21Z</time>
      </trkpt>
      <trkpt lat="49.21067" lon="0.89407">
        <ele>155.26</ele>
        <time>2021-05-09T08:47:40Z</time>
      </trkpt>
      <trkpt lat="49.21098" lon="0.89544">
        <ele>156.13</ele>
        <time>2021-05-09T08:47:56Z</time>
      </trkpt>
      <trkpt lat="49.21154" lon="0.89705">
        <ele>157.67</ele>
        <time>2021-05-09T08:48:16Z</time>
      </trkpt>
      <trkpt lat="49.21218" lon="0.89843">
        <ele>158.2</ele>
        <time>2021-05-09T08:48:34Z</time>
      </trkpt>
      <trkpt lat="49.21287" lon="0.8999">
        <ele>158.82</ele>
        <time>2021-05-09T08:48:53Z</time>
      </trkpt>
      <trkpt lat="49.21352" lon="0.90144">
        <ele>159.46</ele>
        <time>2021-05-09T08:49:12Z</time>
      </trkpt>
      <trkpt lat="49.21381" lon="0.90228">
        <ele>159.63</ele>
        <time>2021-05-09T08:49:22Z</time>
      </trkpt>
      <trkpt lat="49.21384" lon="0.90233">
        <ele>159.63</ele>
        <time>2021-05-09T08:49:23Z</time>
      </trkpt>
      <trkpt lat="49.21388" lon="0.90237">
        <ele>159.65</ele>
        <time>2021-05-09T08:49:24Z</time>
      </trkpt>
      <trkpt lat="49.21393" lon="0.90239">
        <ele>159.67</ele>
        <time>2021-05-09T08:49:25Z</time>
      </trkpt>
      <trkpt lat="49.21398" lon="0.90239">
        <ele>159.68</ele>
        <time>2021-05-09T08:49:26Z</time>
      </trkpt>
      <trkpt lat="49.21404" lon="0.9024">
        <ele>159.7</ele>
        <time>2021-05-09T08:49:27Z</time>
      </trkpt>
      <trkpt lat="49.21425" lon="0.90241">
        <ele>159.83</ele>
        <time>2021-05-09T08:49:31Z</time>
      </trkpt>
      <trkpt lat="49.21431" lon="0.9024">
        <ele>159.86</ele>
        <time>2021-05-09T08:49:32Z</time>
      </trkpt>
      <trkpt lat="49.21437" lon="0.90239">
        <ele>159.86</ele>
        <time>2021-05-09T08:49:33Z</time>
      </trkpt>
      <trkpt lat="49.21465" lon="0.9023">
        <ele>159.86</ele>
        <time>2021-05-09T08:49:38Z</time>
      </trkpt>
      <trkpt lat="49.21528" lon="0.90194">
        <ele>160.31</ele>
        <time>2021-05-09T08:49:50Z</time>
      </trkpt>
      <trkpt lat="49.21533" lon="0.90194">
        <ele>160.38</ele>
        <time>2021-05-09T08:49:51Z</time>
      </trkpt>
      <trkpt lat="49.21539" lon="0.90197">
        <ele>160.47</ele>
        <time>2021-05-09T08:49:52Z</time>
      </trkpt>
      <trkpt lat="49.21571" lon="0.9022">
        <ele>161.21</ele>
        <time>2021-05-09T08:49:58Z</time>
      </trkpt>
      <trkpt lat="49.21651" lon="0.90283">
        <ele>164.31</ele>
        <time>2021-05-09T08:50:13Z</time>
      </trkpt>
      <trkpt lat="49.21667" lon="0.90293">
        <ele>164.64</ele>
        <time>2021-05-09T08:50:16Z</time>
      </trkpt>
      <trkpt lat="49.21674" lon="0.90293">
        <ele>164.78</ele>
        <time>2021-05-09T08:50:17Z</time>
      </trkpt>
      <trkpt lat="49.21679" lon="0.9029">
        <ele>164.9</ele>
        <time>2021-05-09T08:50:18Z</time>
      </trkpt>
      <trkpt lat="49.21736" lon="0.90264">
        <ele>165.63</ele>
        <time>2021-05-09T08:50:28Z</time>
      </trkpt>
      <trkpt lat="49.21827" lon="0.90219">
        <ele>166.21</ele>
        <time>2021-05-09T08:50:43Z</time>
      </trkpt>
      <trkpt lat="49.21874" lon="0.90204">
        <ele>166.34</ele>
        <time>2021-05-09T08:50:51Z</time>
      </trkpt>
      <trkpt lat="49.2188" lon="0.90205">
        <ele>166.43</ele>
        <time>2021-05-09T08:50:52Z</time>
      </trkpt>
      <trkpt lat="49.21886" lon="0.90207">
        <ele>166.53</ele>
        <time>2021-05-09T08:50:53Z</time>
      </trkpt>
      <trkpt lat="49.21892" lon="0.90213">
        <ele>166.59</ele>
        <time>2021-05-09T08:50:54Z</time>
      </trkpt>
      <trkpt lat="49.21898" lon="0.90219">
        <ele>166.62</ele>
        <time>2021-05-09T08:50:55Z</time>
      </trkpt>
      <trkpt lat="49.21904" lon="0.90226">
        <ele>166.64</ele>
        <time>2021-05-09T08:50:56Z</time>
      </trkpt>
      <trkpt lat="49.21976" lon="0.903">
        <ele>166.82</ele>
        <time>2021-05-09T08:51:09Z</time>
      </trkpt>
      <trkpt lat="49.22061" lon="0.90385">
        <ele>167.2</ele>
        <time>2021-05-09T08:51:24Z</time>
      </trkpt>
      <trkpt lat="49.22149" lon="0.90471">
        <ele>167.59</ele>
        <time>2021-05-09T08:51:39Z</time>
      </trkpt>
      <trkpt lat="49.2223" lon="0.90551">
        <ele>168.12</ele>
        <time>2021-05-09T08:51:53Z</time>
      </trkpt>
      <trkpt lat="49.22236" lon="0.90553">
        <ele>168.15</ele>
        <time>2021-05-09T08:51:54Z</time>
      </trkpt>
      <trkpt lat="49.22242" lon="0.90552">
        <ele>168.17</ele>
        <time>2021-05-09T08:51:55Z</time>
      </trkpt>
      <trkpt lat="49.22248" lon="0.90548">
        <ele>168.18</ele>
        <time>2021-05-09T08:51:56Z</time>
      </trkpt>
      <trkpt lat="49.22252" lon="0.90542">
        <ele>168.19</ele>
        <time>2021-05-09T08:51:57Z</time>
      </trkpt>
      <trkpt lat="49.22336" lon="0.9044">
        <ele>168.51</ele>
        <time>2021-05-09T08:52:12Z</time>
      </trkpt>
      <trkpt lat="49.22427" lon="0.90344">
        <ele>168.74</ele>
        <time>2021-05-09T08:52:27Z</time>
      </trkpt>
      <trkpt lat="49.22502" lon="0.90291">
        <ele>168.51</ele>
        <time>2021-05-09T08:52:37Z</time>
      </trkpt>
      <trkpt lat="49.2251" lon="0.90292">
        <ele>168.52</ele>
        <time>2021-05-09T08:52:38Z</time>
      </trkpt>
      <trkpt lat="49.22516" lon="0.90295">
        <ele>168.57</ele>
        <time>2021-05-09T08:52:39Z</time>
      </trkpt>
      <trkpt lat="49.22521" lon="0.90299">
        <ele>168.6</ele>
        <time>2021-05-09T08:52:40Z</time>
      </trkpt>
      <trkpt lat="49.22524" lon="0.90305">
        <ele>168.61</ele>
        <time>2021-05-09T08:52:41Z</time>
      </trkpt>
      <trkpt lat="49.22527" lon="0.90312">
        <ele>168.62</ele>
        <time>2021-05-09T08:52:42Z</time>
      </trkpt>
      <trkpt lat="49.22531" lon="0.90318">
        <ele>168.62</ele>
        <time>2021-05-09T08:52:43Z</time>
      </trkpt>
      <trkpt lat="49.22534" lon="0.90324">
        <ele>168.62</ele>
        <time>2021-05-09T08:52:44Z</time>
      </trkpt>
      <trkpt lat="49.22541" lon="0.90335">
        <ele>169.15</ele>
        <time>2021-05-09T08:52:50Z</time>
      </trkpt>
    </trkseg>
  </trk>
</gpx>